<?xml version="1.0" encoding="UTF-8" standalone="no" ?>
<gpx xmlns="http://www.topografix.com/GPX/1/1" xmlns:xsi="http://www.w3.org/2001/XMLSchema-instance" xsi:schemaLocation="http://www.topografix.com/GPX/1/1 http://www.topografix.com/GPX/1/1/gpx.xsd" version="1.1" creator="VisuGPX - https://www.visugpx.com">
  <metadata>
    <name>VTT moulin de cance</name>
  </metadata>
  <trk>
    <name><![CDATA[VTT moulin de cance]]></name>
    <trkseg>
      <trkpt lat="45.29254" lon="4.73425">
        <ele>382.79998779297</ele>
        <time>2021-09-17T11:28:28Z</time>
      </trkpt>
      <trkpt lat="45.29254" lon="4.73422">
        <ele>382.79998779297</ele>
        <time>2021-09-17T11:29:20Z</time>
      </trkpt>
      <trkpt lat="45.29255" lon="4.73421">
        <ele>382.60000610352</ele>
        <time>2021-09-17T11:29:33Z</time>
      </trkpt>
      <trkpt lat="45.29253" lon="4.73414">
        <ele>382.60000610352</ele>
        <time>2021-09-17T11:29:36Z</time>
      </trkpt>
      <trkpt lat="45.29245" lon="4.73395">
        <ele>382.79998779297</ele>
        <time>2021-09-17T11:29:41Z</time>
      </trkpt>
      <trkpt lat="45.29211" lon="4.7341">
        <ele>382.39999389648</ele>
        <time>2021-09-17T11:29:52Z</time>
      </trkpt>
      <trkpt lat="45.29198" lon="4.73425">
        <ele>382</ele>
        <time>2021-09-17T11:29:55Z</time>
      </trkpt>
      <trkpt lat="45.29178" lon="4.73432">
        <ele>381</ele>
        <time>2021-09-17T11:30:01Z</time>
      </trkpt>
      <trkpt lat="45.29167" lon="4.73412">
        <ele>380.39999389648</ele>
        <time>2021-09-17T11:30:06Z</time>
      </trkpt>
      <trkpt lat="45.29137" lon="4.73408">
        <ele>380</ele>
        <time>2021-09-17T11:30:15Z</time>
      </trkpt>
      <trkpt lat="45.2913" lon="4.7342">
        <ele>379.60000610352</ele>
        <time>2021-09-17T11:30:17Z</time>
      </trkpt>
      <trkpt lat="45.29121" lon="4.73428">
        <ele>379.20001220703</ele>
        <time>2021-09-17T11:30:19Z</time>
      </trkpt>
      <trkpt lat="45.29094" lon="4.73415">
        <ele>377.79998779297</ele>
        <time>2021-09-17T11:30:24Z</time>
      </trkpt>
      <trkpt lat="45.29061" lon="4.73379">
        <ele>376.79998779297</ele>
        <time>2021-09-17T11:30:30Z</time>
      </trkpt>
      <trkpt lat="45.28983" lon="4.73269">
        <ele>374.39999389648</ele>
        <time>2021-09-17T11:30:45Z</time>
      </trkpt>
      <trkpt lat="45.28904" lon="4.73158">
        <ele>373.39999389648</ele>
        <time>2021-09-17T11:31:01Z</time>
      </trkpt>
      <trkpt lat="45.289" lon="4.7315">
        <ele>373.39999389648</ele>
        <time>2021-09-17T11:31:02Z</time>
      </trkpt>
      <trkpt lat="45.2887" lon="4.73095">
        <ele>373</ele>
        <time>2021-09-17T11:31:09Z</time>
      </trkpt>
      <trkpt lat="45.28842" lon="4.73008">
        <ele>372.60000610352</ele>
        <time>2021-09-17T11:31:19Z</time>
      </trkpt>
      <trkpt lat="45.28831" lon="4.72968">
        <ele>372.39999389648</ele>
        <time>2021-09-17T11:31:24Z</time>
      </trkpt>
      <trkpt lat="45.28819" lon="4.72938">
        <ele>372.79998779297</ele>
        <time>2021-09-17T11:31:28Z</time>
      </trkpt>
      <trkpt lat="45.28797" lon="4.72914">
        <ele>373.20001220703</ele>
        <time>2021-09-17T11:31:33Z</time>
      </trkpt>
      <trkpt lat="45.28731" lon="4.72871">
        <ele>374.60000610352</ele>
        <time>2021-09-17T11:31:49Z</time>
      </trkpt>
      <trkpt lat="45.28686" lon="4.72851">
        <ele>376.20001220703</ele>
        <time>2021-09-17T11:32:03Z</time>
      </trkpt>
      <trkpt lat="45.28674" lon="4.72884">
        <ele>377.39999389648</ele>
        <time>2021-09-17T11:32:13Z</time>
      </trkpt>
      <trkpt lat="45.28665" lon="4.72907">
        <ele>378.79998779297</ele>
        <time>2021-09-17T11:32:21Z</time>
      </trkpt>
      <trkpt lat="45.28656" lon="4.72948">
        <ele>379.60000610352</ele>
        <time>2021-09-17T11:32:31Z</time>
      </trkpt>
      <trkpt lat="45.28659" lon="4.72969">
        <ele>379.79998779297</ele>
        <time>2021-09-17T11:32:35Z</time>
      </trkpt>
      <trkpt lat="45.2866" lon="4.72982">
        <ele>379.79998779297</ele>
        <time>2021-09-17T11:32:37Z</time>
      </trkpt>
      <trkpt lat="45.28647" lon="4.73017">
        <ele>379.79998779297</ele>
        <time>2021-09-17T11:32:43Z</time>
      </trkpt>
      <trkpt lat="45.28642" lon="4.7306">
        <ele>379.60000610352</ele>
        <time>2021-09-17T11:32:49Z</time>
      </trkpt>
      <trkpt lat="45.28628" lon="4.73092">
        <ele>379</ele>
        <time>2021-09-17T11:32:57Z</time>
      </trkpt>
      <trkpt lat="45.28621" lon="4.73089">
        <ele>378.79998779297</ele>
        <time>2021-09-17T11:32:59Z</time>
      </trkpt>
      <trkpt lat="45.28601" lon="4.73079">
        <ele>378.79998779297</ele>
        <time>2021-09-17T11:33:05Z</time>
      </trkpt>
      <trkpt lat="45.28562" lon="4.73043">
        <ele>379.60000610352</ele>
        <time>2021-09-17T11:33:16Z</time>
      </trkpt>
      <trkpt lat="45.28558" lon="4.7304">
        <ele>379.79998779297</ele>
        <time>2021-09-17T11:33:17Z</time>
      </trkpt>
      <trkpt lat="45.2855" lon="4.73031">
        <ele>380</ele>
        <time>2021-09-17T11:33:19Z</time>
      </trkpt>
      <trkpt lat="45.28521" lon="4.73003">
        <ele>381</ele>
        <time>2021-09-17T11:33:26Z</time>
      </trkpt>
      <trkpt lat="45.28448" lon="4.72978">
        <ele>381</ele>
        <time>2021-09-17T11:33:41Z</time>
      </trkpt>
      <trkpt lat="45.28427" lon="4.72976">
        <ele>380.20001220703</ele>
        <time>2021-09-17T11:33:45Z</time>
      </trkpt>
      <trkpt lat="45.28414" lon="4.7298">
        <ele>379.79998779297</ele>
        <time>2021-09-17T11:33:48Z</time>
      </trkpt>
      <trkpt lat="45.28393" lon="4.72982">
        <ele>378.60000610352</ele>
        <time>2021-09-17T11:33:52Z</time>
      </trkpt>
      <trkpt lat="45.28397" lon="4.72985">
        <ele>377.79998779297</ele>
        <time>2021-09-17T11:33:55Z</time>
      </trkpt>
      <trkpt lat="45.28395" lon="4.72984">
        <ele>377.79998779297</ele>
        <time>2021-09-17T11:33:56Z</time>
      </trkpt>
      <trkpt lat="45.28389" lon="4.72981">
        <ele>378</ele>
        <time>2021-09-17T11:33:59Z</time>
      </trkpt>
      <trkpt lat="45.28381" lon="4.72992">
        <ele>378.79998779297</ele>
        <time>2021-09-17T11:34:05Z</time>
      </trkpt>
      <trkpt lat="45.2834" lon="4.73033">
        <ele>380.60000610352</ele>
        <time>2021-09-17T11:34:22Z</time>
      </trkpt>
      <trkpt lat="45.28289" lon="4.73057">
        <ele>383.60000610352</ele>
        <time>2021-09-17T11:34:41Z</time>
      </trkpt>
      <trkpt lat="45.28253" lon="4.73073">
        <ele>386</ele>
        <time>2021-09-17T11:34:56Z</time>
      </trkpt>
      <trkpt lat="45.28206" lon="4.73085">
        <ele>388</ele>
        <time>2021-09-17T11:35:13Z</time>
      </trkpt>
      <trkpt lat="45.28171" lon="4.73098">
        <ele>389.79998779297</ele>
        <time>2021-09-17T11:35:26Z</time>
      </trkpt>
      <trkpt lat="45.28134" lon="4.73113">
        <ele>391.39999389648</ele>
        <time>2021-09-17T11:35:41Z</time>
      </trkpt>
      <trkpt lat="45.28115" lon="4.73121">
        <ele>393.39999389648</ele>
        <time>2021-09-17T11:35:51Z</time>
      </trkpt>
      <trkpt lat="45.28094" lon="4.73131">
        <ele>396.39999389648</ele>
        <time>2021-09-17T11:36:02Z</time>
      </trkpt>
      <trkpt lat="45.28071" lon="4.73147">
        <ele>399.39999389648</ele>
        <time>2021-09-17T11:36:15Z</time>
      </trkpt>
      <trkpt lat="45.28035" lon="4.73161">
        <ele>402.39999389648</ele>
        <time>2021-09-17T11:36:33Z</time>
      </trkpt>
      <trkpt lat="45.28004" lon="4.73174">
        <ele>405.39999389648</ele>
        <time>2021-09-17T11:36:49Z</time>
      </trkpt>
      <trkpt lat="45.2798" lon="4.73185">
        <ele>408.39999389648</ele>
        <time>2021-09-17T11:37:01Z</time>
      </trkpt>
      <trkpt lat="45.27945" lon="4.73197">
        <ele>411.39999389648</ele>
        <time>2021-09-17T11:37:17Z</time>
      </trkpt>
      <trkpt lat="45.27908" lon="4.73206">
        <ele>413.60000610352</ele>
        <time>2021-09-17T11:37:31Z</time>
      </trkpt>
      <trkpt lat="45.27857" lon="4.73225">
        <ele>415.39999389648</ele>
        <time>2021-09-17T11:37:48Z</time>
      </trkpt>
      <trkpt lat="45.27807" lon="4.73246">
        <ele>416.20001220703</ele>
        <time>2021-09-17T11:38:02Z</time>
      </trkpt>
      <trkpt lat="45.27708" lon="4.73283">
        <ele>413.79998779297</ele>
        <time>2021-09-17T11:38:28Z</time>
      </trkpt>
      <trkpt lat="45.27638" lon="4.73328">
        <ele>411.79998779297</ele>
        <time>2021-09-17T11:38:41Z</time>
      </trkpt>
      <trkpt lat="45.27564" lon="4.73373">
        <ele>408.39999389648</ele>
        <time>2021-09-17T11:38:51Z</time>
      </trkpt>
      <trkpt lat="45.27539" lon="4.73387">
        <ele>407.39999389648</ele>
        <time>2021-09-17T11:38:54Z</time>
      </trkpt>
      <trkpt lat="45.27464" lon="4.73431">
        <ele>403.79998779297</ele>
        <time>2021-09-17T11:39:03Z</time>
      </trkpt>
      <trkpt lat="45.27411" lon="4.73465">
        <ele>398.79998779297</ele>
        <time>2021-09-17T11:39:09Z</time>
      </trkpt>
      <trkpt lat="45.27374" lon="4.73489">
        <ele>395.79998779297</ele>
        <time>2021-09-17T11:39:13Z</time>
      </trkpt>
      <trkpt lat="45.27307" lon="4.73527">
        <ele>391.60000610352</ele>
        <time>2021-09-17T11:39:20Z</time>
      </trkpt>
      <trkpt lat="45.27273" lon="4.73548">
        <ele>388.39999389648</ele>
        <time>2021-09-17T11:39:24Z</time>
      </trkpt>
      <trkpt lat="45.27257" lon="4.73554">
        <ele>387.39999389648</ele>
        <time>2021-09-17T11:39:26Z</time>
      </trkpt>
      <trkpt lat="45.27196" lon="4.73589">
        <ele>386.60000610352</ele>
        <time>2021-09-17T11:39:36Z</time>
      </trkpt>
      <trkpt lat="45.27103" lon="4.73649">
        <ele>383.60000610352</ele>
        <time>2021-09-17T11:39:50Z</time>
      </trkpt>
      <trkpt lat="45.27033" lon="4.73695">
        <ele>381</ele>
        <time>2021-09-17T11:40:00Z</time>
      </trkpt>
      <trkpt lat="45.26996" lon="4.7372">
        <ele>380</ele>
        <time>2021-09-17T11:40:06Z</time>
      </trkpt>
      <trkpt lat="45.26937" lon="4.73756">
        <ele>379.60000610352</ele>
        <time>2021-09-17T11:40:17Z</time>
      </trkpt>
      <trkpt lat="45.26875" lon="4.73762">
        <ele>378.20001220703</ele>
        <time>2021-09-17T11:40:26Z</time>
      </trkpt>
      <trkpt lat="45.26855" lon="4.73768">
        <ele>375.60000610352</ele>
        <time>2021-09-17T11:40:32Z</time>
      </trkpt>
      <trkpt lat="45.26854" lon="4.73794">
        <ele>374.60000610352</ele>
        <time>2021-09-17T11:40:37Z</time>
      </trkpt>
      <trkpt lat="45.26852" lon="4.73824">
        <ele>374</ele>
        <time>2021-09-17T11:40:41Z</time>
      </trkpt>
      <trkpt lat="45.26852" lon="4.73942">
        <ele>371.79998779297</ele>
        <time>2021-09-17T11:40:54Z</time>
      </trkpt>
      <trkpt lat="45.26822" lon="4.73958">
        <ele>371</ele>
        <time>2021-09-17T11:41:01Z</time>
      </trkpt>
      <trkpt lat="45.26809" lon="4.73957">
        <ele>370.79998779297</ele>
        <time>2021-09-17T11:41:03Z</time>
      </trkpt>
      <trkpt lat="45.26779" lon="4.73988">
        <ele>370.79998779297</ele>
        <time>2021-09-17T11:41:09Z</time>
      </trkpt>
      <trkpt lat="45.26764" lon="4.74074">
        <ele>370.60000610352</ele>
        <time>2021-09-17T11:41:20Z</time>
      </trkpt>
      <trkpt lat="45.26731" lon="4.74224">
        <ele>370.20001220703</ele>
        <time>2021-09-17T11:41:40Z</time>
      </trkpt>
      <trkpt lat="45.26723" lon="4.74226">
        <ele>370.20001220703</ele>
        <time>2021-09-17T11:41:44Z</time>
      </trkpt>
      <trkpt lat="45.26694" lon="4.74213">
        <ele>369.20001220703</ele>
        <time>2021-09-17T11:41:52Z</time>
      </trkpt>
      <trkpt lat="45.2669" lon="4.74227">
        <ele>368.20001220703</ele>
        <time>2021-09-17T11:42:00Z</time>
      </trkpt>
      <trkpt lat="45.2669" lon="4.74227">
        <ele>368.20001220703</ele>
        <time>2021-09-17T11:42:04Z</time>
      </trkpt>
      <trkpt lat="45.26631" lon="4.74226">
        <ele>367.60000610352</ele>
        <time>2021-09-17T11:42:19Z</time>
      </trkpt>
      <trkpt lat="45.26616" lon="4.74219">
        <ele>367.20001220703</ele>
        <time>2021-09-17T11:42:21Z</time>
      </trkpt>
      <trkpt lat="45.26572" lon="4.74202">
        <ele>364.79998779297</ele>
        <time>2021-09-17T11:42:27Z</time>
      </trkpt>
      <trkpt lat="45.2656" lon="4.74195">
        <ele>364</ele>
        <time>2021-09-17T11:42:29Z</time>
      </trkpt>
      <trkpt lat="45.26521" lon="4.74162">
        <ele>361</ele>
        <time>2021-09-17T11:42:35Z</time>
      </trkpt>
      <trkpt lat="45.26493" lon="4.74176">
        <ele>358.39999389648</ele>
        <time>2021-09-17T11:42:40Z</time>
      </trkpt>
      <trkpt lat="45.26478" lon="4.74196">
        <ele>356.79998779297</ele>
        <time>2021-09-17T11:42:43Z</time>
      </trkpt>
      <trkpt lat="45.26467" lon="4.7421">
        <ele>356.20001220703</ele>
        <time>2021-09-17T11:42:45Z</time>
      </trkpt>
      <trkpt lat="45.26453" lon="4.7422">
        <ele>355.20001220703</ele>
        <time>2021-09-17T11:42:47Z</time>
      </trkpt>
      <trkpt lat="45.26416" lon="4.74239">
        <ele>352.20001220703</ele>
        <time>2021-09-17T11:42:52Z</time>
      </trkpt>
      <trkpt lat="45.26361" lon="4.74267">
        <ele>348.39999389648</ele>
        <time>2021-09-17T11:43:00Z</time>
      </trkpt>
      <trkpt lat="45.26336" lon="4.74278">
        <ele>347.20001220703</ele>
        <time>2021-09-17T11:43:04Z</time>
      </trkpt>
      <trkpt lat="45.26282" lon="4.74251">
        <ele>345.20001220703</ele>
        <time>2021-09-17T11:43:13Z</time>
      </trkpt>
      <trkpt lat="45.26272" lon="4.7424">
        <ele>344</ele>
        <time>2021-09-17T11:43:15Z</time>
      </trkpt>
      <trkpt lat="45.26262" lon="4.74221">
        <ele>343.60000610352</ele>
        <time>2021-09-17T11:43:19Z</time>
      </trkpt>
      <trkpt lat="45.26275" lon="4.74166">
        <ele>346.39999389648</ele>
        <time>2021-09-17T11:43:31Z</time>
      </trkpt>
      <trkpt lat="45.26281" lon="4.74133">
        <ele>348.60000610352</ele>
        <time>2021-09-17T11:43:40Z</time>
      </trkpt>
      <trkpt lat="45.26281" lon="4.74118">
        <ele>350.39999389648</ele>
        <time>2021-09-17T11:43:46Z</time>
      </trkpt>
      <trkpt lat="45.26282" lon="4.741">
        <ele>351.79998779297</ele>
        <time>2021-09-17T11:43:53Z</time>
      </trkpt>
      <trkpt lat="45.26275" lon="4.74105">
        <ele>353</ele>
        <time>2021-09-17T11:43:59Z</time>
      </trkpt>
      <trkpt lat="45.26261" lon="4.74114">
        <ele>354.20001220703</ele>
        <time>2021-09-17T11:44:07Z</time>
      </trkpt>
      <trkpt lat="45.26241" lon="4.74109">
        <ele>356.60000610352</ele>
        <time>2021-09-17T11:44:19Z</time>
      </trkpt>
      <trkpt lat="45.26224" lon="4.74104">
        <ele>359.60000610352</ele>
        <time>2021-09-17T11:44:31Z</time>
      </trkpt>
      <trkpt lat="45.26201" lon="4.74093">
        <ele>362.79998779297</ele>
        <time>2021-09-17T11:44:47Z</time>
      </trkpt>
      <trkpt lat="45.26166" lon="4.7411">
        <ele>364</ele>
        <time>2021-09-17T11:45:00Z</time>
      </trkpt>
      <trkpt lat="45.26084" lon="4.74157">
        <ele>361.39999389648</ele>
        <time>2021-09-17T11:45:15Z</time>
      </trkpt>
      <trkpt lat="45.26048" lon="4.74184">
        <ele>359.60000610352</ele>
        <time>2021-09-17T11:45:21Z</time>
      </trkpt>
      <trkpt lat="45.26" lon="4.74213">
        <ele>356.60000610352</ele>
        <time>2021-09-17T11:45:28Z</time>
      </trkpt>
      <trkpt lat="45.25974" lon="4.74199">
        <ele>353</ele>
        <time>2021-09-17T11:45:33Z</time>
      </trkpt>
      <trkpt lat="45.25959" lon="4.7415">
        <ele>350</ele>
        <time>2021-09-17T11:45:39Z</time>
      </trkpt>
      <trkpt lat="45.25957" lon="4.74126">
        <ele>346.60000610352</ele>
        <time>2021-09-17T11:45:42Z</time>
      </trkpt>
      <trkpt lat="45.25956" lon="4.74112">
        <ele>345.60000610352</ele>
        <time>2021-09-17T11:45:44Z</time>
      </trkpt>
      <trkpt lat="45.25955" lon="4.741">
        <ele>344.60000610352</ele>
        <time>2021-09-17T11:45:46Z</time>
      </trkpt>
      <trkpt lat="45.25953" lon="4.74078">
        <ele>342.39999389648</ele>
        <time>2021-09-17T11:45:49Z</time>
      </trkpt>
      <trkpt lat="45.25927" lon="4.74025">
        <ele>339</ele>
        <time>2021-09-17T11:45:56Z</time>
      </trkpt>
      <trkpt lat="45.25908" lon="4.74022">
        <ele>335.60000610352</ele>
        <time>2021-09-17T11:46:01Z</time>
      </trkpt>
      <trkpt lat="45.25901" lon="4.7404">
        <ele>334.39999389648</ele>
        <time>2021-09-17T11:46:04Z</time>
      </trkpt>
      <trkpt lat="45.25893" lon="4.74064">
        <ele>333.79998779297</ele>
        <time>2021-09-17T11:46:11Z</time>
      </trkpt>
      <trkpt lat="45.2589" lon="4.74074">
        <ele>335.20001220703</ele>
        <time>2021-09-17T11:46:16Z</time>
      </trkpt>
      <trkpt lat="45.25875" lon="4.74102">
        <ele>337.20001220703</ele>
        <time>2021-09-17T11:46:28Z</time>
      </trkpt>
      <trkpt lat="45.25874" lon="4.74102">
        <ele>337.39999389648</ele>
        <time>2021-09-17T11:46:29Z</time>
      </trkpt>
      <trkpt lat="45.25863" lon="4.7411">
        <ele>339.20001220703</ele>
        <time>2021-09-17T11:46:35Z</time>
      </trkpt>
      <trkpt lat="45.25856" lon="4.74113">
        <ele>340</ele>
        <time>2021-09-17T11:46:38Z</time>
      </trkpt>
      <trkpt lat="45.25851" lon="4.74116">
        <ele>340.60000610352</ele>
        <time>2021-09-17T11:46:41Z</time>
      </trkpt>
      <trkpt lat="45.2585" lon="4.74119">
        <ele>341.60000610352</ele>
        <time>2021-09-17T11:46:45Z</time>
      </trkpt>
      <trkpt lat="45.25851" lon="4.74143">
        <ele>342.20001220703</ele>
        <time>2021-09-17T11:46:50Z</time>
      </trkpt>
      <trkpt lat="45.25844" lon="4.74174">
        <ele>341.60000610352</ele>
        <time>2021-09-17T11:46:54Z</time>
      </trkpt>
      <trkpt lat="45.2584" lon="4.74207">
        <ele>339</ele>
        <time>2021-09-17T11:46:58Z</time>
      </trkpt>
      <trkpt lat="45.25837" lon="4.74242">
        <ele>336.20001220703</ele>
        <time>2021-09-17T11:47:02Z</time>
      </trkpt>
      <trkpt lat="45.25835" lon="4.74269">
        <ele>334.20001220703</ele>
        <time>2021-09-17T11:47:05Z</time>
      </trkpt>
      <trkpt lat="45.25814" lon="4.74329">
        <ele>331</ele>
        <time>2021-09-17T11:47:11Z</time>
      </trkpt>
      <trkpt lat="45.25812" lon="4.74335">
        <ele>330.60000610352</ele>
        <time>2021-09-17T11:47:12Z</time>
      </trkpt>
      <trkpt lat="45.25812" lon="4.74355">
        <ele>328.79998779297</ele>
        <time>2021-09-17T11:47:19Z</time>
      </trkpt>
      <trkpt lat="45.25814" lon="4.74356">
        <ele>327.39999389648</ele>
        <time>2021-09-17T11:47:27Z</time>
      </trkpt>
      <trkpt lat="45.25824" lon="4.74387">
        <ele>327.60000610352</ele>
        <time>2021-09-17T11:47:57Z</time>
      </trkpt>
      <trkpt lat="45.25856" lon="4.74433">
        <ele>327</ele>
        <time>2021-09-17T11:48:08Z</time>
      </trkpt>
      <trkpt lat="45.25883" lon="4.74476">
        <ele>327.60000610352</ele>
        <time>2021-09-17T11:48:16Z</time>
      </trkpt>
      <trkpt lat="45.25906" lon="4.7455">
        <ele>327.20001220703</ele>
        <time>2021-09-17T11:48:27Z</time>
      </trkpt>
      <trkpt lat="45.25911" lon="4.74564">
        <ele>326.79998779297</ele>
        <time>2021-09-17T11:48:30Z</time>
      </trkpt>
      <trkpt lat="45.25913" lon="4.7457">
        <ele>326.60000610352</ele>
        <time>2021-09-17T11:48:31Z</time>
      </trkpt>
      <trkpt lat="45.25929" lon="4.746">
        <ele>326.39999389648</ele>
        <time>2021-09-17T11:48:35Z</time>
      </trkpt>
      <trkpt lat="45.25937" lon="4.74614">
        <ele>326.20001220703</ele>
        <time>2021-09-17T11:48:39Z</time>
      </trkpt>
      <trkpt lat="45.25946" lon="4.74642">
        <ele>325.79998779297</ele>
        <time>2021-09-17T11:48:45Z</time>
      </trkpt>
      <trkpt lat="45.2596" lon="4.74671">
        <ele>325.60000610352</ele>
        <time>2021-09-17T11:48:49Z</time>
      </trkpt>
      <trkpt lat="45.25967" lon="4.74685">
        <ele>325.20001220703</ele>
        <time>2021-09-17T11:48:52Z</time>
      </trkpt>
      <trkpt lat="45.25975" lon="4.74704">
        <ele>324.79998779297</ele>
        <time>2021-09-17T11:48:55Z</time>
      </trkpt>
      <trkpt lat="45.25984" lon="4.74734">
        <ele>323.79998779297</ele>
        <time>2021-09-17T11:48:59Z</time>
      </trkpt>
      <trkpt lat="45.25979" lon="4.7474">
        <ele>323</ele>
        <time>2021-09-17T11:49:06Z</time>
      </trkpt>
      <trkpt lat="45.25984" lon="4.74777">
        <ele>322.79998779297</ele>
        <time>2021-09-17T11:49:13Z</time>
      </trkpt>
      <trkpt lat="45.25984" lon="4.7479">
        <ele>322.79998779297</ele>
        <time>2021-09-17T11:49:15Z</time>
      </trkpt>
      <trkpt lat="45.25981" lon="4.74802">
        <ele>322.79998779297</ele>
        <time>2021-09-17T11:49:17Z</time>
      </trkpt>
      <trkpt lat="45.25982" lon="4.74857">
        <ele>322.39999389648</ele>
        <time>2021-09-17T11:49:23Z</time>
      </trkpt>
      <trkpt lat="45.25982" lon="4.74862">
        <ele>322</ele>
        <time>2021-09-17T11:49:24Z</time>
      </trkpt>
      <trkpt lat="45.25986" lon="4.74878">
        <ele>320.60000610352</ele>
        <time>2021-09-17T11:49:29Z</time>
      </trkpt>
      <trkpt lat="45.25985" lon="4.74907">
        <ele>319.79998779297</ele>
        <time>2021-09-17T11:49:35Z</time>
      </trkpt>
      <trkpt lat="45.25985" lon="4.74908">
        <ele>318.79998779297</ele>
        <time>2021-09-17T11:49:41Z</time>
      </trkpt>
      <trkpt lat="45.25985" lon="4.74915">
        <ele>317.39999389648</ele>
        <time>2021-09-17T11:50:10Z</time>
      </trkpt>
      <trkpt lat="45.25985" lon="4.74916">
        <ele>318.60000610352</ele>
        <time>2021-09-17T11:50:29Z</time>
      </trkpt>
      <trkpt lat="45.25976" lon="4.74947">
        <ele>318</ele>
        <time>2021-09-17T11:50:38Z</time>
      </trkpt>
      <trkpt lat="45.25971" lon="4.74964">
        <ele>317.60000610352</ele>
        <time>2021-09-17T11:50:44Z</time>
      </trkpt>
      <trkpt lat="45.25963" lon="4.74978">
        <ele>317.39999389648</ele>
        <time>2021-09-17T11:50:51Z</time>
      </trkpt>
      <trkpt lat="45.25963" lon="4.74983">
        <ele>317.39999389648</ele>
        <time>2021-09-17T11:50:55Z</time>
      </trkpt>
      <trkpt lat="45.25946" lon="4.75003">
        <ele>316.39999389648</ele>
        <time>2021-09-17T11:51:01Z</time>
      </trkpt>
      <trkpt lat="45.25944" lon="4.75005">
        <ele>316.60000610352</ele>
        <time>2021-09-17T11:51:02Z</time>
      </trkpt>
      <trkpt lat="45.25941" lon="4.75007">
        <ele>316.39999389648</ele>
        <time>2021-09-17T11:51:05Z</time>
      </trkpt>
      <trkpt lat="45.25916" lon="4.75015">
        <ele>317.20001220703</ele>
        <time>2021-09-17T11:51:13Z</time>
      </trkpt>
      <trkpt lat="45.25907" lon="4.74989">
        <ele>317.79998779297</ele>
        <time>2021-09-17T11:51:21Z</time>
      </trkpt>
      <trkpt lat="45.25903" lon="4.74988">
        <ele>318.39999389648</ele>
        <time>2021-09-17T11:51:25Z</time>
      </trkpt>
      <trkpt lat="45.25894" lon="4.74998">
        <ele>321.39999389648</ele>
        <time>2021-09-17T11:51:33Z</time>
      </trkpt>
      <trkpt lat="45.25893" lon="4.74999">
        <ele>321.60000610352</ele>
        <time>2021-09-17T11:51:35Z</time>
      </trkpt>
      <trkpt lat="45.25891" lon="4.75001">
        <ele>321.79998779297</ele>
        <time>2021-09-17T11:51:37Z</time>
      </trkpt>
      <trkpt lat="45.25881" lon="4.75021">
        <ele>323.39999389648</ele>
        <time>2021-09-17T11:51:47Z</time>
      </trkpt>
      <trkpt lat="45.2588" lon="4.75024">
        <ele>323.60000610352</ele>
        <time>2021-09-17T11:51:48Z</time>
      </trkpt>
      <trkpt lat="45.2588" lon="4.75036">
        <ele>324.39999389648</ele>
        <time>2021-09-17T11:51:53Z</time>
      </trkpt>
      <trkpt lat="45.25884" lon="4.75051">
        <ele>325.20001220703</ele>
        <time>2021-09-17T11:51:58Z</time>
      </trkpt>
      <trkpt lat="45.25886" lon="4.75068">
        <ele>325.79998779297</ele>
        <time>2021-09-17T11:52:03Z</time>
      </trkpt>
      <trkpt lat="45.25885" lon="4.75079">
        <ele>326.79998779297</ele>
        <time>2021-09-17T11:52:07Z</time>
      </trkpt>
      <trkpt lat="45.25873" lon="4.7509">
        <ele>328.60000610352</ele>
        <time>2021-09-17T11:52:16Z</time>
      </trkpt>
      <trkpt lat="45.25862" lon="4.75074">
        <ele>329.60000610352</ele>
        <time>2021-09-17T11:52:26Z</time>
      </trkpt>
      <trkpt lat="45.25848" lon="4.75045">
        <ele>331.39999389648</ele>
        <time>2021-09-17T11:52:40Z</time>
      </trkpt>
      <trkpt lat="45.25843" lon="4.75032">
        <ele>332.39999389648</ele>
        <time>2021-09-17T11:52:45Z</time>
      </trkpt>
      <trkpt lat="45.25841" lon="4.75015">
        <ele>333.60000610352</ele>
        <time>2021-09-17T11:52:53Z</time>
      </trkpt>
      <trkpt lat="45.25839" lon="4.7501">
        <ele>334</ele>
        <time>2021-09-17T11:52:56Z</time>
      </trkpt>
      <trkpt lat="45.25831" lon="4.74987">
        <ele>336.79998779297</ele>
        <time>2021-09-17T11:53:09Z</time>
      </trkpt>
      <trkpt lat="45.25827" lon="4.74978">
        <ele>337.20001220703</ele>
        <time>2021-09-17T11:53:14Z</time>
      </trkpt>
      <trkpt lat="45.25822" lon="4.74974">
        <ele>337.79998779297</ele>
        <time>2021-09-17T11:53:16Z</time>
      </trkpt>
      <trkpt lat="45.25819" lon="4.74962">
        <ele>339</ele>
        <time>2021-09-17T11:53:22Z</time>
      </trkpt>
      <trkpt lat="45.25813" lon="4.74958">
        <ele>340.20001220703</ele>
        <time>2021-09-17T11:53:26Z</time>
      </trkpt>
      <trkpt lat="45.2581" lon="4.74951">
        <ele>342</ele>
        <time>2021-09-17T11:53:30Z</time>
      </trkpt>
      <trkpt lat="45.25808" lon="4.7495">
        <ele>342.20001220703</ele>
        <time>2021-09-17T11:53:31Z</time>
      </trkpt>
      <trkpt lat="45.25803" lon="4.74944">
        <ele>342.79998779297</ele>
        <time>2021-09-17T11:53:35Z</time>
      </trkpt>
      <trkpt lat="45.25796" lon="4.74922">
        <ele>345.79998779297</ele>
        <time>2021-09-17T11:53:48Z</time>
      </trkpt>
      <trkpt lat="45.25796" lon="4.74919">
        <ele>345.79998779297</ele>
        <time>2021-09-17T11:53:49Z</time>
      </trkpt>
      <trkpt lat="45.25789" lon="4.74897">
        <ele>347</ele>
        <time>2021-09-17T11:53:57Z</time>
      </trkpt>
      <trkpt lat="45.25779" lon="4.74871">
        <ele>348.39999389648</ele>
        <time>2021-09-17T11:54:08Z</time>
      </trkpt>
      <trkpt lat="45.25772" lon="4.74854">
        <ele>349.20001220703</ele>
        <time>2021-09-17T11:54:16Z</time>
      </trkpt>
      <trkpt lat="45.25762" lon="4.74827">
        <ele>350.60000610352</ele>
        <time>2021-09-17T11:54:26Z</time>
      </trkpt>
      <trkpt lat="45.2575" lon="4.74798">
        <ele>351.39999389648</ele>
        <time>2021-09-17T11:54:36Z</time>
      </trkpt>
      <trkpt lat="45.25735" lon="4.74779">
        <ele>352.39999389648</ele>
        <time>2021-09-17T11:54:43Z</time>
      </trkpt>
      <trkpt lat="45.25718" lon="4.74757">
        <ele>353.79998779297</ele>
        <time>2021-09-17T11:54:53Z</time>
      </trkpt>
      <trkpt lat="45.25698" lon="4.74725">
        <ele>354.39999389648</ele>
        <time>2021-09-17T11:55:03Z</time>
      </trkpt>
      <trkpt lat="45.25668" lon="4.74676">
        <ele>355</ele>
        <time>2021-09-17T11:55:18Z</time>
      </trkpt>
      <trkpt lat="45.25608" lon="4.74608">
        <ele>356.20001220703</ele>
        <time>2021-09-17T11:55:40Z</time>
      </trkpt>
      <trkpt lat="45.25591" lon="4.74585">
        <ele>356.20001220703</ele>
        <time>2021-09-17T11:55:45Z</time>
      </trkpt>
      <trkpt lat="45.2556" lon="4.74531">
        <ele>356.20001220703</ele>
        <time>2021-09-17T11:55:56Z</time>
      </trkpt>
      <trkpt lat="45.25518" lon="4.74449">
        <ele>357</ele>
        <time>2021-09-17T11:56:14Z</time>
      </trkpt>
      <trkpt lat="45.25513" lon="4.74439">
        <ele>357.20001220703</ele>
        <time>2021-09-17T11:56:16Z</time>
      </trkpt>
      <trkpt lat="45.25487" lon="4.7439">
        <ele>358</ele>
        <time>2021-09-17T11:56:26Z</time>
      </trkpt>
      <trkpt lat="45.25463" lon="4.74376">
        <ele>358.39999389648</ele>
        <time>2021-09-17T11:56:32Z</time>
      </trkpt>
      <trkpt lat="45.25363" lon="4.74407">
        <ele>359.39999389648</ele>
        <time>2021-09-17T11:56:57Z</time>
      </trkpt>
      <trkpt lat="45.25338" lon="4.74396">
        <ele>361.60000610352</ele>
        <time>2021-09-17T11:57:08Z</time>
      </trkpt>
      <trkpt lat="45.25315" lon="4.74375">
        <ele>364</ele>
        <time>2021-09-17T11:57:22Z</time>
      </trkpt>
      <trkpt lat="45.25279" lon="4.74363">
        <ele>367</ele>
        <time>2021-09-17T11:57:37Z</time>
      </trkpt>
      <trkpt lat="45.25237" lon="4.74345">
        <ele>368</ele>
        <time>2021-09-17T11:57:51Z</time>
      </trkpt>
      <trkpt lat="45.25172" lon="4.74327">
        <ele>368.79998779297</ele>
        <time>2021-09-17T11:58:10Z</time>
      </trkpt>
      <trkpt lat="45.25169" lon="4.74355">
        <ele>370</ele>
        <time>2021-09-17T11:58:16Z</time>
      </trkpt>
      <trkpt lat="45.25178" lon="4.74487">
        <ele>371.39999389648</ele>
        <time>2021-09-17T11:58:40Z</time>
      </trkpt>
      <trkpt lat="45.25185" lon="4.74554">
        <ele>371.39999389648</ele>
        <time>2021-09-17T11:58:50Z</time>
      </trkpt>
      <trkpt lat="45.25195" lon="4.74652">
        <ele>372.39999389648</ele>
        <time>2021-09-17T11:59:08Z</time>
      </trkpt>
      <trkpt lat="45.25216" lon="4.74736">
        <ele>375.20001220703</ele>
        <time>2021-09-17T11:59:26Z</time>
      </trkpt>
      <trkpt lat="45.25233" lon="4.74811">
        <ele>377.79998779297</ele>
        <time>2021-09-17T11:59:43Z</time>
      </trkpt>
      <trkpt lat="45.25245" lon="4.7488">
        <ele>379.60000610352</ele>
        <time>2021-09-17T11:59:59Z</time>
      </trkpt>
      <trkpt lat="45.25249" lon="4.74952">
        <ele>380.79998779297</ele>
        <time>2021-09-17T12:00:14Z</time>
      </trkpt>
      <trkpt lat="45.25264" lon="4.74991">
        <ele>380.39999389648</ele>
        <time>2021-09-17T12:00:21Z</time>
      </trkpt>
      <trkpt lat="45.25297" lon="4.75071">
        <ele>379.60000610352</ele>
        <time>2021-09-17T12:00:35Z</time>
      </trkpt>
      <trkpt lat="45.25295" lon="4.75096">
        <ele>379.39999389648</ele>
        <time>2021-09-17T12:00:39Z</time>
      </trkpt>
      <trkpt lat="45.25289" lon="4.75117">
        <ele>379.20001220703</ele>
        <time>2021-09-17T12:00:42Z</time>
      </trkpt>
      <trkpt lat="45.25301" lon="4.75181">
        <ele>377.60000610352</ele>
        <time>2021-09-17T12:00:50Z</time>
      </trkpt>
      <trkpt lat="45.25349" lon="4.75312">
        <ele>374.79998779297</ele>
        <time>2021-09-17T12:01:08Z</time>
      </trkpt>
      <trkpt lat="45.25404" lon="4.75439">
        <ele>371.20001220703</ele>
        <time>2021-09-17T12:01:22Z</time>
      </trkpt>
      <trkpt lat="45.25419" lon="4.75464">
        <ele>370.39999389648</ele>
        <time>2021-09-17T12:01:25Z</time>
      </trkpt>
      <trkpt lat="45.25437" lon="4.75485">
        <ele>369</ele>
        <time>2021-09-17T12:01:28Z</time>
      </trkpt>
      <trkpt lat="45.25454" lon="4.75515">
        <ele>367.39999389648</ele>
        <time>2021-09-17T12:01:31Z</time>
      </trkpt>
      <trkpt lat="45.25481" lon="4.75582">
        <ele>363.79998779297</ele>
        <time>2021-09-17T12:01:39Z</time>
      </trkpt>
      <trkpt lat="45.25483" lon="4.75595">
        <ele>360.39999389648</ele>
        <time>2021-09-17T12:01:42Z</time>
      </trkpt>
      <trkpt lat="45.25481" lon="4.75612">
        <ele>358.20001220703</ele>
        <time>2021-09-17T12:01:46Z</time>
      </trkpt>
      <trkpt lat="45.2548" lon="4.75617">
        <ele>357.60000610352</ele>
        <time>2021-09-17T12:01:47Z</time>
      </trkpt>
      <trkpt lat="45.2548" lon="4.75657">
        <ele>356.20001220703</ele>
        <time>2021-09-17T12:01:52Z</time>
      </trkpt>
      <trkpt lat="45.25494" lon="4.75773">
        <ele>353.39999389648</ele>
        <time>2021-09-17T12:02:05Z</time>
      </trkpt>
      <trkpt lat="45.25496" lon="4.75788">
        <ele>353</ele>
        <time>2021-09-17T12:02:07Z</time>
      </trkpt>
      <trkpt lat="45.25497" lon="4.75812">
        <ele>352.79998779297</ele>
        <time>2021-09-17T12:02:10Z</time>
      </trkpt>
      <trkpt lat="45.25502" lon="4.75839">
        <ele>352.39999389648</ele>
        <time>2021-09-17T12:02:13Z</time>
      </trkpt>
      <trkpt lat="45.25511" lon="4.75942">
        <ele>349.20001220703</ele>
        <time>2021-09-17T12:02:22Z</time>
      </trkpt>
      <trkpt lat="45.25515" lon="4.76017">
        <ele>345</ele>
        <time>2021-09-17T12:02:28Z</time>
      </trkpt>
      <trkpt lat="45.25514" lon="4.76029">
        <ele>344.79998779297</ele>
        <time>2021-09-17T12:02:29Z</time>
      </trkpt>
      <trkpt lat="45.255" lon="4.76065">
        <ele>340.60000610352</ele>
        <time>2021-09-17T12:02:33Z</time>
      </trkpt>
      <trkpt lat="45.25496" lon="4.76072">
        <ele>339.79998779297</ele>
        <time>2021-09-17T12:02:34Z</time>
      </trkpt>
      <trkpt lat="45.25477" lon="4.76116">
        <ele>336.39999389648</ele>
        <time>2021-09-17T12:02:39Z</time>
      </trkpt>
      <trkpt lat="45.25462" lon="4.76137">
        <ele>335.39999389648</ele>
        <time>2021-09-17T12:02:42Z</time>
      </trkpt>
      <trkpt lat="45.25444" lon="4.76159">
        <ele>334.39999389648</ele>
        <time>2021-09-17T12:02:45Z</time>
      </trkpt>
      <trkpt lat="45.25437" lon="4.76165">
        <ele>334.20001220703</ele>
        <time>2021-09-17T12:02:46Z</time>
      </trkpt>
      <trkpt lat="45.25417" lon="4.7619">
        <ele>331.60000610352</ele>
        <time>2021-09-17T12:02:49Z</time>
      </trkpt>
      <trkpt lat="45.25391" lon="4.76218">
        <ele>328.60000610352</ele>
        <time>2021-09-17T12:02:53Z</time>
      </trkpt>
      <trkpt lat="45.25385" lon="4.76252">
        <ele>326.60000610352</ele>
        <time>2021-09-17T12:02:58Z</time>
      </trkpt>
      <trkpt lat="45.25388" lon="4.76302">
        <ele>327.20001220703</ele>
        <time>2021-09-17T12:03:09Z</time>
      </trkpt>
      <trkpt lat="45.25382" lon="4.76324">
        <ele>327.20001220703</ele>
        <time>2021-09-17T12:03:13Z</time>
      </trkpt>
      <trkpt lat="45.25366" lon="4.76402">
        <ele>324</ele>
        <time>2021-09-17T12:03:23Z</time>
      </trkpt>
      <trkpt lat="45.25364" lon="4.7641">
        <ele>323.79998779297</ele>
        <time>2021-09-17T12:03:24Z</time>
      </trkpt>
      <trkpt lat="45.25361" lon="4.76426">
        <ele>322.20001220703</ele>
        <time>2021-09-17T12:03:26Z</time>
      </trkpt>
      <trkpt lat="45.2536" lon="4.76448">
        <ele>319.60000610352</ele>
        <time>2021-09-17T12:03:29Z</time>
      </trkpt>
      <trkpt lat="45.25348" lon="4.76482">
        <ele>316.60000610352</ele>
        <time>2021-09-17T12:03:35Z</time>
      </trkpt>
      <trkpt lat="45.25342" lon="4.76494">
        <ele>313.60000610352</ele>
        <time>2021-09-17T12:03:38Z</time>
      </trkpt>
      <trkpt lat="45.25335" lon="4.76486">
        <ele>310.39999389648</ele>
        <time>2021-09-17T12:03:42Z</time>
      </trkpt>
      <trkpt lat="45.25335" lon="4.76482">
        <ele>309.79998779297</ele>
        <time>2021-09-17T12:03:43Z</time>
      </trkpt>
      <trkpt lat="45.25332" lon="4.76468">
        <ele>308.60000610352</ele>
        <time>2021-09-17T12:03:46Z</time>
      </trkpt>
      <trkpt lat="45.25329" lon="4.76466">
        <ele>308.39999389648</ele>
        <time>2021-09-17T12:03:47Z</time>
      </trkpt>
      <trkpt lat="45.2531" lon="4.76481">
        <ele>305.20001220703</ele>
        <time>2021-09-17T12:03:52Z</time>
      </trkpt>
      <trkpt lat="45.25307" lon="4.76505">
        <ele>301.60000610352</ele>
        <time>2021-09-17T12:03:55Z</time>
      </trkpt>
      <trkpt lat="45.25308" lon="4.76514">
        <ele>301.39999389648</ele>
        <time>2021-09-17T12:03:56Z</time>
      </trkpt>
      <trkpt lat="45.25313" lon="4.7654">
        <ele>297.39999389648</ele>
        <time>2021-09-17T12:03:59Z</time>
      </trkpt>
      <trkpt lat="45.25315" lon="4.76548">
        <ele>296.20001220703</ele>
        <time>2021-09-17T12:04:00Z</time>
      </trkpt>
      <trkpt lat="45.25318" lon="4.76563">
        <ele>293</ele>
        <time>2021-09-17T12:04:02Z</time>
      </trkpt>
      <trkpt lat="45.25322" lon="4.76585">
        <ele>291.39999389648</ele>
        <time>2021-09-17T12:04:05Z</time>
      </trkpt>
      <trkpt lat="45.25324" lon="4.76591">
        <ele>291</ele>
        <time>2021-09-17T12:04:06Z</time>
      </trkpt>
      <trkpt lat="45.25329" lon="4.76618">
        <ele>289</ele>
        <time>2021-09-17T12:04:10Z</time>
      </trkpt>
      <trkpt lat="45.25331" lon="4.76641">
        <ele>286.60000610352</ele>
        <time>2021-09-17T12:04:13Z</time>
      </trkpt>
      <trkpt lat="45.25333" lon="4.76674">
        <ele>282.60000610352</ele>
        <time>2021-09-17T12:04:18Z</time>
      </trkpt>
      <trkpt lat="45.25327" lon="4.76679">
        <ele>279.20001220703</ele>
        <time>2021-09-17T12:04:22Z</time>
      </trkpt>
      <trkpt lat="45.25325" lon="4.76681">
        <ele>278.39999389648</ele>
        <time>2021-09-17T12:04:23Z</time>
      </trkpt>
      <trkpt lat="45.25315" lon="4.76689">
        <ele>276.39999389648</ele>
        <time>2021-09-17T12:04:26Z</time>
      </trkpt>
      <trkpt lat="45.25309" lon="4.76699">
        <ele>275.60000610352</ele>
        <time>2021-09-17T12:04:28Z</time>
      </trkpt>
      <trkpt lat="45.25305" lon="4.76719">
        <ele>275.20001220703</ele>
        <time>2021-09-17T12:04:31Z</time>
      </trkpt>
      <trkpt lat="45.25303" lon="4.76732">
        <ele>274</ele>
        <time>2021-09-17T12:04:34Z</time>
      </trkpt>
      <trkpt lat="45.25295" lon="4.76731">
        <ele>273.39999389648</ele>
        <time>2021-09-17T12:04:39Z</time>
      </trkpt>
      <trkpt lat="45.25287" lon="4.76726">
        <ele>275.79998779297</ele>
        <time>2021-09-17T12:04:46Z</time>
      </trkpt>
      <trkpt lat="45.25283" lon="4.76721">
        <ele>277.39999389648</ele>
        <time>2021-09-17T12:04:51Z</time>
      </trkpt>
      <trkpt lat="45.25282" lon="4.76718">
        <ele>278.20001220703</ele>
        <time>2021-09-17T12:04:54Z</time>
      </trkpt>
      <trkpt lat="45.2528" lon="4.76707">
        <ele>279.60000610352</ele>
        <time>2021-09-17T12:05:00Z</time>
      </trkpt>
      <trkpt lat="45.25279" lon="4.76705">
        <ele>280</ele>
        <time>2021-09-17T12:05:01Z</time>
      </trkpt>
      <trkpt lat="45.25273" lon="4.7669">
        <ele>282.79998779297</ele>
        <time>2021-09-17T12:05:12Z</time>
      </trkpt>
      <trkpt lat="45.25272" lon="4.76681">
        <ele>283.79998779297</ele>
        <time>2021-09-17T12:05:17Z</time>
      </trkpt>
      <trkpt lat="45.2527" lon="4.76676">
        <ele>284.60000610352</ele>
        <time>2021-09-17T12:05:21Z</time>
      </trkpt>
      <trkpt lat="45.25266" lon="4.76668">
        <ele>285.20001220703</ele>
        <time>2021-09-17T12:05:25Z</time>
      </trkpt>
      <trkpt lat="45.25258" lon="4.76656">
        <ele>286.20001220703</ele>
        <time>2021-09-17T12:05:33Z</time>
      </trkpt>
      <trkpt lat="45.25253" lon="4.76636">
        <ele>287.79998779297</ele>
        <time>2021-09-17T12:05:45Z</time>
      </trkpt>
      <trkpt lat="45.25249" lon="4.76618">
        <ele>289.20001220703</ele>
        <time>2021-09-17T12:05:57Z</time>
      </trkpt>
      <trkpt lat="45.25248" lon="4.76608">
        <ele>289.79998779297</ele>
        <time>2021-09-17T12:06:02Z</time>
      </trkpt>
      <trkpt lat="45.25246" lon="4.76578">
        <ele>291.39999389648</ele>
        <time>2021-09-17T12:06:13Z</time>
      </trkpt>
      <trkpt lat="45.25242" lon="4.7657">
        <ele>291.79998779297</ele>
        <time>2021-09-17T12:06:16Z</time>
      </trkpt>
      <trkpt lat="45.25238" lon="4.76546">
        <ele>292.60000610352</ele>
        <time>2021-09-17T12:06:24Z</time>
      </trkpt>
      <trkpt lat="45.25229" lon="4.76527">
        <ele>293.79998779297</ele>
        <time>2021-09-17T12:06:31Z</time>
      </trkpt>
      <trkpt lat="45.25229" lon="4.76522">
        <ele>294</ele>
        <time>2021-09-17T12:06:34Z</time>
      </trkpt>
      <trkpt lat="45.25228" lon="4.76517">
        <ele>294.39999389648</ele>
        <time>2021-09-17T12:06:37Z</time>
      </trkpt>
      <trkpt lat="45.25223" lon="4.76508">
        <ele>295.79998779297</ele>
        <time>2021-09-17T12:06:42Z</time>
      </trkpt>
      <trkpt lat="45.25221" lon="4.76505">
        <ele>296</ele>
        <time>2021-09-17T12:06:44Z</time>
      </trkpt>
      <trkpt lat="45.25217" lon="4.76494">
        <ele>297</ele>
        <time>2021-09-17T12:06:49Z</time>
      </trkpt>
      <trkpt lat="45.25216" lon="4.76474">
        <ele>297.79998779297</ele>
        <time>2021-09-17T12:06:56Z</time>
      </trkpt>
      <trkpt lat="45.25218" lon="4.76455">
        <ele>298.39999389648</ele>
        <time>2021-09-17T12:07:03Z</time>
      </trkpt>
      <trkpt lat="45.25218" lon="4.7645">
        <ele>298.39999389648</ele>
        <time>2021-09-17T12:07:04Z</time>
      </trkpt>
      <trkpt lat="45.25212" lon="4.76424">
        <ele>300</ele>
        <time>2021-09-17T12:07:13Z</time>
      </trkpt>
      <trkpt lat="45.25222" lon="4.76416">
        <ele>300.79998779297</ele>
        <time>2021-09-17T12:07:20Z</time>
      </trkpt>
      <trkpt lat="45.25224" lon="4.76415">
        <ele>300.79998779297</ele>
        <time>2021-09-17T12:07:21Z</time>
      </trkpt>
      <trkpt lat="45.25235" lon="4.76402">
        <ele>301.39999389648</ele>
        <time>2021-09-17T12:07:30Z</time>
      </trkpt>
      <trkpt lat="45.25235" lon="4.76399">
        <ele>301.79998779297</ele>
        <time>2021-09-17T12:07:32Z</time>
      </trkpt>
      <trkpt lat="45.25235" lon="4.76388">
        <ele>302.79998779297</ele>
        <time>2021-09-17T12:07:37Z</time>
      </trkpt>
      <trkpt lat="45.25233" lon="4.76361">
        <ele>303</ele>
        <time>2021-09-17T12:07:46Z</time>
      </trkpt>
      <trkpt lat="45.25234" lon="4.76355">
        <ele>303.39999389648</ele>
        <time>2021-09-17T12:07:48Z</time>
      </trkpt>
      <trkpt lat="45.25233" lon="4.76342">
        <ele>304.20001220703</ele>
        <time>2021-09-17T12:07:52Z</time>
      </trkpt>
      <trkpt lat="45.25238" lon="4.76316">
        <ele>304.79998779297</ele>
        <time>2021-09-17T12:08:00Z</time>
      </trkpt>
      <trkpt lat="45.25237" lon="4.7631">
        <ele>305.20001220703</ele>
        <time>2021-09-17T12:08:02Z</time>
      </trkpt>
      <trkpt lat="45.25235" lon="4.76306">
        <ele>305.20001220703</ele>
        <time>2021-09-17T12:08:03Z</time>
      </trkpt>
      <trkpt lat="45.25235" lon="4.76294">
        <ele>306</ele>
        <time>2021-09-17T12:08:07Z</time>
      </trkpt>
      <trkpt lat="45.25227" lon="4.7628">
        <ele>307.60000610352</ele>
        <time>2021-09-17T12:08:14Z</time>
      </trkpt>
      <trkpt lat="45.25225" lon="4.76275">
        <ele>308</ele>
        <time>2021-09-17T12:08:16Z</time>
      </trkpt>
      <trkpt lat="45.25211" lon="4.76255">
        <ele>309.79998779297</ele>
        <time>2021-09-17T12:08:29Z</time>
      </trkpt>
      <trkpt lat="45.25203" lon="4.76249">
        <ele>310.20001220703</ele>
        <time>2021-09-17T12:08:34Z</time>
      </trkpt>
      <trkpt lat="45.25183" lon="4.76241">
        <ele>311.20001220703</ele>
        <time>2021-09-17T12:08:44Z</time>
      </trkpt>
      <trkpt lat="45.25178" lon="4.7624">
        <ele>311.39999389648</ele>
        <time>2021-09-17T12:08:47Z</time>
      </trkpt>
      <trkpt lat="45.25177" lon="4.76236">
        <ele>312</ele>
        <time>2021-09-17T12:08:50Z</time>
      </trkpt>
      <trkpt lat="45.25182" lon="4.76218">
        <ele>313</ele>
        <time>2021-09-17T12:08:59Z</time>
      </trkpt>
      <trkpt lat="45.25181" lon="4.76213">
        <ele>313.39999389648</ele>
        <time>2021-09-17T12:09:01Z</time>
      </trkpt>
      <trkpt lat="45.25167" lon="4.76199">
        <ele>314.20001220703</ele>
        <time>2021-09-17T12:09:10Z</time>
      </trkpt>
      <trkpt lat="45.25161" lon="4.76191">
        <ele>314.60000610352</ele>
        <time>2021-09-17T12:09:13Z</time>
      </trkpt>
      <trkpt lat="45.25157" lon="4.76182">
        <ele>315.20001220703</ele>
        <time>2021-09-17T12:09:17Z</time>
      </trkpt>
      <trkpt lat="45.25149" lon="4.76172">
        <ele>315.60000610352</ele>
        <time>2021-09-17T12:09:21Z</time>
      </trkpt>
      <trkpt lat="45.25142" lon="4.76152">
        <ele>316.39999389648</ele>
        <time>2021-09-17T12:09:28Z</time>
      </trkpt>
      <trkpt lat="45.25139" lon="4.76132">
        <ele>317.79998779297</ele>
        <time>2021-09-17T12:09:35Z</time>
      </trkpt>
      <trkpt lat="45.25134" lon="4.76112">
        <ele>319.20001220703</ele>
        <time>2021-09-17T12:09:44Z</time>
      </trkpt>
      <trkpt lat="45.25134" lon="4.76102">
        <ele>319.79998779297</ele>
        <time>2021-09-17T12:09:48Z</time>
      </trkpt>
      <trkpt lat="45.25128" lon="4.76092">
        <ele>320.39999389648</ele>
        <time>2021-09-17T12:09:53Z</time>
      </trkpt>
      <trkpt lat="45.25124" lon="4.76089">
        <ele>320.79998779297</ele>
        <time>2021-09-17T12:09:56Z</time>
      </trkpt>
      <trkpt lat="45.2512" lon="4.76074">
        <ele>322.39999389648</ele>
        <time>2021-09-17T12:10:04Z</time>
      </trkpt>
      <trkpt lat="45.25114" lon="4.7607">
        <ele>323</ele>
        <time>2021-09-17T12:10:08Z</time>
      </trkpt>
      <trkpt lat="45.25101" lon="4.76058">
        <ele>323.79998779297</ele>
        <time>2021-09-17T12:10:17Z</time>
      </trkpt>
      <trkpt lat="45.25091" lon="4.76054">
        <ele>324.39999389648</ele>
        <time>2021-09-17T12:10:22Z</time>
      </trkpt>
      <trkpt lat="45.2508" lon="4.76046">
        <ele>325</ele>
        <time>2021-09-17T12:10:31Z</time>
      </trkpt>
      <trkpt lat="45.25069" lon="4.76043">
        <ele>325.60000610352</ele>
        <time>2021-09-17T12:10:37Z</time>
      </trkpt>
      <trkpt lat="45.25063" lon="4.76042">
        <ele>326.20001220703</ele>
        <time>2021-09-17T12:10:41Z</time>
      </trkpt>
      <trkpt lat="45.25048" lon="4.76036">
        <ele>327.60000610352</ele>
        <time>2021-09-17T12:10:50Z</time>
      </trkpt>
      <trkpt lat="45.25032" lon="4.76033">
        <ele>328.79998779297</ele>
        <time>2021-09-17T12:10:58Z</time>
      </trkpt>
      <trkpt lat="45.25028" lon="4.76028">
        <ele>329.20001220703</ele>
        <time>2021-09-17T12:11:02Z</time>
      </trkpt>
      <trkpt lat="45.25013" lon="4.76022">
        <ele>330.39999389648</ele>
        <time>2021-09-17T12:11:10Z</time>
      </trkpt>
      <trkpt lat="45.25003" lon="4.76017">
        <ele>331.20001220703</ele>
        <time>2021-09-17T12:11:17Z</time>
      </trkpt>
      <trkpt lat="45.25" lon="4.76013">
        <ele>331.39999389648</ele>
        <time>2021-09-17T12:11:19Z</time>
      </trkpt>
      <trkpt lat="45.24991" lon="4.7601">
        <ele>331.79998779297</ele>
        <time>2021-09-17T12:11:22Z</time>
      </trkpt>
      <trkpt lat="45.24985" lon="4.76006">
        <ele>332.20001220703</ele>
        <time>2021-09-17T12:11:27Z</time>
      </trkpt>
      <trkpt lat="45.24975" lon="4.75999">
        <ele>333.20001220703</ele>
        <time>2021-09-17T12:11:34Z</time>
      </trkpt>
      <trkpt lat="45.24959" lon="4.75984">
        <ele>334.79998779297</ele>
        <time>2021-09-17T12:11:46Z</time>
      </trkpt>
      <trkpt lat="45.24946" lon="4.7597">
        <ele>336</ele>
        <time>2021-09-17T12:11:55Z</time>
      </trkpt>
      <trkpt lat="45.24942" lon="4.75969">
        <ele>336.20001220703</ele>
        <time>2021-09-17T12:11:57Z</time>
      </trkpt>
      <trkpt lat="45.24942" lon="4.7598">
        <ele>337.60000610352</ele>
        <time>2021-09-17T12:12:05Z</time>
      </trkpt>
      <trkpt lat="45.24945" lon="4.75989">
        <ele>338.60000610352</ele>
        <time>2021-09-17T12:12:12Z</time>
      </trkpt>
      <trkpt lat="45.2495" lon="4.76004">
        <ele>340.79998779297</ele>
        <time>2021-09-17T12:12:23Z</time>
      </trkpt>
      <trkpt lat="45.24955" lon="4.76017">
        <ele>341.79998779297</ele>
        <time>2021-09-17T12:12:30Z</time>
      </trkpt>
      <trkpt lat="45.24953" lon="4.76035">
        <ele>343.79998779297</ele>
        <time>2021-09-17T12:12:39Z</time>
      </trkpt>
      <trkpt lat="45.2495" lon="4.7604">
        <ele>345</ele>
        <time>2021-09-17T12:12:43Z</time>
      </trkpt>
      <trkpt lat="45.24939" lon="4.76048">
        <ele>347.39999389648</ele>
        <time>2021-09-17T12:12:53Z</time>
      </trkpt>
      <trkpt lat="45.24927" lon="4.76055">
        <ele>349.79998779297</ele>
        <time>2021-09-17T12:13:03Z</time>
      </trkpt>
      <trkpt lat="45.24921" lon="4.76059">
        <ele>350.60000610352</ele>
        <time>2021-09-17T12:13:08Z</time>
      </trkpt>
      <trkpt lat="45.24904" lon="4.76067">
        <ele>352.20001220703</ele>
        <time>2021-09-17T12:13:20Z</time>
      </trkpt>
      <trkpt lat="45.24888" lon="4.76078">
        <ele>354.20001220703</ele>
        <time>2021-09-17T12:13:34Z</time>
      </trkpt>
      <trkpt lat="45.2487" lon="4.76097">
        <ele>356.60000610352</ele>
        <time>2021-09-17T12:13:50Z</time>
      </trkpt>
      <trkpt lat="45.24852" lon="4.76119">
        <ele>359.79998779297</ele>
        <time>2021-09-17T12:14:07Z</time>
      </trkpt>
      <trkpt lat="45.24831" lon="4.76143">
        <ele>362</ele>
        <time>2021-09-17T12:14:25Z</time>
      </trkpt>
      <trkpt lat="45.24794" lon="4.76152">
        <ele>364</ele>
        <time>2021-09-17T12:14:45Z</time>
      </trkpt>
      <trkpt lat="45.24756" lon="4.76151">
        <ele>366.79998779297</ele>
        <time>2021-09-17T12:15:03Z</time>
      </trkpt>
      <trkpt lat="45.24708" lon="4.76142">
        <ele>367.20001220703</ele>
        <time>2021-09-17T12:15:16Z</time>
      </trkpt>
      <trkpt lat="45.24656" lon="4.76127">
        <ele>366.79998779297</ele>
        <time>2021-09-17T12:15:30Z</time>
      </trkpt>
      <trkpt lat="45.24614" lon="4.76099">
        <ele>367.20001220703</ele>
        <time>2021-09-17T12:15:45Z</time>
      </trkpt>
      <trkpt lat="45.2455" lon="4.76045">
        <ele>368.60000610352</ele>
        <time>2021-09-17T12:16:06Z</time>
      </trkpt>
      <trkpt lat="45.2448" lon="4.76006">
        <ele>370.60000610352</ele>
        <time>2021-09-17T12:16:25Z</time>
      </trkpt>
      <trkpt lat="45.24448" lon="4.75988">
        <ele>370.20001220703</ele>
        <time>2021-09-17T12:16:31Z</time>
      </trkpt>
      <trkpt lat="45.24425" lon="4.75954">
        <ele>369.20001220703</ele>
        <time>2021-09-17T12:16:38Z</time>
      </trkpt>
      <trkpt lat="45.24419" lon="4.75956">
        <ele>369</ele>
        <time>2021-09-17T12:16:40Z</time>
      </trkpt>
      <trkpt lat="45.24361" lon="4.75988">
        <ele>369.39999389648</ele>
        <time>2021-09-17T12:16:55Z</time>
      </trkpt>
      <trkpt lat="45.2433" lon="4.76005">
        <ele>369.60000610352</ele>
        <time>2021-09-17T12:17:03Z</time>
      </trkpt>
      <trkpt lat="45.24279" lon="4.76033">
        <ele>371.20001220703</ele>
        <time>2021-09-17T12:17:20Z</time>
      </trkpt>
      <trkpt lat="45.2423" lon="4.76048">
        <ele>372.79998779297</ele>
        <time>2021-09-17T12:17:35Z</time>
      </trkpt>
      <trkpt lat="45.24212" lon="4.7605">
        <ele>373</ele>
        <time>2021-09-17T12:17:39Z</time>
      </trkpt>
      <trkpt lat="45.24158" lon="4.76057">
        <ele>372.79998779297</ele>
        <time>2021-09-17T12:17:53Z</time>
      </trkpt>
      <trkpt lat="45.24131" lon="4.76072">
        <ele>372.60000610352</ele>
        <time>2021-09-17T12:17:58Z</time>
      </trkpt>
      <trkpt lat="45.24109" lon="4.76097">
        <ele>370.79998779297</ele>
        <time>2021-09-17T12:18:03Z</time>
      </trkpt>
      <trkpt lat="45.24087" lon="4.76143">
        <ele>366.60000610352</ele>
        <time>2021-09-17T12:18:10Z</time>
      </trkpt>
      <trkpt lat="45.24079" lon="4.76163">
        <ele>365.20001220703</ele>
        <time>2021-09-17T12:18:13Z</time>
      </trkpt>
      <trkpt lat="45.24076" lon="4.76169">
        <ele>364.20001220703</ele>
        <time>2021-09-17T12:18:14Z</time>
      </trkpt>
      <trkpt lat="45.24064" lon="4.76184">
        <ele>361.20001220703</ele>
        <time>2021-09-17T12:18:18Z</time>
      </trkpt>
      <trkpt lat="45.24054" lon="4.76191">
        <ele>357.20001220703</ele>
        <time>2021-09-17T12:18:21Z</time>
      </trkpt>
      <trkpt lat="45.24053" lon="4.76203">
        <ele>355.79998779297</ele>
        <time>2021-09-17T12:18:24Z</time>
      </trkpt>
      <trkpt lat="45.2406" lon="4.76223">
        <ele>352.79998779297</ele>
        <time>2021-09-17T12:18:28Z</time>
      </trkpt>
      <trkpt lat="45.24056" lon="4.76266">
        <ele>349.79998779297</ele>
        <time>2021-09-17T12:18:34Z</time>
      </trkpt>
      <trkpt lat="45.24035" lon="4.76285">
        <ele>346.20001220703</ele>
        <time>2021-09-17T12:18:39Z</time>
      </trkpt>
      <trkpt lat="45.2403" lon="4.76287">
        <ele>345.60000610352</ele>
        <time>2021-09-17T12:18:40Z</time>
      </trkpt>
      <trkpt lat="45.24006" lon="4.76294">
        <ele>342.39999389648</ele>
        <time>2021-09-17T12:18:45Z</time>
      </trkpt>
      <trkpt lat="45.23983" lon="4.763">
        <ele>339.60000610352</ele>
        <time>2021-09-17T12:18:50Z</time>
      </trkpt>
      <trkpt lat="45.23973" lon="4.763">
        <ele>338.79998779297</ele>
        <time>2021-09-17T12:18:52Z</time>
      </trkpt>
      <trkpt lat="45.23952" lon="4.76302">
        <ele>335.79998779297</ele>
        <time>2021-09-17T12:18:56Z</time>
      </trkpt>
      <trkpt lat="45.2393" lon="4.76305">
        <ele>333.39999389648</ele>
        <time>2021-09-17T12:19:01Z</time>
      </trkpt>
      <trkpt lat="45.23905" lon="4.76309">
        <ele>330.20001220703</ele>
        <time>2021-09-17T12:19:08Z</time>
      </trkpt>
      <trkpt lat="45.23892" lon="4.76303">
        <ele>326.60000610352</ele>
        <time>2021-09-17T12:19:14Z</time>
      </trkpt>
      <trkpt lat="45.23889" lon="4.76304">
        <ele>326.20001220703</ele>
        <time>2021-09-17T12:19:15Z</time>
      </trkpt>
      <trkpt lat="45.23886" lon="4.76324">
        <ele>323</ele>
        <time>2021-09-17T12:19:20Z</time>
      </trkpt>
      <trkpt lat="45.23881" lon="4.76348">
        <ele>319.20001220703</ele>
        <time>2021-09-17T12:19:26Z</time>
      </trkpt>
      <trkpt lat="45.2388" lon="4.7636">
        <ele>317</ele>
        <time>2021-09-17T12:19:32Z</time>
      </trkpt>
      <trkpt lat="45.23877" lon="4.7637">
        <ele>316.79998779297</ele>
        <time>2021-09-17T12:19:35Z</time>
      </trkpt>
      <trkpt lat="45.23869" lon="4.76374">
        <ele>314</ele>
        <time>2021-09-17T12:19:40Z</time>
      </trkpt>
      <trkpt lat="45.23858" lon="4.76374">
        <ele>311</ele>
        <time>2021-09-17T12:19:45Z</time>
      </trkpt>
      <trkpt lat="45.23846" lon="4.76374">
        <ele>307.20001220703</ele>
        <time>2021-09-17T12:19:50Z</time>
      </trkpt>
      <trkpt lat="45.2384" lon="4.76373">
        <ele>303.39999389648</ele>
        <time>2021-09-17T12:20:02Z</time>
      </trkpt>
      <trkpt lat="45.2384" lon="4.76373">
        <ele>303.20001220703</ele>
        <time>2021-09-17T12:20:04Z</time>
      </trkpt>
      <trkpt lat="45.23824" lon="4.76365">
        <ele>300.60000610352</ele>
        <time>2021-09-17T12:20:27Z</time>
      </trkpt>
      <trkpt lat="45.23813" lon="4.76357">
        <ele>297.79998779297</ele>
        <time>2021-09-17T12:20:33Z</time>
      </trkpt>
      <trkpt lat="45.23805" lon="4.76355">
        <ele>295.39999389648</ele>
        <time>2021-09-17T12:20:38Z</time>
      </trkpt>
      <trkpt lat="45.23796" lon="4.76368">
        <ele>293.60000610352</ele>
        <time>2021-09-17T12:20:44Z</time>
      </trkpt>
      <trkpt lat="45.23794" lon="4.76387">
        <ele>290.60000610352</ele>
        <time>2021-09-17T12:20:53Z</time>
      </trkpt>
      <trkpt lat="45.23793" lon="4.76396">
        <ele>289.20001220703</ele>
        <time>2021-09-17T12:20:57Z</time>
      </trkpt>
      <trkpt lat="45.23796" lon="4.76413">
        <ele>286</ele>
        <time>2021-09-17T12:21:05Z</time>
      </trkpt>
      <trkpt lat="45.23797" lon="4.76416">
        <ele>283</ele>
        <time>2021-09-17T12:21:19Z</time>
      </trkpt>
      <trkpt lat="45.23795" lon="4.76417">
        <ele>281.60000610352</ele>
        <time>2021-09-17T12:21:36Z</time>
      </trkpt>
      <trkpt lat="45.23793" lon="4.76417">
        <ele>281.39999389648</ele>
        <time>2021-09-17T12:21:38Z</time>
      </trkpt>
      <trkpt lat="45.23792" lon="4.76417">
        <ele>281.39999389648</ele>
        <time>2021-09-17T12:21:39Z</time>
      </trkpt>
      <trkpt lat="45.23785" lon="4.76418">
        <ele>280</ele>
        <time>2021-09-17T12:21:44Z</time>
      </trkpt>
      <trkpt lat="45.23782" lon="4.76418">
        <ele>278.79998779297</ele>
        <time>2021-09-17T12:21:48Z</time>
      </trkpt>
      <trkpt lat="45.23778" lon="4.76415">
        <ele>277.20001220703</ele>
        <time>2021-09-17T12:21:52Z</time>
      </trkpt>
      <trkpt lat="45.2377" lon="4.76414">
        <ele>274</ele>
        <time>2021-09-17T12:22:07Z</time>
      </trkpt>
      <trkpt lat="45.2377" lon="4.76414">
        <ele>273.79998779297</ele>
        <time>2021-09-17T12:22:08Z</time>
      </trkpt>
      <trkpt lat="45.23753" lon="4.76409">
        <ele>271.39999389648</ele>
        <time>2021-09-17T12:22:27Z</time>
      </trkpt>
      <trkpt lat="45.23746" lon="4.764">
        <ele>268.39999389648</ele>
        <time>2021-09-17T12:22:34Z</time>
      </trkpt>
      <trkpt lat="45.23737" lon="4.76389">
        <ele>265.60000610352</ele>
        <time>2021-09-17T12:22:40Z</time>
      </trkpt>
      <trkpt lat="45.23727" lon="4.76368">
        <ele>262.60000610352</ele>
        <time>2021-09-17T12:22:48Z</time>
      </trkpt>
      <trkpt lat="45.23727" lon="4.76365">
        <ele>262</ele>
        <time>2021-09-17T12:22:49Z</time>
      </trkpt>
      <trkpt lat="45.23728" lon="4.76361">
        <ele>259.39999389648</ele>
        <time>2021-09-17T12:22:57Z</time>
      </trkpt>
      <trkpt lat="45.23728" lon="4.76361">
        <ele>257.60000610352</ele>
        <time>2021-09-17T12:23:34Z</time>
      </trkpt>
      <trkpt lat="45.23726" lon="4.76353">
        <ele>257.20001220703</ele>
        <time>2021-09-17T12:23:39Z</time>
      </trkpt>
      <trkpt lat="45.2372" lon="4.7633">
        <ele>255.39999389648</ele>
        <time>2021-09-17T12:23:52Z</time>
      </trkpt>
      <trkpt lat="45.23722" lon="4.76291">
        <ele>254</ele>
        <time>2021-09-17T12:23:59Z</time>
      </trkpt>
      <trkpt lat="45.23701" lon="4.76268">
        <ele>251.80000305176</ele>
        <time>2021-09-17T12:24:04Z</time>
      </trkpt>
      <trkpt lat="45.23698" lon="4.76264">
        <ele>251.39999389648</ele>
        <time>2021-09-17T12:24:05Z</time>
      </trkpt>
      <trkpt lat="45.23693" lon="4.76236">
        <ele>248.60000610352</ele>
        <time>2021-09-17T12:24:10Z</time>
      </trkpt>
      <trkpt lat="45.23695" lon="4.76222">
        <ele>247.19999694824</ele>
        <time>2021-09-17T12:24:12Z</time>
      </trkpt>
      <trkpt lat="45.23692" lon="4.76192">
        <ele>244.60000610352</ele>
        <time>2021-09-17T12:24:16Z</time>
      </trkpt>
      <trkpt lat="45.2369" lon="4.76186">
        <ele>244.39999389648</ele>
        <time>2021-09-17T12:24:17Z</time>
      </trkpt>
      <trkpt lat="45.23689" lon="4.76181">
        <ele>243.60000610352</ele>
        <time>2021-09-17T12:24:18Z</time>
      </trkpt>
      <trkpt lat="45.23677" lon="4.76166">
        <ele>242.19999694824</ele>
        <time>2021-09-17T12:24:22Z</time>
      </trkpt>
      <trkpt lat="45.23646" lon="4.76177">
        <ele>240.39999389648</ele>
        <time>2021-09-17T12:24:29Z</time>
      </trkpt>
      <trkpt lat="45.23639" lon="4.76178">
        <ele>240</ele>
        <time>2021-09-17T12:24:31Z</time>
      </trkpt>
      <trkpt lat="45.23634" lon="4.76179">
        <ele>240</ele>
        <time>2021-09-17T12:24:33Z</time>
      </trkpt>
      <trkpt lat="45.23617" lon="4.76199">
        <ele>242.19999694824</ele>
        <time>2021-09-17T12:24:45Z</time>
      </trkpt>
      <trkpt lat="45.23617" lon="4.76199">
        <ele>242.39999389648</ele>
        <time>2021-09-17T12:24:46Z</time>
      </trkpt>
      <trkpt lat="45.23614" lon="4.76207">
        <ele>243.60000610352</ele>
        <time>2021-09-17T12:24:50Z</time>
      </trkpt>
      <trkpt lat="45.23612" lon="4.76214">
        <ele>244.19999694824</ele>
        <time>2021-09-17T12:24:54Z</time>
      </trkpt>
      <trkpt lat="45.23609" lon="4.7622">
        <ele>245.19999694824</ele>
        <time>2021-09-17T12:24:58Z</time>
      </trkpt>
      <trkpt lat="45.236" lon="4.76238">
        <ele>247.39999389648</ele>
        <time>2021-09-17T12:25:09Z</time>
      </trkpt>
      <trkpt lat="45.23596" lon="4.76245">
        <ele>248.39999389648</ele>
        <time>2021-09-17T12:25:14Z</time>
      </trkpt>
      <trkpt lat="45.23579" lon="4.7627">
        <ele>250.80000305176</ele>
        <time>2021-09-17T12:25:28Z</time>
      </trkpt>
      <trkpt lat="45.23562" lon="4.76284">
        <ele>253.80000305176</ele>
        <time>2021-09-17T12:25:40Z</time>
      </trkpt>
      <trkpt lat="45.23547" lon="4.76293">
        <ele>256.79998779297</ele>
        <time>2021-09-17T12:25:55Z</time>
      </trkpt>
      <trkpt lat="45.23538" lon="4.76295">
        <ele>259</ele>
        <time>2021-09-17T12:26:05Z</time>
      </trkpt>
      <trkpt lat="45.23528" lon="4.76296">
        <ele>260.20001220703</ele>
        <time>2021-09-17T12:26:11Z</time>
      </trkpt>
      <trkpt lat="45.23528" lon="4.7629">
        <ele>261.39999389648</ele>
        <time>2021-09-17T12:26:18Z</time>
      </trkpt>
      <trkpt lat="45.23535" lon="4.76283">
        <ele>263</ele>
        <time>2021-09-17T12:26:28Z</time>
      </trkpt>
      <trkpt lat="45.23541" lon="4.7627">
        <ele>265.79998779297</ele>
        <time>2021-09-17T12:26:39Z</time>
      </trkpt>
      <trkpt lat="45.23541" lon="4.76265">
        <ele>266.39999389648</ele>
        <time>2021-09-17T12:26:42Z</time>
      </trkpt>
      <trkpt lat="45.23549" lon="4.76249">
        <ele>268.60000610352</ele>
        <time>2021-09-17T12:26:52Z</time>
      </trkpt>
      <trkpt lat="45.23547" lon="4.76234">
        <ele>269.79998779297</ele>
        <time>2021-09-17T12:26:59Z</time>
      </trkpt>
      <trkpt lat="45.23553" lon="4.76224">
        <ele>271.60000610352</ele>
        <time>2021-09-17T12:27:07Z</time>
      </trkpt>
      <trkpt lat="45.23562" lon="4.76213">
        <ele>274.39999389648</ele>
        <time>2021-09-17T12:27:19Z</time>
      </trkpt>
      <trkpt lat="45.23568" lon="4.76201">
        <ele>277</ele>
        <time>2021-09-17T12:27:28Z</time>
      </trkpt>
      <trkpt lat="45.23563" lon="4.76184">
        <ele>279.39999389648</ele>
        <time>2021-09-17T12:27:42Z</time>
      </trkpt>
      <trkpt lat="45.2355" lon="4.76167">
        <ele>281.39999389648</ele>
        <time>2021-09-17T12:27:56Z</time>
      </trkpt>
      <trkpt lat="45.23543" lon="4.76156">
        <ele>282.79998779297</ele>
        <time>2021-09-17T12:28:03Z</time>
      </trkpt>
      <trkpt lat="45.23541" lon="4.76152">
        <ele>283.39999389648</ele>
        <time>2021-09-17T12:28:05Z</time>
      </trkpt>
      <trkpt lat="45.23535" lon="4.76142">
        <ele>284.39999389648</ele>
        <time>2021-09-17T12:28:10Z</time>
      </trkpt>
      <trkpt lat="45.23523" lon="4.76134">
        <ele>286.20001220703</ele>
        <time>2021-09-17T12:28:19Z</time>
      </trkpt>
      <trkpt lat="45.23515" lon="4.76121">
        <ele>287.39999389648</ele>
        <time>2021-09-17T12:28:27Z</time>
      </trkpt>
      <trkpt lat="45.23517" lon="4.76116">
        <ele>287.79998779297</ele>
        <time>2021-09-17T12:28:30Z</time>
      </trkpt>
      <trkpt lat="45.23521" lon="4.76105">
        <ele>289</ele>
        <time>2021-09-17T12:28:36Z</time>
      </trkpt>
      <trkpt lat="45.23523" lon="4.76103">
        <ele>289</ele>
        <time>2021-09-17T12:28:37Z</time>
      </trkpt>
      <trkpt lat="45.23516" lon="4.76098">
        <ele>291.20001220703</ele>
        <time>2021-09-17T12:28:45Z</time>
      </trkpt>
      <trkpt lat="45.23516" lon="4.76099">
        <ele>291.39999389648</ele>
        <time>2021-09-17T12:28:46Z</time>
      </trkpt>
      <trkpt lat="45.23507" lon="4.76108">
        <ele>293.20001220703</ele>
        <time>2021-09-17T12:28:57Z</time>
      </trkpt>
      <trkpt lat="45.23496" lon="4.76108">
        <ele>295</ele>
        <time>2021-09-17T12:29:07Z</time>
      </trkpt>
      <trkpt lat="45.23489" lon="4.76111">
        <ele>296.60000610352</ele>
        <time>2021-09-17T12:29:13Z</time>
      </trkpt>
      <trkpt lat="45.23483" lon="4.76111">
        <ele>297</ele>
        <time>2021-09-17T12:29:17Z</time>
      </trkpt>
      <trkpt lat="45.23474" lon="4.76119">
        <ele>298</ele>
        <time>2021-09-17T12:29:24Z</time>
      </trkpt>
      <trkpt lat="45.23478" lon="4.76135">
        <ele>298.79998779297</ele>
        <time>2021-09-17T12:29:33Z</time>
      </trkpt>
      <trkpt lat="45.23489" lon="4.76145">
        <ele>300.20001220703</ele>
        <time>2021-09-17T12:29:44Z</time>
      </trkpt>
      <trkpt lat="45.23495" lon="4.76163">
        <ele>302</ele>
        <time>2021-09-17T12:29:54Z</time>
      </trkpt>
      <trkpt lat="45.23494" lon="4.76173">
        <ele>302.20001220703</ele>
        <time>2021-09-17T12:29:58Z</time>
      </trkpt>
      <trkpt lat="45.23487" lon="4.76188">
        <ele>302.60000610352</ele>
        <time>2021-09-17T12:30:05Z</time>
      </trkpt>
      <trkpt lat="45.23481" lon="4.76199">
        <ele>303.39999389648</ele>
        <time>2021-09-17T12:30:10Z</time>
      </trkpt>
      <trkpt lat="45.23475" lon="4.762">
        <ele>303.79998779297</ele>
        <time>2021-09-17T12:30:14Z</time>
      </trkpt>
      <trkpt lat="45.23455" lon="4.76195">
        <ele>306.39999389648</ele>
        <time>2021-09-17T12:30:29Z</time>
      </trkpt>
      <trkpt lat="45.23431" lon="4.76191">
        <ele>309.39999389648</ele>
        <time>2021-09-17T12:30:45Z</time>
      </trkpt>
      <trkpt lat="45.23416" lon="4.76188">
        <ele>311.79998779297</ele>
        <time>2021-09-17T12:30:59Z</time>
      </trkpt>
      <trkpt lat="45.23397" lon="4.76185">
        <ele>314.60000610352</ele>
        <time>2021-09-17T12:31:13Z</time>
      </trkpt>
      <trkpt lat="45.2338" lon="4.76178">
        <ele>317.60000610352</ele>
        <time>2021-09-17T12:31:26Z</time>
      </trkpt>
      <trkpt lat="45.23365" lon="4.76168">
        <ele>319.20001220703</ele>
        <time>2021-09-17T12:31:37Z</time>
      </trkpt>
      <trkpt lat="45.2335" lon="4.7616">
        <ele>321.39999389648</ele>
        <time>2021-09-17T12:31:48Z</time>
      </trkpt>
      <trkpt lat="45.23345" lon="4.76157">
        <ele>322</ele>
        <time>2021-09-17T12:31:52Z</time>
      </trkpt>
      <trkpt lat="45.2334" lon="4.76154">
        <ele>323</ele>
        <time>2021-09-17T12:31:56Z</time>
      </trkpt>
      <trkpt lat="45.23324" lon="4.76146">
        <ele>325.39999389648</ele>
        <time>2021-09-17T12:32:07Z</time>
      </trkpt>
      <trkpt lat="45.23312" lon="4.76139">
        <ele>328.39999389648</ele>
        <time>2021-09-17T12:32:18Z</time>
      </trkpt>
      <trkpt lat="45.23294" lon="4.76129">
        <ele>330.79998779297</ele>
        <time>2021-09-17T12:32:34Z</time>
      </trkpt>
      <trkpt lat="45.23271" lon="4.76123">
        <ele>332.60000610352</ele>
        <time>2021-09-17T12:32:51Z</time>
      </trkpt>
      <trkpt lat="45.23252" lon="4.76113">
        <ele>334.60000610352</ele>
        <time>2021-09-17T12:33:06Z</time>
      </trkpt>
      <trkpt lat="45.23249" lon="4.7611">
        <ele>335.20001220703</ele>
        <time>2021-09-17T12:33:10Z</time>
      </trkpt>
      <trkpt lat="45.23245" lon="4.76085">
        <ele>337.60000610352</ele>
        <time>2021-09-17T12:33:23Z</time>
      </trkpt>
      <trkpt lat="45.23245" lon="4.76083">
        <ele>337.79998779297</ele>
        <time>2021-09-17T12:33:24Z</time>
      </trkpt>
      <trkpt lat="45.23241" lon="4.76078">
        <ele>338.60000610352</ele>
        <time>2021-09-17T12:33:28Z</time>
      </trkpt>
      <trkpt lat="45.23219" lon="4.76071">
        <ele>341.20001220703</ele>
        <time>2021-09-17T12:33:43Z</time>
      </trkpt>
      <trkpt lat="45.23195" lon="4.76072">
        <ele>343.79998779297</ele>
        <time>2021-09-17T12:33:59Z</time>
      </trkpt>
      <trkpt lat="45.23166" lon="4.76083">
        <ele>346</ele>
        <time>2021-09-17T12:34:16Z</time>
      </trkpt>
      <trkpt lat="45.23138" lon="4.76093">
        <ele>347.79998779297</ele>
        <time>2021-09-17T12:34:32Z</time>
      </trkpt>
      <trkpt lat="45.23123" lon="4.76095">
        <ele>350.79998779297</ele>
        <time>2021-09-17T12:34:44Z</time>
      </trkpt>
      <trkpt lat="45.23096" lon="4.76096">
        <ele>353.60000610352</ele>
        <time>2021-09-17T12:35:01Z</time>
      </trkpt>
      <trkpt lat="45.23065" lon="4.76093">
        <ele>356.20001220703</ele>
        <time>2021-09-17T12:35:18Z</time>
      </trkpt>
      <trkpt lat="45.23042" lon="4.76091">
        <ele>358.79998779297</ele>
        <time>2021-09-17T12:35:30Z</time>
      </trkpt>
      <trkpt lat="45.23015" lon="4.76092">
        <ele>361.79998779297</ele>
        <time>2021-09-17T12:35:44Z</time>
      </trkpt>
      <trkpt lat="45.22989" lon="4.76095">
        <ele>364.39999389648</ele>
        <time>2021-09-17T12:35:58Z</time>
      </trkpt>
      <trkpt lat="45.2296" lon="4.76092">
        <ele>366.60000610352</ele>
        <time>2021-09-17T12:36:13Z</time>
      </trkpt>
      <trkpt lat="45.22922" lon="4.76097">
        <ele>368.79998779297</ele>
        <time>2021-09-17T12:36:30Z</time>
      </trkpt>
      <trkpt lat="45.22886" lon="4.76102">
        <ele>371.39999389648</ele>
        <time>2021-09-17T12:36:46Z</time>
      </trkpt>
      <trkpt lat="45.22852" lon="4.76105">
        <ele>373</ele>
        <time>2021-09-17T12:37:02Z</time>
      </trkpt>
      <trkpt lat="45.22817" lon="4.76109">
        <ele>374.60000610352</ele>
        <time>2021-09-17T12:37:17Z</time>
      </trkpt>
      <trkpt lat="45.22782" lon="4.76111">
        <ele>376.60000610352</ele>
        <time>2021-09-17T12:37:33Z</time>
      </trkpt>
      <trkpt lat="45.22782" lon="4.76131">
        <ele>377.20001220703</ele>
        <time>2021-09-17T12:37:38Z</time>
      </trkpt>
      <trkpt lat="45.22788" lon="4.76166">
        <ele>377.20001220703</ele>
        <time>2021-09-17T12:37:44Z</time>
      </trkpt>
      <trkpt lat="45.22791" lon="4.76209">
        <ele>376.60000610352</ele>
        <time>2021-09-17T12:37:52Z</time>
      </trkpt>
      <trkpt lat="45.22802" lon="4.7626">
        <ele>376.39999389648</ele>
        <time>2021-09-17T12:38:01Z</time>
      </trkpt>
      <trkpt lat="45.22802" lon="4.76289">
        <ele>376.39999389648</ele>
        <time>2021-09-17T12:38:06Z</time>
      </trkpt>
      <trkpt lat="45.22769" lon="4.7636">
        <ele>376.60000610352</ele>
        <time>2021-09-17T12:38:22Z</time>
      </trkpt>
      <trkpt lat="45.22738" lon="4.76434">
        <ele>376.39999389648</ele>
        <time>2021-09-17T12:38:38Z</time>
      </trkpt>
      <trkpt lat="45.2272" lon="4.7646">
        <ele>378</ele>
        <time>2021-09-17T12:38:51Z</time>
      </trkpt>
      <trkpt lat="45.22708" lon="4.76477">
        <ele>380</ele>
        <time>2021-09-17T12:39:03Z</time>
      </trkpt>
      <trkpt lat="45.22689" lon="4.76499">
        <ele>382.39999389648</ele>
        <time>2021-09-17T12:39:16Z</time>
      </trkpt>
      <trkpt lat="45.22681" lon="4.76526">
        <ele>382.79998779297</ele>
        <time>2021-09-17T12:39:23Z</time>
      </trkpt>
      <trkpt lat="45.22686" lon="4.76556">
        <ele>381.79998779297</ele>
        <time>2021-09-17T12:39:30Z</time>
      </trkpt>
      <trkpt lat="45.22707" lon="4.76568">
        <ele>382.39999389648</ele>
        <time>2021-09-17T12:39:39Z</time>
      </trkpt>
      <trkpt lat="45.22721" lon="4.76591">
        <ele>383.60000610352</ele>
        <time>2021-09-17T12:39:50Z</time>
      </trkpt>
      <trkpt lat="45.22739" lon="4.76615">
        <ele>386.39999389648</ele>
        <time>2021-09-17T12:40:05Z</time>
      </trkpt>
      <trkpt lat="45.22755" lon="4.76637">
        <ele>388.79998779297</ele>
        <time>2021-09-17T12:40:20Z</time>
      </trkpt>
      <trkpt lat="45.22771" lon="4.76657">
        <ele>391.39999389648</ele>
        <time>2021-09-17T12:40:34Z</time>
      </trkpt>
      <trkpt lat="45.22787" lon="4.7668">
        <ele>393.60000610352</ele>
        <time>2021-09-17T12:40:49Z</time>
      </trkpt>
      <trkpt lat="45.22811" lon="4.76711">
        <ele>396.60000610352</ele>
        <time>2021-09-17T12:41:06Z</time>
      </trkpt>
      <trkpt lat="45.22835" lon="4.76743">
        <ele>398.39999389648</ele>
        <time>2021-09-17T12:41:23Z</time>
      </trkpt>
      <trkpt lat="45.22845" lon="4.76791">
        <ele>399.60000610352</ele>
        <time>2021-09-17T12:41:38Z</time>
      </trkpt>
      <trkpt lat="45.22852" lon="4.76849">
        <ele>401.20001220703</ele>
        <time>2021-09-17T12:41:54Z</time>
      </trkpt>
      <trkpt lat="45.22893" lon="4.7694">
        <ele>402.39999389648</ele>
        <time>2021-09-17T12:42:19Z</time>
      </trkpt>
      <trkpt lat="45.22951" lon="4.77059">
        <ele>404</ele>
        <time>2021-09-17T12:42:49Z</time>
      </trkpt>
      <trkpt lat="45.22986" lon="4.77129">
        <ele>404.79998779297</ele>
        <time>2021-09-17T12:43:04Z</time>
      </trkpt>
      <trkpt lat="45.22991" lon="4.77171">
        <ele>404.79998779297</ele>
        <time>2021-09-17T12:43:11Z</time>
      </trkpt>
      <trkpt lat="45.22994" lon="4.77247">
        <ele>404.20001220703</ele>
        <time>2021-09-17T12:43:25Z</time>
      </trkpt>
      <trkpt lat="45.22968" lon="4.77239">
        <ele>403.39999389648</ele>
        <time>2021-09-17T12:43:32Z</time>
      </trkpt>
      <trkpt lat="45.22959" lon="4.77242">
        <ele>403.39999389648</ele>
        <time>2021-09-17T12:43:34Z</time>
      </trkpt>
      <trkpt lat="45.22922" lon="4.7726">
        <ele>403.20001220703</ele>
        <time>2021-09-17T12:43:42Z</time>
      </trkpt>
      <trkpt lat="45.22807" lon="4.77303">
        <ele>401.79998779297</ele>
        <time>2021-09-17T12:44:02Z</time>
      </trkpt>
      <trkpt lat="45.22755" lon="4.77322">
        <ele>400</ele>
        <time>2021-09-17T12:44:11Z</time>
      </trkpt>
      <trkpt lat="45.2275" lon="4.77324">
        <ele>400</ele>
        <time>2021-09-17T12:44:12Z</time>
      </trkpt>
      <trkpt lat="45.22715" lon="4.77344">
        <ele>399.79998779297</ele>
        <time>2021-09-17T12:44:19Z</time>
      </trkpt>
      <trkpt lat="45.22688" lon="4.77351">
        <ele>399.39999389648</ele>
        <time>2021-09-17T12:44:23Z</time>
      </trkpt>
      <trkpt lat="45.22632" lon="4.77374">
        <ele>395.79998779297</ele>
        <time>2021-09-17T12:44:30Z</time>
      </trkpt>
      <trkpt lat="45.22573" lon="4.77398">
        <ele>392.20001220703</ele>
        <time>2021-09-17T12:44:37Z</time>
      </trkpt>
      <trkpt lat="45.2255" lon="4.77405">
        <ele>391.20001220703</ele>
        <time>2021-09-17T12:44:40Z</time>
      </trkpt>
      <trkpt lat="45.22476" lon="4.77443">
        <ele>391.20001220703</ele>
        <time>2021-09-17T12:44:52Z</time>
      </trkpt>
      <trkpt lat="45.22398" lon="4.77494">
        <ele>391.60000610352</ele>
        <time>2021-09-17T12:45:06Z</time>
      </trkpt>
      <trkpt lat="45.22384" lon="4.77513">
        <ele>391.60000610352</ele>
        <time>2021-09-17T12:45:09Z</time>
      </trkpt>
      <trkpt lat="45.22373" lon="4.77529">
        <ele>391.20001220703</ele>
        <time>2021-09-17T12:45:11Z</time>
      </trkpt>
      <trkpt lat="45.22306" lon="4.77579">
        <ele>387.39999389648</ele>
        <time>2021-09-17T12:45:19Z</time>
      </trkpt>
      <trkpt lat="45.22268" lon="4.776">
        <ele>384.20001220703</ele>
        <time>2021-09-17T12:45:24Z</time>
      </trkpt>
      <trkpt lat="45.22239" lon="4.7763">
        <ele>383</ele>
        <time>2021-09-17T12:45:30Z</time>
      </trkpt>
      <trkpt lat="45.22223" lon="4.77639">
        <ele>382</ele>
        <time>2021-09-17T12:45:34Z</time>
      </trkpt>
      <trkpt lat="45.22193" lon="4.77671">
        <ele>380.60000610352</ele>
        <time>2021-09-17T12:45:45Z</time>
      </trkpt>
      <trkpt lat="45.22194" lon="4.77683">
        <ele>380.39999389648</ele>
        <time>2021-09-17T12:45:49Z</time>
      </trkpt>
      <trkpt lat="45.22196" lon="4.77692">
        <ele>380.39999389648</ele>
        <time>2021-09-17T12:45:52Z</time>
      </trkpt>
      <trkpt lat="45.2219" lon="4.77704">
        <ele>380.20001220703</ele>
        <time>2021-09-17T12:46:00Z</time>
      </trkpt>
      <trkpt lat="45.22175" lon="4.77747">
        <ele>379.79998779297</ele>
        <time>2021-09-17T12:46:10Z</time>
      </trkpt>
      <trkpt lat="45.22171" lon="4.77765">
        <ele>379.79998779297</ele>
        <time>2021-09-17T12:46:13Z</time>
      </trkpt>
      <trkpt lat="45.22146" lon="4.77782">
        <ele>379.60000610352</ele>
        <time>2021-09-17T12:46:21Z</time>
      </trkpt>
      <trkpt lat="45.22131" lon="4.77785">
        <ele>379.60000610352</ele>
        <time>2021-09-17T12:46:24Z</time>
      </trkpt>
      <trkpt lat="45.22096" lon="4.77801">
        <ele>378.79998779297</ele>
        <time>2021-09-17T12:46:30Z</time>
      </trkpt>
      <trkpt lat="45.2208" lon="4.77798">
        <ele>377</ele>
        <time>2021-09-17T12:46:34Z</time>
      </trkpt>
      <trkpt lat="45.22076" lon="4.77796">
        <ele>376.39999389648</ele>
        <time>2021-09-17T12:46:35Z</time>
      </trkpt>
      <trkpt lat="45.2205" lon="4.77784">
        <ele>374.39999389648</ele>
        <time>2021-09-17T12:46:41Z</time>
      </trkpt>
      <trkpt lat="45.22022" lon="4.7775">
        <ele>372.60000610352</ele>
        <time>2021-09-17T12:46:48Z</time>
      </trkpt>
      <trkpt lat="45.22001" lon="4.77679">
        <ele>371.39999389648</ele>
        <time>2021-09-17T12:46:58Z</time>
      </trkpt>
      <trkpt lat="45.21998" lon="4.77673">
        <ele>371.39999389648</ele>
        <time>2021-09-17T12:46:59Z</time>
      </trkpt>
      <trkpt lat="45.2198" lon="4.7763">
        <ele>371.60000610352</ele>
        <time>2021-09-17T12:47:07Z</time>
      </trkpt>
      <trkpt lat="45.21941" lon="4.77604">
        <ele>371</ele>
        <time>2021-09-17T12:47:15Z</time>
      </trkpt>
      <trkpt lat="45.21936" lon="4.776">
        <ele>371</ele>
        <time>2021-09-17T12:47:16Z</time>
      </trkpt>
      <trkpt lat="45.219" lon="4.77564">
        <ele>370.20001220703</ele>
        <time>2021-09-17T12:47:25Z</time>
      </trkpt>
      <trkpt lat="45.21895" lon="4.77559">
        <ele>370.20001220703</ele>
        <time>2021-09-17T12:47:26Z</time>
      </trkpt>
      <trkpt lat="45.21879" lon="4.77533">
        <ele>370.39999389648</ele>
        <time>2021-09-17T12:47:31Z</time>
      </trkpt>
      <trkpt lat="45.21849" lon="4.77466">
        <ele>369</ele>
        <time>2021-09-17T12:47:42Z</time>
      </trkpt>
      <trkpt lat="45.2182" lon="4.77399">
        <ele>368.79998779297</ele>
        <time>2021-09-17T12:47:54Z</time>
      </trkpt>
      <trkpt lat="45.21814" lon="4.77385">
        <ele>368.79998779297</ele>
        <time>2021-09-17T12:47:56Z</time>
      </trkpt>
      <trkpt lat="45.21797" lon="4.77345">
        <ele>368</ele>
        <time>2021-09-17T12:48:02Z</time>
      </trkpt>
      <trkpt lat="45.21766" lon="4.77241">
        <ele>364.39999389648</ele>
        <time>2021-09-17T12:48:14Z</time>
      </trkpt>
      <trkpt lat="45.21751" lon="4.77192">
        <ele>361.39999389648</ele>
        <time>2021-09-17T12:48:19Z</time>
      </trkpt>
      <trkpt lat="45.2174" lon="4.77171">
        <ele>359.79998779297</ele>
        <time>2021-09-17T12:48:22Z</time>
      </trkpt>
      <trkpt lat="45.21717" lon="4.77132">
        <ele>362.20001220703</ele>
        <time>2021-09-17T12:48:33Z</time>
      </trkpt>
      <trkpt lat="45.2171" lon="4.77112">
        <ele>365</ele>
        <time>2021-09-17T12:48:43Z</time>
      </trkpt>
      <trkpt lat="45.21706" lon="4.77101">
        <ele>366.39999389648</ele>
        <time>2021-09-17T12:48:49Z</time>
      </trkpt>
      <trkpt lat="45.217" lon="4.77074">
        <ele>369.39999389648</ele>
        <time>2021-09-17T12:49:02Z</time>
      </trkpt>
      <trkpt lat="45.21695" lon="4.77034">
        <ele>370.39999389648</ele>
        <time>2021-09-17T12:49:15Z</time>
      </trkpt>
      <trkpt lat="45.21694" lon="4.76987">
        <ele>370.20001220703</ele>
        <time>2021-09-17T12:49:25Z</time>
      </trkpt>
      <trkpt lat="45.21685" lon="4.76913">
        <ele>369.20001220703</ele>
        <time>2021-09-17T12:49:40Z</time>
      </trkpt>
      <trkpt lat="45.21661" lon="4.76895">
        <ele>368.79998779297</ele>
        <time>2021-09-17T12:49:47Z</time>
      </trkpt>
      <trkpt lat="45.21656" lon="4.76888">
        <ele>368.39999389648</ele>
        <time>2021-09-17T12:49:49Z</time>
      </trkpt>
      <trkpt lat="45.21632" lon="4.76861">
        <ele>367.39999389648</ele>
        <time>2021-09-17T12:49:57Z</time>
      </trkpt>
      <trkpt lat="45.21615" lon="4.76848">
        <ele>368.39999389648</ele>
        <time>2021-09-17T12:50:04Z</time>
      </trkpt>
      <trkpt lat="45.21604" lon="4.76798">
        <ele>371.60000610352</ele>
        <time>2021-09-17T12:50:19Z</time>
      </trkpt>
      <trkpt lat="45.21596" lon="4.7675">
        <ele>373.20001220703</ele>
        <time>2021-09-17T12:50:32Z</time>
      </trkpt>
      <trkpt lat="45.21575" lon="4.76692">
        <ele>374.39999389648</ele>
        <time>2021-09-17T12:50:46Z</time>
      </trkpt>
      <trkpt lat="45.21558" lon="4.76625">
        <ele>376</ele>
        <time>2021-09-17T12:51:03Z</time>
      </trkpt>
      <trkpt lat="45.21565" lon="4.76576">
        <ele>378</ele>
        <time>2021-09-17T12:51:18Z</time>
      </trkpt>
      <trkpt lat="45.21576" lon="4.76561">
        <ele>379</ele>
        <time>2021-09-17T12:51:27Z</time>
      </trkpt>
      <trkpt lat="45.21578" lon="4.76554">
        <ele>379</ele>
        <time>2021-09-17T12:51:29Z</time>
      </trkpt>
      <trkpt lat="45.2158" lon="4.76546">
        <ele>379.39999389648</ele>
        <time>2021-09-17T12:51:31Z</time>
      </trkpt>
      <trkpt lat="45.21587" lon="4.76519">
        <ele>380</ele>
        <time>2021-09-17T12:51:38Z</time>
      </trkpt>
      <trkpt lat="45.21621" lon="4.76514">
        <ele>380.79998779297</ele>
        <time>2021-09-17T12:51:49Z</time>
      </trkpt>
      <trkpt lat="45.2166" lon="4.76508">
        <ele>382</ele>
        <time>2021-09-17T12:52:01Z</time>
      </trkpt>
      <trkpt lat="45.21695" lon="4.76498">
        <ele>383.60000610352</ele>
        <time>2021-09-17T12:52:12Z</time>
      </trkpt>
      <trkpt lat="45.21701" lon="4.76494">
        <ele>383.79998779297</ele>
        <time>2021-09-17T12:52:14Z</time>
      </trkpt>
      <trkpt lat="45.21714" lon="4.76485">
        <ele>384.20001220703</ele>
        <time>2021-09-17T12:52:18Z</time>
      </trkpt>
      <trkpt lat="45.2173" lon="4.76476">
        <ele>384.79998779297</ele>
        <time>2021-09-17T12:52:23Z</time>
      </trkpt>
      <trkpt lat="45.21731" lon="4.76453">
        <ele>385.20001220703</ele>
        <time>2021-09-17T12:52:28Z</time>
      </trkpt>
      <trkpt lat="45.21727" lon="4.76336">
        <ele>384.79998779297</ele>
        <time>2021-09-17T12:52:49Z</time>
      </trkpt>
      <trkpt lat="45.21725" lon="4.76278">
        <ele>384.20001220703</ele>
        <time>2021-09-17T12:52:59Z</time>
      </trkpt>
      <trkpt lat="45.21727" lon="4.76228">
        <ele>384.39999389648</ele>
        <time>2021-09-17T12:53:07Z</time>
      </trkpt>
      <trkpt lat="45.21726" lon="4.76104">
        <ele>382.39999389648</ele>
        <time>2021-09-17T12:53:19Z</time>
      </trkpt>
      <trkpt lat="45.21723" lon="4.76064">
        <ele>379.79998779297</ele>
        <time>2021-09-17T12:53:22Z</time>
      </trkpt>
      <trkpt lat="45.21724" lon="4.76021">
        <ele>376.60000610352</ele>
        <time>2021-09-17T12:53:25Z</time>
      </trkpt>
      <trkpt lat="45.21727" lon="4.75993">
        <ele>375.20001220703</ele>
        <time>2021-09-17T12:53:27Z</time>
      </trkpt>
      <trkpt lat="45.2174" lon="4.75931">
        <ele>372.79998779297</ele>
        <time>2021-09-17T12:53:32Z</time>
      </trkpt>
      <trkpt lat="45.21718" lon="4.75874">
        <ele>371.60000610352</ele>
        <time>2021-09-17T12:53:38Z</time>
      </trkpt>
      <trkpt lat="45.21707" lon="4.75858">
        <ele>370.39999389648</ele>
        <time>2021-09-17T12:53:40Z</time>
      </trkpt>
      <trkpt lat="45.21685" lon="4.75806">
        <ele>366.79998779297</ele>
        <time>2021-09-17T12:53:45Z</time>
      </trkpt>
      <trkpt lat="45.21673" lon="4.75759">
        <ele>365.79998779297</ele>
        <time>2021-09-17T12:53:49Z</time>
      </trkpt>
      <trkpt lat="45.21667" lon="4.75734">
        <ele>364.60000610352</ele>
        <time>2021-09-17T12:53:51Z</time>
      </trkpt>
      <trkpt lat="45.21658" lon="4.7565">
        <ele>362</ele>
        <time>2021-09-17T12:53:58Z</time>
      </trkpt>
      <trkpt lat="45.2166" lon="4.75593">
        <ele>360.60000610352</ele>
        <time>2021-09-17T12:54:04Z</time>
      </trkpt>
      <trkpt lat="45.21659" lon="4.75542">
        <ele>360.60000610352</ele>
        <time>2021-09-17T12:54:11Z</time>
      </trkpt>
      <trkpt lat="45.21661" lon="4.75515">
        <ele>361.20001220703</ele>
        <time>2021-09-17T12:54:15Z</time>
      </trkpt>
      <trkpt lat="45.21664" lon="4.75474">
        <ele>362.60000610352</ele>
        <time>2021-09-17T12:54:26Z</time>
      </trkpt>
      <trkpt lat="45.21679" lon="4.75402">
        <ele>365.20001220703</ele>
        <time>2021-09-17T12:54:43Z</time>
      </trkpt>
      <trkpt lat="45.21688" lon="4.75375">
        <ele>365.39999389648</ele>
        <time>2021-09-17T12:54:47Z</time>
      </trkpt>
      <trkpt lat="45.21704" lon="4.75352">
        <ele>364.60000610352</ele>
        <time>2021-09-17T12:54:51Z</time>
      </trkpt>
      <trkpt lat="45.21708" lon="4.75347">
        <ele>364.20001220703</ele>
        <time>2021-09-17T12:54:52Z</time>
      </trkpt>
      <trkpt lat="45.21721" lon="4.75287">
        <ele>363.79998779297</ele>
        <time>2021-09-17T12:55:01Z</time>
      </trkpt>
      <trkpt lat="45.21719" lon="4.75273">
        <ele>363.60000610352</ele>
        <time>2021-09-17T12:55:03Z</time>
      </trkpt>
      <trkpt lat="45.21712" lon="4.75246">
        <ele>363.39999389648</ele>
        <time>2021-09-17T12:55:07Z</time>
      </trkpt>
      <trkpt lat="45.21708" lon="4.75213">
        <ele>363.60000610352</ele>
        <time>2021-09-17T12:55:12Z</time>
      </trkpt>
      <trkpt lat="45.217" lon="4.75174">
        <ele>364.20001220703</ele>
        <time>2021-09-17T12:55:18Z</time>
      </trkpt>
      <trkpt lat="45.21693" lon="4.75152">
        <ele>364.79998779297</ele>
        <time>2021-09-17T12:55:22Z</time>
      </trkpt>
      <trkpt lat="45.21683" lon="4.75096">
        <ele>366.39999389648</ele>
        <time>2021-09-17T12:55:34Z</time>
      </trkpt>
      <trkpt lat="45.2167" lon="4.75054">
        <ele>368.39999389648</ele>
        <time>2021-09-17T12:55:46Z</time>
      </trkpt>
      <trkpt lat="45.21667" lon="4.75027">
        <ele>369.20001220703</ele>
        <time>2021-09-17T12:55:51Z</time>
      </trkpt>
      <trkpt lat="45.21673" lon="4.74988">
        <ele>369.20001220703</ele>
        <time>2021-09-17T12:55:56Z</time>
      </trkpt>
      <trkpt lat="45.21676" lon="4.74968">
        <ele>369.20001220703</ele>
        <time>2021-09-17T12:55:58Z</time>
      </trkpt>
      <trkpt lat="45.21687" lon="4.74885">
        <ele>366</ele>
        <time>2021-09-17T12:56:06Z</time>
      </trkpt>
      <trkpt lat="45.21688" lon="4.74875">
        <ele>365.60000610352</ele>
        <time>2021-09-17T12:56:07Z</time>
      </trkpt>
      <trkpt lat="45.21701" lon="4.74845">
        <ele>364.60000610352</ele>
        <time>2021-09-17T12:56:11Z</time>
      </trkpt>
      <trkpt lat="45.21688" lon="4.74815">
        <ele>363.60000610352</ele>
        <time>2021-09-17T12:56:17Z</time>
      </trkpt>
      <trkpt lat="45.21679" lon="4.74809">
        <ele>363</ele>
        <time>2021-09-17T12:56:19Z</time>
      </trkpt>
      <trkpt lat="45.21667" lon="4.74802">
        <ele>362.39999389648</ele>
        <time>2021-09-17T12:56:21Z</time>
      </trkpt>
      <trkpt lat="45.21607" lon="4.74757">
        <ele>359.20001220703</ele>
        <time>2021-09-17T12:56:31Z</time>
      </trkpt>
      <trkpt lat="45.21592" lon="4.74739">
        <ele>357.60000610352</ele>
        <time>2021-09-17T12:56:35Z</time>
      </trkpt>
      <trkpt lat="45.21596" lon="4.74717">
        <ele>356.39999389648</ele>
        <time>2021-09-17T12:56:38Z</time>
      </trkpt>
      <trkpt lat="45.21615" lon="4.74682">
        <ele>353</ele>
        <time>2021-09-17T12:56:45Z</time>
      </trkpt>
      <trkpt lat="45.21616" lon="4.74671">
        <ele>351.79998779297</ele>
        <time>2021-09-17T12:56:47Z</time>
      </trkpt>
      <trkpt lat="45.21603" lon="4.74665">
        <ele>349.79998779297</ele>
        <time>2021-09-17T12:56:50Z</time>
      </trkpt>
      <trkpt lat="45.21574" lon="4.74657">
        <ele>348</ele>
        <time>2021-09-17T12:56:56Z</time>
      </trkpt>
      <trkpt lat="45.21556" lon="4.74663">
        <ele>347.20001220703</ele>
        <time>2021-09-17T12:57:00Z</time>
      </trkpt>
      <trkpt lat="45.21533" lon="4.74683">
        <ele>346.39999389648</ele>
        <time>2021-09-17T12:57:06Z</time>
      </trkpt>
      <trkpt lat="45.21516" lon="4.74684">
        <ele>346.20001220703</ele>
        <time>2021-09-17T12:57:12Z</time>
      </trkpt>
      <trkpt lat="45.21486" lon="4.74598">
        <ele>348</ele>
        <time>2021-09-17T12:57:31Z</time>
      </trkpt>
      <trkpt lat="45.21472" lon="4.74541">
        <ele>347</ele>
        <time>2021-09-17T12:57:54Z</time>
      </trkpt>
      <trkpt lat="45.21468" lon="4.74538">
        <ele>347</ele>
        <time>2021-09-17T12:59:30Z</time>
      </trkpt>
      <trkpt lat="45.21433" lon="4.74514">
        <ele>346.60000610352</ele>
        <time>2021-09-17T12:59:37Z</time>
      </trkpt>
      <trkpt lat="45.21398" lon="4.74492">
        <ele>344</ele>
        <time>2021-09-17T12:59:43Z</time>
      </trkpt>
      <trkpt lat="45.21393" lon="4.74485">
        <ele>343.60000610352</ele>
        <time>2021-09-17T12:59:45Z</time>
      </trkpt>
      <trkpt lat="45.21391" lon="4.74483">
        <ele>343.60000610352</ele>
        <time>2021-09-17T12:59:46Z</time>
      </trkpt>
      <trkpt lat="45.2139" lon="4.74484">
        <ele>343.79998779297</ele>
        <time>2021-09-17T12:59:50Z</time>
      </trkpt>
      <trkpt lat="45.21391" lon="4.74488">
        <ele>344</ele>
        <time>2021-09-17T13:00:10Z</time>
      </trkpt>
      <trkpt lat="45.21391" lon="4.74488">
        <ele>344</ele>
        <time>2021-09-17T13:00:16Z</time>
      </trkpt>
      <trkpt lat="45.2137" lon="4.74462">
        <ele>345.60000610352</ele>
        <time>2021-09-17T13:00:34Z</time>
      </trkpt>
      <trkpt lat="45.21366" lon="4.74457">
        <ele>346.39999389648</ele>
        <time>2021-09-17T13:00:38Z</time>
      </trkpt>
      <trkpt lat="45.21361" lon="4.74452">
        <ele>347.60000610352</ele>
        <time>2021-09-17T13:00:42Z</time>
      </trkpt>
      <trkpt lat="45.21361" lon="4.7445">
        <ele>347.79998779297</ele>
        <time>2021-09-17T13:00:43Z</time>
      </trkpt>
      <trkpt lat="45.21359" lon="4.74446">
        <ele>348.79998779297</ele>
        <time>2021-09-17T13:00:46Z</time>
      </trkpt>
      <trkpt lat="45.21358" lon="4.74438">
        <ele>350</ele>
        <time>2021-09-17T13:00:51Z</time>
      </trkpt>
      <trkpt lat="45.21358" lon="4.7441">
        <ele>353</ele>
        <time>2021-09-17T13:01:05Z</time>
      </trkpt>
      <trkpt lat="45.21356" lon="4.74398">
        <ele>354.60000610352</ele>
        <time>2021-09-17T13:01:12Z</time>
      </trkpt>
      <trkpt lat="45.21349" lon="4.74378">
        <ele>357</ele>
        <time>2021-09-17T13:01:24Z</time>
      </trkpt>
      <trkpt lat="45.21344" lon="4.74368">
        <ele>358.39999389648</ele>
        <time>2021-09-17T13:01:30Z</time>
      </trkpt>
      <trkpt lat="45.21326" lon="4.74346">
        <ele>361.39999389648</ele>
        <time>2021-09-17T13:01:46Z</time>
      </trkpt>
      <trkpt lat="45.21301" lon="4.74327">
        <ele>363.60000610352</ele>
        <time>2021-09-17T13:02:01Z</time>
      </trkpt>
      <trkpt lat="45.21272" lon="4.74293">
        <ele>365.79998779297</ele>
        <time>2021-09-17T13:02:18Z</time>
      </trkpt>
      <trkpt lat="45.21239" lon="4.74244">
        <ele>368.60000610352</ele>
        <time>2021-09-17T13:02:34Z</time>
      </trkpt>
      <trkpt lat="45.21197" lon="4.74192">
        <ele>370.60000610352</ele>
        <time>2021-09-17T13:02:51Z</time>
      </trkpt>
      <trkpt lat="45.21174" lon="4.74168">
        <ele>371.60000610352</ele>
        <time>2021-09-17T13:02:59Z</time>
      </trkpt>
      <trkpt lat="45.21173" lon="4.74138">
        <ele>371.39999389648</ele>
        <time>2021-09-17T13:03:05Z</time>
      </trkpt>
      <trkpt lat="45.21177" lon="4.74128">
        <ele>371.39999389648</ele>
        <time>2021-09-17T13:03:07Z</time>
      </trkpt>
      <trkpt lat="45.212" lon="4.74046">
        <ele>372</ele>
        <time>2021-09-17T13:03:24Z</time>
      </trkpt>
      <trkpt lat="45.2121" lon="4.73988">
        <ele>372.20001220703</ele>
        <time>2021-09-17T13:03:34Z</time>
      </trkpt>
      <trkpt lat="45.21211" lon="4.73975">
        <ele>372.39999389648</ele>
        <time>2021-09-17T13:03:36Z</time>
      </trkpt>
      <trkpt lat="45.21217" lon="4.7389">
        <ele>372.60000610352</ele>
        <time>2021-09-17T13:03:50Z</time>
      </trkpt>
      <trkpt lat="45.21225" lon="4.73841">
        <ele>373.20001220703</ele>
        <time>2021-09-17T13:03:59Z</time>
      </trkpt>
      <trkpt lat="45.21231" lon="4.73791">
        <ele>373.79998779297</ele>
        <time>2021-09-17T13:04:10Z</time>
      </trkpt>
      <trkpt lat="45.21229" lon="4.73781">
        <ele>373.79998779297</ele>
        <time>2021-09-17T13:04:12Z</time>
      </trkpt>
      <trkpt lat="45.21224" lon="4.73772">
        <ele>373.79998779297</ele>
        <time>2021-09-17T13:04:14Z</time>
      </trkpt>
      <trkpt lat="45.21218" lon="4.73765">
        <ele>373.79998779297</ele>
        <time>2021-09-17T13:04:16Z</time>
      </trkpt>
      <trkpt lat="45.21219" lon="4.73727">
        <ele>373.79998779297</ele>
        <time>2021-09-17T13:04:22Z</time>
      </trkpt>
      <trkpt lat="45.21218" lon="4.7365">
        <ele>373.60000610352</ele>
        <time>2021-09-17T13:04:32Z</time>
      </trkpt>
      <trkpt lat="45.21216" lon="4.73635">
        <ele>373.60000610352</ele>
        <time>2021-09-17T13:04:34Z</time>
      </trkpt>
      <trkpt lat="45.21211" lon="4.73596">
        <ele>373.39999389648</ele>
        <time>2021-09-17T13:04:39Z</time>
      </trkpt>
      <trkpt lat="45.21216" lon="4.73493">
        <ele>372.39999389648</ele>
        <time>2021-09-17T13:04:54Z</time>
      </trkpt>
      <trkpt lat="45.21216" lon="4.73488">
        <ele>372.39999389648</ele>
        <time>2021-09-17T13:04:55Z</time>
      </trkpt>
      <trkpt lat="45.21206" lon="4.73479">
        <ele>372.20001220703</ele>
        <time>2021-09-17T13:04:58Z</time>
      </trkpt>
      <trkpt lat="45.21148" lon="4.73435">
        <ele>372.39999389648</ele>
        <time>2021-09-17T13:05:11Z</time>
      </trkpt>
      <trkpt lat="45.21123" lon="4.73373">
        <ele>371.60000610352</ele>
        <time>2021-09-17T13:05:22Z</time>
      </trkpt>
      <trkpt lat="45.21144" lon="4.73319">
        <ele>371.39999389648</ele>
        <time>2021-09-17T13:05:29Z</time>
      </trkpt>
      <trkpt lat="45.21139" lon="4.73283">
        <ele>370.60000610352</ele>
        <time>2021-09-17T13:05:34Z</time>
      </trkpt>
      <trkpt lat="45.21136" lon="4.73277">
        <ele>370.60000610352</ele>
        <time>2021-09-17T13:05:35Z</time>
      </trkpt>
      <trkpt lat="45.21128" lon="4.73246">
        <ele>370.20001220703</ele>
        <time>2021-09-17T13:05:39Z</time>
      </trkpt>
      <trkpt lat="45.21122" lon="4.73198">
        <ele>369.39999389648</ele>
        <time>2021-09-17T13:05:44Z</time>
      </trkpt>
      <trkpt lat="45.21124" lon="4.73153">
        <ele>367.39999389648</ele>
        <time>2021-09-17T13:05:48Z</time>
      </trkpt>
      <trkpt lat="45.21126" lon="4.73121">
        <ele>366.20001220703</ele>
        <time>2021-09-17T13:05:51Z</time>
      </trkpt>
      <trkpt lat="45.21115" lon="4.73038">
        <ele>364.60000610352</ele>
        <time>2021-09-17T13:06:01Z</time>
      </trkpt>
      <trkpt lat="45.21114" lon="4.73006">
        <ele>364.60000610352</ele>
        <time>2021-09-17T13:06:05Z</time>
      </trkpt>
      <trkpt lat="45.21105" lon="4.72953">
        <ele>363.60000610352</ele>
        <time>2021-09-17T13:06:11Z</time>
      </trkpt>
      <trkpt lat="45.21116" lon="4.72897">
        <ele>361.20001220703</ele>
        <time>2021-09-17T13:06:17Z</time>
      </trkpt>
      <trkpt lat="45.21154" lon="4.72819">
        <ele>358.20001220703</ele>
        <time>2021-09-17T13:06:25Z</time>
      </trkpt>
      <trkpt lat="45.21176" lon="4.72736">
        <ele>356.60000610352</ele>
        <time>2021-09-17T13:06:35Z</time>
      </trkpt>
      <trkpt lat="45.21185" lon="4.7262">
        <ele>356.20001220703</ele>
        <time>2021-09-17T13:06:50Z</time>
      </trkpt>
      <trkpt lat="45.21183" lon="4.72544">
        <ele>358</ele>
        <time>2021-09-17T13:07:04Z</time>
      </trkpt>
      <trkpt lat="45.21163" lon="4.72529">
        <ele>358</ele>
        <time>2021-09-17T13:07:08Z</time>
      </trkpt>
      <trkpt lat="45.21138" lon="4.72521">
        <ele>357.39999389648</ele>
        <time>2021-09-17T13:07:12Z</time>
      </trkpt>
      <trkpt lat="45.21123" lon="4.72526">
        <ele>355.60000610352</ele>
        <time>2021-09-17T13:07:16Z</time>
      </trkpt>
      <trkpt lat="45.21119" lon="4.72529">
        <ele>355.20001220703</ele>
        <time>2021-09-17T13:07:17Z</time>
      </trkpt>
      <trkpt lat="45.21112" lon="4.72537">
        <ele>354.79998779297</ele>
        <time>2021-09-17T13:07:19Z</time>
      </trkpt>
      <trkpt lat="45.2106" lon="4.72548">
        <ele>352.60000610352</ele>
        <time>2021-09-17T13:07:27Z</time>
      </trkpt>
      <trkpt lat="45.21008" lon="4.72516">
        <ele>351.60000610352</ele>
        <time>2021-09-17T13:07:36Z</time>
      </trkpt>
      <trkpt lat="45.2098" lon="4.72486">
        <ele>350</ele>
        <time>2021-09-17T13:07:41Z</time>
      </trkpt>
      <trkpt lat="45.20968" lon="4.72476">
        <ele>349.79998779297</ele>
        <time>2021-09-17T13:07:43Z</time>
      </trkpt>
      <trkpt lat="45.20934" lon="4.72451">
        <ele>349.20001220703</ele>
        <time>2021-09-17T13:07:48Z</time>
      </trkpt>
      <trkpt lat="45.2087" lon="4.72426">
        <ele>345.20001220703</ele>
        <time>2021-09-17T13:07:55Z</time>
      </trkpt>
      <trkpt lat="45.2085" lon="4.72426">
        <ele>343.60000610352</ele>
        <time>2021-09-17T13:07:57Z</time>
      </trkpt>
      <trkpt lat="45.20841" lon="4.72427">
        <ele>342.20001220703</ele>
        <time>2021-09-17T13:07:58Z</time>
      </trkpt>
      <trkpt lat="45.20804" lon="4.72437">
        <ele>338.60000610352</ele>
        <time>2021-09-17T13:08:02Z</time>
      </trkpt>
      <trkpt lat="45.20785" lon="4.72442">
        <ele>336.60000610352</ele>
        <time>2021-09-17T13:08:04Z</time>
      </trkpt>
      <trkpt lat="45.20757" lon="4.7244">
        <ele>332</ele>
        <time>2021-09-17T13:08:07Z</time>
      </trkpt>
      <trkpt lat="45.20734" lon="4.72419">
        <ele>328</ele>
        <time>2021-09-17T13:08:10Z</time>
      </trkpt>
      <trkpt lat="45.20729" lon="4.72411">
        <ele>327.20001220703</ele>
        <time>2021-09-17T13:08:11Z</time>
      </trkpt>
      <trkpt lat="45.20724" lon="4.72404">
        <ele>326.20001220703</ele>
        <time>2021-09-17T13:08:12Z</time>
      </trkpt>
      <trkpt lat="45.20708" lon="4.72394">
        <ele>323</ele>
        <time>2021-09-17T13:08:15Z</time>
      </trkpt>
      <trkpt lat="45.20702" lon="4.72414">
        <ele>319.79998779297</ele>
        <time>2021-09-17T13:08:18Z</time>
      </trkpt>
      <trkpt lat="45.20706" lon="4.72436">
        <ele>316.79998779297</ele>
        <time>2021-09-17T13:08:21Z</time>
      </trkpt>
      <trkpt lat="45.20697" lon="4.72437">
        <ele>315.39999389648</ele>
        <time>2021-09-17T13:08:24Z</time>
      </trkpt>
      <trkpt lat="45.20675" lon="4.72394">
        <ele>311.60000610352</ele>
        <time>2021-09-17T13:08:30Z</time>
      </trkpt>
      <trkpt lat="45.20662" lon="4.72365">
        <ele>308.20001220703</ele>
        <time>2021-09-17T13:08:34Z</time>
      </trkpt>
      <trkpt lat="45.20648" lon="4.72349">
        <ele>305</ele>
        <time>2021-09-17T13:08:39Z</time>
      </trkpt>
      <trkpt lat="45.20624" lon="4.72362">
        <ele>303</ele>
        <time>2021-09-17T13:08:43Z</time>
      </trkpt>
      <trkpt lat="45.20627" lon="4.72408">
        <ele>300</ele>
        <time>2021-09-17T13:08:48Z</time>
      </trkpt>
      <trkpt lat="45.20657" lon="4.72468">
        <ele>295.20001220703</ele>
        <time>2021-09-17T13:08:53Z</time>
      </trkpt>
      <trkpt lat="45.20679" lon="4.7251">
        <ele>291.60000610352</ele>
        <time>2021-09-17T13:08:57Z</time>
      </trkpt>
      <trkpt lat="45.20685" lon="4.72537">
        <ele>288.39999389648</ele>
        <time>2021-09-17T13:09:00Z</time>
      </trkpt>
      <trkpt lat="45.20689" lon="4.72581">
        <ele>284.60000610352</ele>
        <time>2021-09-17T13:09:04Z</time>
      </trkpt>
      <trkpt lat="45.207" lon="4.72612">
        <ele>282.39999389648</ele>
        <time>2021-09-17T13:09:07Z</time>
      </trkpt>
      <trkpt lat="45.20702" lon="4.72617">
        <ele>282</ele>
        <time>2021-09-17T13:09:08Z</time>
      </trkpt>
      <trkpt lat="45.20697" lon="4.72624">
        <ele>278.79998779297</ele>
        <time>2021-09-17T13:09:11Z</time>
      </trkpt>
      <trkpt lat="45.20691" lon="4.72616">
        <ele>277.39999389648</ele>
        <time>2021-09-17T13:09:13Z</time>
      </trkpt>
      <trkpt lat="45.20687" lon="4.7261">
        <ele>276.79998779297</ele>
        <time>2021-09-17T13:09:14Z</time>
      </trkpt>
      <trkpt lat="45.20659" lon="4.72578">
        <ele>274.79998779297</ele>
        <time>2021-09-17T13:09:19Z</time>
      </trkpt>
      <trkpt lat="45.20652" lon="4.72573">
        <ele>274.39999389648</ele>
        <time>2021-09-17T13:09:20Z</time>
      </trkpt>
      <trkpt lat="45.20641" lon="4.7255">
        <ele>271</ele>
        <time>2021-09-17T13:09:23Z</time>
      </trkpt>
      <trkpt lat="45.20637" lon="4.72528">
        <ele>269.39999389648</ele>
        <time>2021-09-17T13:09:25Z</time>
      </trkpt>
      <trkpt lat="45.20603" lon="4.72493">
        <ele>266.79998779297</ele>
        <time>2021-09-17T13:09:30Z</time>
      </trkpt>
      <trkpt lat="45.20582" lon="4.72479">
        <ele>263.20001220703</ele>
        <time>2021-09-17T13:09:34Z</time>
      </trkpt>
      <trkpt lat="45.2058" lon="4.72476">
        <ele>263</ele>
        <time>2021-09-17T13:09:35Z</time>
      </trkpt>
      <trkpt lat="45.20568" lon="4.72456">
        <ele>260</ele>
        <time>2021-09-17T13:09:41Z</time>
      </trkpt>
      <trkpt lat="45.20569" lon="4.72453">
        <ele>258.79998779297</ele>
        <time>2021-09-17T13:09:54Z</time>
      </trkpt>
      <trkpt lat="45.20568" lon="4.72454">
        <ele>257.79998779297</ele>
        <time>2021-09-17T13:13:00Z</time>
      </trkpt>
      <trkpt lat="45.20577" lon="4.72485">
        <ele>257.39999389648</ele>
        <time>2021-09-17T13:13:07Z</time>
      </trkpt>
      <trkpt lat="45.20603" lon="4.72522">
        <ele>256</ele>
        <time>2021-09-17T13:13:13Z</time>
      </trkpt>
      <trkpt lat="45.20612" lon="4.72549">
        <ele>253</ele>
        <time>2021-09-17T13:13:18Z</time>
      </trkpt>
      <trkpt lat="45.20603" lon="4.72556">
        <ele>250</ele>
        <time>2021-09-17T13:13:23Z</time>
      </trkpt>
      <trkpt lat="45.20595" lon="4.72547">
        <ele>249.19999694824</ele>
        <time>2021-09-17T13:13:25Z</time>
      </trkpt>
      <trkpt lat="45.20573" lon="4.72527">
        <ele>248</ele>
        <time>2021-09-17T13:13:29Z</time>
      </trkpt>
      <trkpt lat="45.2055" lon="4.72495">
        <ele>245</ele>
        <time>2021-09-17T13:13:35Z</time>
      </trkpt>
      <trkpt lat="45.20541" lon="4.72481">
        <ele>241.80000305176</ele>
        <time>2021-09-17T13:13:39Z</time>
      </trkpt>
      <trkpt lat="45.20537" lon="4.72476">
        <ele>241.60000610352</ele>
        <time>2021-09-17T13:13:40Z</time>
      </trkpt>
      <trkpt lat="45.20535" lon="4.72471">
        <ele>241.39999389648</ele>
        <time>2021-09-17T13:13:41Z</time>
      </trkpt>
      <trkpt lat="45.20533" lon="4.72466">
        <ele>241.19999694824</ele>
        <time>2021-09-17T13:13:42Z</time>
      </trkpt>
      <trkpt lat="45.20529" lon="4.72456">
        <ele>240</ele>
        <time>2021-09-17T13:13:44Z</time>
      </trkpt>
      <trkpt lat="45.20527" lon="4.72451">
        <ele>239.80000305176</ele>
        <time>2021-09-17T13:13:45Z</time>
      </trkpt>
      <trkpt lat="45.20507" lon="4.72445">
        <ele>236.19999694824</ele>
        <time>2021-09-17T13:13:50Z</time>
      </trkpt>
      <trkpt lat="45.20487" lon="4.72448">
        <ele>234.80000305176</ele>
        <time>2021-09-17T13:13:56Z</time>
      </trkpt>
      <trkpt lat="45.20488" lon="4.72471">
        <ele>235</ele>
        <time>2021-09-17T13:14:05Z</time>
      </trkpt>
      <trkpt lat="45.20491" lon="4.72477">
        <ele>235.60000610352</ele>
        <time>2021-09-17T13:14:12Z</time>
      </trkpt>
      <trkpt lat="45.20493" lon="4.72479">
        <ele>236.19999694824</ele>
        <time>2021-09-17T13:14:23Z</time>
      </trkpt>
      <trkpt lat="45.20486" lon="4.72499">
        <ele>236.60000610352</ele>
        <time>2021-09-17T13:14:32Z</time>
      </trkpt>
      <trkpt lat="45.20484" lon="4.72501">
        <ele>236.80000305176</ele>
        <time>2021-09-17T13:14:35Z</time>
      </trkpt>
      <trkpt lat="45.20483" lon="4.7251">
        <ele>237.60000610352</ele>
        <time>2021-09-17T13:14:39Z</time>
      </trkpt>
      <trkpt lat="45.20481" lon="4.72514">
        <ele>239</ele>
        <time>2021-09-17T13:14:43Z</time>
      </trkpt>
      <trkpt lat="45.2048" lon="4.72531">
        <ele>239.80000305176</ele>
        <time>2021-09-17T13:14:49Z</time>
      </trkpt>
      <trkpt lat="45.20482" lon="4.72548">
        <ele>241</ele>
        <time>2021-09-17T13:14:56Z</time>
      </trkpt>
      <trkpt lat="45.20485" lon="4.7256">
        <ele>242.39999389648</ele>
        <time>2021-09-17T13:15:03Z</time>
      </trkpt>
      <trkpt lat="45.20489" lon="4.72565">
        <ele>242.80000305176</ele>
        <time>2021-09-17T13:15:07Z</time>
      </trkpt>
      <trkpt lat="45.20496" lon="4.72584">
        <ele>244.39999389648</ele>
        <time>2021-09-17T13:15:17Z</time>
      </trkpt>
      <trkpt lat="45.20499" lon="4.72591">
        <ele>244.80000305176</ele>
        <time>2021-09-17T13:15:21Z</time>
      </trkpt>
      <trkpt lat="45.20501" lon="4.72594">
        <ele>245</ele>
        <time>2021-09-17T13:15:22Z</time>
      </trkpt>
      <trkpt lat="45.20506" lon="4.72611">
        <ele>246</ele>
        <time>2021-09-17T13:15:29Z</time>
      </trkpt>
      <trkpt lat="45.20518" lon="4.72622">
        <ele>246.60000610352</ele>
        <time>2021-09-17T13:15:37Z</time>
      </trkpt>
      <trkpt lat="45.20518" lon="4.72628">
        <ele>247</ele>
        <time>2021-09-17T13:15:39Z</time>
      </trkpt>
      <trkpt lat="45.20518" lon="4.72631">
        <ele>247.19999694824</ele>
        <time>2021-09-17T13:15:40Z</time>
      </trkpt>
      <trkpt lat="45.20516" lon="4.72654">
        <ele>247.80000305176</ele>
        <time>2021-09-17T13:15:48Z</time>
      </trkpt>
      <trkpt lat="45.20512" lon="4.72659">
        <ele>248</ele>
        <time>2021-09-17T13:15:50Z</time>
      </trkpt>
      <trkpt lat="45.20508" lon="4.72662">
        <ele>248.39999389648</ele>
        <time>2021-09-17T13:15:54Z</time>
      </trkpt>
      <trkpt lat="45.20486" lon="4.72662">
        <ele>249.19999694824</ele>
        <time>2021-09-17T13:16:07Z</time>
      </trkpt>
      <trkpt lat="45.20461" lon="4.72661">
        <ele>249.39999389648</ele>
        <time>2021-09-17T13:16:17Z</time>
      </trkpt>
      <trkpt lat="45.20443" lon="4.72658">
        <ele>249.60000610352</ele>
        <time>2021-09-17T13:16:25Z</time>
      </trkpt>
      <trkpt lat="45.20434" lon="4.7266">
        <ele>249.80000305176</ele>
        <time>2021-09-17T13:16:28Z</time>
      </trkpt>
      <trkpt lat="45.20391" lon="4.72667">
        <ele>250.39999389648</ele>
        <time>2021-09-17T13:16:44Z</time>
      </trkpt>
      <trkpt lat="45.20371" lon="4.72678">
        <ele>250.19999694824</ele>
        <time>2021-09-17T13:16:53Z</time>
      </trkpt>
      <trkpt lat="45.20358" lon="4.7269">
        <ele>250.39999389648</ele>
        <time>2021-09-17T13:17:00Z</time>
      </trkpt>
      <trkpt lat="45.20346" lon="4.72706">
        <ele>250.80000305176</ele>
        <time>2021-09-17T13:17:05Z</time>
      </trkpt>
      <trkpt lat="45.20322" lon="4.72741">
        <ele>251.80000305176</ele>
        <time>2021-09-17T13:17:16Z</time>
      </trkpt>
      <trkpt lat="45.20319" lon="4.72744">
        <ele>252.19999694824</ele>
        <time>2021-09-17T13:17:18Z</time>
      </trkpt>
      <trkpt lat="45.20311" lon="4.72754">
        <ele>253</ele>
        <time>2021-09-17T13:17:24Z</time>
      </trkpt>
      <trkpt lat="45.203" lon="4.72775">
        <ele>254</ele>
        <time>2021-09-17T13:17:31Z</time>
      </trkpt>
      <trkpt lat="45.20296" lon="4.72793">
        <ele>254.60000610352</ele>
        <time>2021-09-17T13:17:38Z</time>
      </trkpt>
      <trkpt lat="45.20297" lon="4.72799">
        <ele>254.80000305176</ele>
        <time>2021-09-17T13:17:40Z</time>
      </trkpt>
      <trkpt lat="45.20296" lon="4.72806">
        <ele>255.39999389648</ele>
        <time>2021-09-17T13:17:44Z</time>
      </trkpt>
      <trkpt lat="45.2029" lon="4.7282">
        <ele>256.39999389648</ele>
        <time>2021-09-17T13:17:52Z</time>
      </trkpt>
      <trkpt lat="45.20289" lon="4.72826">
        <ele>256.60000610352</ele>
        <time>2021-09-17T13:17:54Z</time>
      </trkpt>
      <trkpt lat="45.20286" lon="4.72833">
        <ele>256.79998779297</ele>
        <time>2021-09-17T13:17:56Z</time>
      </trkpt>
      <trkpt lat="45.20284" lon="4.7285">
        <ele>257.79998779297</ele>
        <time>2021-09-17T13:18:03Z</time>
      </trkpt>
      <trkpt lat="45.20284" lon="4.72858">
        <ele>258</ele>
        <time>2021-09-17T13:18:06Z</time>
      </trkpt>
      <trkpt lat="45.20285" lon="4.72864">
        <ele>258.20001220703</ele>
        <time>2021-09-17T13:18:09Z</time>
      </trkpt>
      <trkpt lat="45.20277" lon="4.7288">
        <ele>259</ele>
        <time>2021-09-17T13:18:14Z</time>
      </trkpt>
      <trkpt lat="45.20277" lon="4.72902">
        <ele>260.60000610352</ele>
        <time>2021-09-17T13:18:24Z</time>
      </trkpt>
      <trkpt lat="45.20271" lon="4.72919">
        <ele>261</ele>
        <time>2021-09-17T13:18:30Z</time>
      </trkpt>
      <trkpt lat="45.2027" lon="4.72922">
        <ele>261.20001220703</ele>
        <time>2021-09-17T13:18:32Z</time>
      </trkpt>
      <trkpt lat="45.20261" lon="4.72938">
        <ele>261.39999389648</ele>
        <time>2021-09-17T13:18:39Z</time>
      </trkpt>
      <trkpt lat="45.20257" lon="4.7295">
        <ele>261.79998779297</ele>
        <time>2021-09-17T13:18:42Z</time>
      </trkpt>
      <trkpt lat="45.20253" lon="4.72961">
        <ele>262.60000610352</ele>
        <time>2021-09-17T13:18:45Z</time>
      </trkpt>
      <trkpt lat="45.20245" lon="4.72984">
        <ele>263.79998779297</ele>
        <time>2021-09-17T13:18:54Z</time>
      </trkpt>
      <trkpt lat="45.20245" lon="4.72987">
        <ele>264</ele>
        <time>2021-09-17T13:18:55Z</time>
      </trkpt>
      <trkpt lat="45.20244" lon="4.72991">
        <ele>264</ele>
        <time>2021-09-17T13:18:56Z</time>
      </trkpt>
      <trkpt lat="45.20242" lon="4.73005">
        <ele>264.20001220703</ele>
        <time>2021-09-17T13:19:01Z</time>
      </trkpt>
      <trkpt lat="45.2024" lon="4.73011">
        <ele>264.20001220703</ele>
        <time>2021-09-17T13:19:03Z</time>
      </trkpt>
      <trkpt lat="45.20239" lon="4.73014">
        <ele>264.39999389648</ele>
        <time>2021-09-17T13:19:04Z</time>
      </trkpt>
      <trkpt lat="45.20238" lon="4.73024">
        <ele>265.20001220703</ele>
        <time>2021-09-17T13:19:09Z</time>
      </trkpt>
      <trkpt lat="45.20238" lon="4.73036">
        <ele>266</ele>
        <time>2021-09-17T13:19:15Z</time>
      </trkpt>
      <trkpt lat="45.20238" lon="4.73046">
        <ele>266.39999389648</ele>
        <time>2021-09-17T13:19:20Z</time>
      </trkpt>
      <trkpt lat="45.20235" lon="4.73056">
        <ele>266.60000610352</ele>
        <time>2021-09-17T13:19:24Z</time>
      </trkpt>
      <trkpt lat="45.20233" lon="4.73063">
        <ele>266.79998779297</ele>
        <time>2021-09-17T13:19:27Z</time>
      </trkpt>
      <trkpt lat="45.2023" lon="4.73076">
        <ele>267.60000610352</ele>
        <time>2021-09-17T13:19:31Z</time>
      </trkpt>
      <trkpt lat="45.20228" lon="4.73092">
        <ele>268</ele>
        <time>2021-09-17T13:19:36Z</time>
      </trkpt>
      <trkpt lat="45.20228" lon="4.73112">
        <ele>268.79998779297</ele>
        <time>2021-09-17T13:19:44Z</time>
      </trkpt>
      <trkpt lat="45.2023" lon="4.73131">
        <ele>269.79998779297</ele>
        <time>2021-09-17T13:19:52Z</time>
      </trkpt>
      <trkpt lat="45.20231" lon="4.73145">
        <ele>270.39999389648</ele>
        <time>2021-09-17T13:19:57Z</time>
      </trkpt>
      <trkpt lat="45.20221" lon="4.73142">
        <ele>271.39999389648</ele>
        <time>2021-09-17T13:20:06Z</time>
      </trkpt>
      <trkpt lat="45.20212" lon="4.73129">
        <ele>272.20001220703</ele>
        <time>2021-09-17T13:20:15Z</time>
      </trkpt>
      <trkpt lat="45.20202" lon="4.7311">
        <ele>274.79998779297</ele>
        <time>2021-09-17T13:20:29Z</time>
      </trkpt>
      <trkpt lat="45.20189" lon="4.73088">
        <ele>276.39999389648</ele>
        <time>2021-09-17T13:20:41Z</time>
      </trkpt>
      <trkpt lat="45.20189" lon="4.7308">
        <ele>277.39999389648</ele>
        <time>2021-09-17T13:20:45Z</time>
      </trkpt>
      <trkpt lat="45.20185" lon="4.73078">
        <ele>277.60000610352</ele>
        <time>2021-09-17T13:20:48Z</time>
      </trkpt>
      <trkpt lat="45.20181" lon="4.73073">
        <ele>277.79998779297</ele>
        <time>2021-09-17T13:20:50Z</time>
      </trkpt>
      <trkpt lat="45.2018" lon="4.73067">
        <ele>278.60000610352</ele>
        <time>2021-09-17T13:20:54Z</time>
      </trkpt>
      <trkpt lat="45.20171" lon="4.73049">
        <ele>280.39999389648</ele>
        <time>2021-09-17T13:21:04Z</time>
      </trkpt>
      <trkpt lat="45.2017" lon="4.73044">
        <ele>280.79998779297</ele>
        <time>2021-09-17T13:21:07Z</time>
      </trkpt>
      <trkpt lat="45.2017" lon="4.7304">
        <ele>281</ele>
        <time>2021-09-17T13:21:09Z</time>
      </trkpt>
      <trkpt lat="45.20172" lon="4.73018">
        <ele>283.20001220703</ele>
        <time>2021-09-17T13:21:19Z</time>
      </trkpt>
      <trkpt lat="45.20173" lon="4.73015">
        <ele>283.39999389648</ele>
        <time>2021-09-17T13:21:22Z</time>
      </trkpt>
      <trkpt lat="45.20178" lon="4.73004">
        <ele>285</ele>
        <time>2021-09-17T13:21:30Z</time>
      </trkpt>
      <trkpt lat="45.20181" lon="4.72997">
        <ele>286.60000610352</ele>
        <time>2021-09-17T13:21:54Z</time>
      </trkpt>
      <trkpt lat="45.20195" lon="4.72969">
        <ele>287.79998779297</ele>
        <time>2021-09-17T13:22:34Z</time>
      </trkpt>
      <trkpt lat="45.202" lon="4.72942">
        <ele>289</ele>
        <time>2021-09-17T13:22:45Z</time>
      </trkpt>
      <trkpt lat="45.20194" lon="4.72917">
        <ele>290.79998779297</ele>
        <time>2021-09-17T13:22:55Z</time>
      </trkpt>
      <trkpt lat="45.20195" lon="4.72911">
        <ele>292</ele>
        <time>2021-09-17T13:23:06Z</time>
      </trkpt>
      <trkpt lat="45.20194" lon="4.72904">
        <ele>293.39999389648</ele>
        <time>2021-09-17T13:23:18Z</time>
      </trkpt>
      <trkpt lat="45.20194" lon="4.72901">
        <ele>294</ele>
        <time>2021-09-17T13:23:34Z</time>
      </trkpt>
      <trkpt lat="45.20185" lon="4.72868">
        <ele>295.20001220703</ele>
        <time>2021-09-17T13:23:48Z</time>
      </trkpt>
      <trkpt lat="45.20186" lon="4.72861">
        <ele>295.20001220703</ele>
        <time>2021-09-17T13:23:51Z</time>
      </trkpt>
      <trkpt lat="45.20184" lon="4.72843">
        <ele>297.20001220703</ele>
        <time>2021-09-17T13:23:59Z</time>
      </trkpt>
      <trkpt lat="45.20184" lon="4.72838">
        <ele>297.39999389648</ele>
        <time>2021-09-17T13:24:01Z</time>
      </trkpt>
      <trkpt lat="45.20178" lon="4.7283">
        <ele>297.79998779297</ele>
        <time>2021-09-17T13:24:05Z</time>
      </trkpt>
      <trkpt lat="45.20174" lon="4.72811">
        <ele>299.39999389648</ele>
        <time>2021-09-17T13:24:13Z</time>
      </trkpt>
      <trkpt lat="45.20174" lon="4.72805">
        <ele>300</ele>
        <time>2021-09-17T13:24:16Z</time>
      </trkpt>
      <trkpt lat="45.20173" lon="4.72798">
        <ele>300.60000610352</ele>
        <time>2021-09-17T13:24:20Z</time>
      </trkpt>
      <trkpt lat="45.20169" lon="4.72779">
        <ele>301.39999389648</ele>
        <time>2021-09-17T13:24:30Z</time>
      </trkpt>
      <trkpt lat="45.20165" lon="4.72767">
        <ele>302.79998779297</ele>
        <time>2021-09-17T13:24:36Z</time>
      </trkpt>
      <trkpt lat="45.20159" lon="4.72754">
        <ele>304</ele>
        <time>2021-09-17T13:24:42Z</time>
      </trkpt>
      <trkpt lat="45.20158" lon="4.72751">
        <ele>304.39999389648</ele>
        <time>2021-09-17T13:24:44Z</time>
      </trkpt>
      <trkpt lat="45.20153" lon="4.7274">
        <ele>304.60000610352</ele>
        <time>2021-09-17T13:24:49Z</time>
      </trkpt>
      <trkpt lat="45.20154" lon="4.72725">
        <ele>306.39999389648</ele>
        <time>2021-09-17T13:24:57Z</time>
      </trkpt>
      <trkpt lat="45.20156" lon="4.72722">
        <ele>306.60000610352</ele>
        <time>2021-09-17T13:24:59Z</time>
      </trkpt>
      <trkpt lat="45.20164" lon="4.72711">
        <ele>307.60000610352</ele>
        <time>2021-09-17T13:25:07Z</time>
      </trkpt>
      <trkpt lat="45.20175" lon="4.72695">
        <ele>309.39999389648</ele>
        <time>2021-09-17T13:25:19Z</time>
      </trkpt>
      <trkpt lat="45.20188" lon="4.72681">
        <ele>310.39999389648</ele>
        <time>2021-09-17T13:25:30Z</time>
      </trkpt>
      <trkpt lat="45.20193" lon="4.72666">
        <ele>311</ele>
        <time>2021-09-17T13:25:38Z</time>
      </trkpt>
      <trkpt lat="45.20201" lon="4.72647">
        <ele>312.39999389648</ele>
        <time>2021-09-17T13:25:44Z</time>
      </trkpt>
      <trkpt lat="45.202" lon="4.72644">
        <ele>312.39999389648</ele>
        <time>2021-09-17T13:25:45Z</time>
      </trkpt>
      <trkpt lat="45.20199" lon="4.7264">
        <ele>313</ele>
        <time>2021-09-17T13:25:48Z</time>
      </trkpt>
      <trkpt lat="45.20201" lon="4.72625">
        <ele>314</ele>
        <time>2021-09-17T13:25:56Z</time>
      </trkpt>
      <trkpt lat="45.20202" lon="4.72622">
        <ele>314.20001220703</ele>
        <time>2021-09-17T13:25:57Z</time>
      </trkpt>
      <trkpt lat="45.20202" lon="4.72613">
        <ele>314.60000610352</ele>
        <time>2021-09-17T13:26:01Z</time>
      </trkpt>
      <trkpt lat="45.20202" lon="4.72595">
        <ele>315.20001220703</ele>
        <time>2021-09-17T13:26:08Z</time>
      </trkpt>
      <trkpt lat="45.20202" lon="4.72586">
        <ele>315.79998779297</ele>
        <time>2021-09-17T13:26:11Z</time>
      </trkpt>
      <trkpt lat="45.202" lon="4.72577">
        <ele>316.60000610352</ele>
        <time>2021-09-17T13:26:14Z</time>
      </trkpt>
      <trkpt lat="45.20199" lon="4.72566">
        <ele>317</ele>
        <time>2021-09-17T13:26:18Z</time>
      </trkpt>
      <trkpt lat="45.20198" lon="4.72562">
        <ele>317.20001220703</ele>
        <time>2021-09-17T13:26:19Z</time>
      </trkpt>
      <trkpt lat="45.20198" lon="4.72548">
        <ele>318.39999389648</ele>
        <time>2021-09-17T13:26:26Z</time>
      </trkpt>
      <trkpt lat="45.20198" lon="4.7252">
        <ele>321</ele>
        <time>2021-09-17T13:26:40Z</time>
      </trkpt>
      <trkpt lat="45.20198" lon="4.72508">
        <ele>321.79998779297</ele>
        <time>2021-09-17T13:26:47Z</time>
      </trkpt>
      <trkpt lat="45.20197" lon="4.72498">
        <ele>322.20001220703</ele>
        <time>2021-09-17T13:26:52Z</time>
      </trkpt>
      <trkpt lat="45.20193" lon="4.72487">
        <ele>322.60000610352</ele>
        <time>2021-09-17T13:26:57Z</time>
      </trkpt>
      <trkpt lat="45.20198" lon="4.72461">
        <ele>324.20001220703</ele>
        <time>2021-09-17T13:27:08Z</time>
      </trkpt>
      <trkpt lat="45.20191" lon="4.72451">
        <ele>325.60000610352</ele>
        <time>2021-09-17T13:27:15Z</time>
      </trkpt>
      <trkpt lat="45.20184" lon="4.72441">
        <ele>327</ele>
        <time>2021-09-17T13:27:21Z</time>
      </trkpt>
      <trkpt lat="45.20178" lon="4.72439">
        <ele>328</ele>
        <time>2021-09-17T13:27:25Z</time>
      </trkpt>
      <trkpt lat="45.20171" lon="4.72426">
        <ele>329</ele>
        <time>2021-09-17T13:27:33Z</time>
      </trkpt>
      <trkpt lat="45.20163" lon="4.72421">
        <ele>330.20001220703</ele>
        <time>2021-09-17T13:27:40Z</time>
      </trkpt>
      <trkpt lat="45.20153" lon="4.7241">
        <ele>333</ele>
        <time>2021-09-17T13:27:52Z</time>
      </trkpt>
      <trkpt lat="45.20139" lon="4.72394">
        <ele>334.39999389648</ele>
        <time>2021-09-17T13:28:04Z</time>
      </trkpt>
      <trkpt lat="45.20132" lon="4.7239">
        <ele>335</ele>
        <time>2021-09-17T13:28:09Z</time>
      </trkpt>
      <trkpt lat="45.20131" lon="4.72387">
        <ele>335.20001220703</ele>
        <time>2021-09-17T13:28:11Z</time>
      </trkpt>
      <trkpt lat="45.20122" lon="4.72379">
        <ele>336</ele>
        <time>2021-09-17T13:28:17Z</time>
      </trkpt>
      <trkpt lat="45.20107" lon="4.72363">
        <ele>337.79998779297</ele>
        <time>2021-09-17T13:28:28Z</time>
      </trkpt>
      <trkpt lat="45.20101" lon="4.72358">
        <ele>338.20001220703</ele>
        <time>2021-09-17T13:28:32Z</time>
      </trkpt>
      <trkpt lat="45.20089" lon="4.72339">
        <ele>340</ele>
        <time>2021-09-17T13:28:44Z</time>
      </trkpt>
      <trkpt lat="45.20088" lon="4.72336">
        <ele>340.20001220703</ele>
        <time>2021-09-17T13:28:46Z</time>
      </trkpt>
      <trkpt lat="45.20075" lon="4.72312">
        <ele>342.60000610352</ele>
        <time>2021-09-17T13:29:00Z</time>
      </trkpt>
      <trkpt lat="45.20071" lon="4.72305">
        <ele>342.79998779297</ele>
        <time>2021-09-17T13:29:04Z</time>
      </trkpt>
      <trkpt lat="45.20071" lon="4.72286">
        <ele>345</ele>
        <time>2021-09-17T13:29:14Z</time>
      </trkpt>
      <trkpt lat="45.20076" lon="4.72268">
        <ele>346.39999389648</ele>
        <time>2021-09-17T13:29:24Z</time>
      </trkpt>
      <trkpt lat="45.20092" lon="4.72259">
        <ele>347.79998779297</ele>
        <time>2021-09-17T13:29:36Z</time>
      </trkpt>
      <trkpt lat="45.20113" lon="4.72251">
        <ele>349.39999389648</ele>
        <time>2021-09-17T13:29:50Z</time>
      </trkpt>
      <trkpt lat="45.20137" lon="4.72257">
        <ele>351.60000610352</ele>
        <time>2021-09-17T13:30:05Z</time>
      </trkpt>
      <trkpt lat="45.2015" lon="4.72239">
        <ele>353</ele>
        <time>2021-09-17T13:30:16Z</time>
      </trkpt>
      <trkpt lat="45.20151" lon="4.72214">
        <ele>356.20001220703</ele>
        <time>2021-09-17T13:30:28Z</time>
      </trkpt>
      <trkpt lat="45.20145" lon="4.72181">
        <ele>358.20001220703</ele>
        <time>2021-09-17T13:30:40Z</time>
      </trkpt>
      <trkpt lat="45.20132" lon="4.72155">
        <ele>359</ele>
        <time>2021-09-17T13:30:52Z</time>
      </trkpt>
      <trkpt lat="45.20125" lon="4.72147">
        <ele>359.60000610352</ele>
        <time>2021-09-17T13:30:57Z</time>
      </trkpt>
      <trkpt lat="45.20116" lon="4.72134">
        <ele>361.79998779297</ele>
        <time>2021-09-17T13:31:05Z</time>
      </trkpt>
      <trkpt lat="45.20105" lon="4.72121">
        <ele>362.39999389648</ele>
        <time>2021-09-17T13:31:13Z</time>
      </trkpt>
      <trkpt lat="45.20099" lon="4.72111">
        <ele>362.79998779297</ele>
        <time>2021-09-17T13:31:18Z</time>
      </trkpt>
      <trkpt lat="45.20085" lon="4.72079">
        <ele>365.39999389648</ele>
        <time>2021-09-17T13:31:33Z</time>
      </trkpt>
      <trkpt lat="45.20076" lon="4.72056">
        <ele>366.39999389648</ele>
        <time>2021-09-17T13:31:44Z</time>
      </trkpt>
      <trkpt lat="45.20064" lon="4.72027">
        <ele>368</ele>
        <time>2021-09-17T13:31:56Z</time>
      </trkpt>
      <trkpt lat="45.20058" lon="4.71998">
        <ele>369.79998779297</ele>
        <time>2021-09-17T13:32:05Z</time>
      </trkpt>
      <trkpt lat="45.20055" lon="4.71987">
        <ele>370</ele>
        <time>2021-09-17T13:32:08Z</time>
      </trkpt>
      <trkpt lat="45.20047" lon="4.71938">
        <ele>370.79998779297</ele>
        <time>2021-09-17T13:32:22Z</time>
      </trkpt>
      <trkpt lat="45.20037" lon="4.71872">
        <ele>371.79998779297</ele>
        <time>2021-09-17T13:32:40Z</time>
      </trkpt>
      <trkpt lat="45.20035" lon="4.71843">
        <ele>371.20001220703</ele>
        <time>2021-09-17T13:32:45Z</time>
      </trkpt>
      <trkpt lat="45.20033" lon="4.71814">
        <ele>370.79998779297</ele>
        <time>2021-09-17T13:32:50Z</time>
      </trkpt>
      <trkpt lat="45.2003" lon="4.71802">
        <ele>370.79998779297</ele>
        <time>2021-09-17T13:32:52Z</time>
      </trkpt>
      <trkpt lat="45.20026" lon="4.71784">
        <ele>370.79998779297</ele>
        <time>2021-09-17T13:32:55Z</time>
      </trkpt>
      <trkpt lat="45.2002" lon="4.7176">
        <ele>370.79998779297</ele>
        <time>2021-09-17T13:32:59Z</time>
      </trkpt>
      <trkpt lat="45.20016" lon="4.71742">
        <ele>370.60000610352</ele>
        <time>2021-09-17T13:33:02Z</time>
      </trkpt>
      <trkpt lat="45.2" lon="4.71673">
        <ele>370</ele>
        <time>2021-09-17T13:33:13Z</time>
      </trkpt>
      <trkpt lat="45.19995" lon="4.71621">
        <ele>368.79998779297</ele>
        <time>2021-09-17T13:33:19Z</time>
      </trkpt>
      <trkpt lat="45.19962" lon="4.71542">
        <ele>366.79998779297</ele>
        <time>2021-09-17T13:33:29Z</time>
      </trkpt>
      <trkpt lat="45.19957" lon="4.71528">
        <ele>366.60000610352</ele>
        <time>2021-09-17T13:33:31Z</time>
      </trkpt>
      <trkpt lat="45.19924" lon="4.71443">
        <ele>366</ele>
        <time>2021-09-17T13:33:44Z</time>
      </trkpt>
      <trkpt lat="45.19894" lon="4.71382">
        <ele>367.39999389648</ele>
        <time>2021-09-17T13:33:59Z</time>
      </trkpt>
      <trkpt lat="45.19851" lon="4.71266">
        <ele>369.39999389648</ele>
        <time>2021-09-17T13:34:25Z</time>
      </trkpt>
      <trkpt lat="45.19844" lon="4.71241">
        <ele>370</ele>
        <time>2021-09-17T13:34:30Z</time>
      </trkpt>
      <trkpt lat="45.19836" lon="4.71219">
        <ele>370.39999389648</ele>
        <time>2021-09-17T13:34:34Z</time>
      </trkpt>
      <trkpt lat="45.19816" lon="4.71105">
        <ele>370</ele>
        <time>2021-09-17T13:34:51Z</time>
      </trkpt>
      <trkpt lat="45.19817" lon="4.71079">
        <ele>369.60000610352</ele>
        <time>2021-09-17T13:34:55Z</time>
      </trkpt>
      <trkpt lat="45.19818" lon="4.71008">
        <ele>369.60000610352</ele>
        <time>2021-09-17T13:35:06Z</time>
      </trkpt>
      <trkpt lat="45.19811" lon="4.70938">
        <ele>368.79998779297</ele>
        <time>2021-09-17T13:35:18Z</time>
      </trkpt>
      <trkpt lat="45.19842" lon="4.70873">
        <ele>369.39999389648</ele>
        <time>2021-09-17T13:35:35Z</time>
      </trkpt>
      <trkpt lat="45.1988" lon="4.70833">
        <ele>371.39999389648</ele>
        <time>2021-09-17T13:35:56Z</time>
      </trkpt>
      <trkpt lat="45.19905" lon="4.70811">
        <ele>373.20001220703</ele>
        <time>2021-09-17T13:36:12Z</time>
      </trkpt>
      <trkpt lat="45.19932" lon="4.70795">
        <ele>376</ele>
        <time>2021-09-17T13:36:28Z</time>
      </trkpt>
      <trkpt lat="45.19971" lon="4.70783">
        <ele>377.39999389648</ele>
        <time>2021-09-17T13:36:43Z</time>
      </trkpt>
      <trkpt lat="45.20006" lon="4.70773">
        <ele>377.79998779297</ele>
        <time>2021-09-17T13:37:01Z</time>
      </trkpt>
      <trkpt lat="45.20016" lon="4.70763">
        <ele>378.60000610352</ele>
        <time>2021-09-17T13:37:11Z</time>
      </trkpt>
      <trkpt lat="45.20016" lon="4.70754">
        <ele>379.20001220703</ele>
        <time>2021-09-17T13:37:16Z</time>
      </trkpt>
      <trkpt lat="45.20016" lon="4.70751">
        <ele>379.39999389648</ele>
        <time>2021-09-17T13:37:18Z</time>
      </trkpt>
      <trkpt lat="45.20015" lon="4.7074">
        <ele>380.39999389648</ele>
        <time>2021-09-17T13:37:24Z</time>
      </trkpt>
      <trkpt lat="45.20013" lon="4.70727">
        <ele>381.60000610352</ele>
        <time>2021-09-17T13:37:33Z</time>
      </trkpt>
      <trkpt lat="45.20015" lon="4.70718">
        <ele>383</ele>
        <time>2021-09-17T13:37:40Z</time>
      </trkpt>
      <trkpt lat="45.20012" lon="4.70704">
        <ele>383.20001220703</ele>
        <time>2021-09-17T13:37:46Z</time>
      </trkpt>
      <trkpt lat="45.20002" lon="4.70684">
        <ele>383.79998779297</ele>
        <time>2021-09-17T13:37:54Z</time>
      </trkpt>
      <trkpt lat="45.20001" lon="4.70662">
        <ele>384.39999389648</ele>
        <time>2021-09-17T13:38:04Z</time>
      </trkpt>
      <trkpt lat="45.2" lon="4.70649">
        <ele>384.39999389648</ele>
        <time>2021-09-17T13:38:10Z</time>
      </trkpt>
      <trkpt lat="45.20006" lon="4.70645">
        <ele>384.79998779297</ele>
        <time>2021-09-17T13:38:15Z</time>
      </trkpt>
      <trkpt lat="45.20021" lon="4.70642">
        <ele>386.60000610352</ele>
        <time>2021-09-17T13:38:30Z</time>
      </trkpt>
      <trkpt lat="45.20025" lon="4.70641">
        <ele>386.79998779297</ele>
        <time>2021-09-17T13:38:32Z</time>
      </trkpt>
      <trkpt lat="45.20034" lon="4.70647">
        <ele>388.20001220703</ele>
        <time>2021-09-17T13:38:39Z</time>
      </trkpt>
      <trkpt lat="45.20063" lon="4.70655">
        <ele>390.39999389648</ele>
        <time>2021-09-17T13:38:55Z</time>
      </trkpt>
      <trkpt lat="45.20088" lon="4.70604">
        <ele>390.60000610352</ele>
        <time>2021-09-17T13:39:12Z</time>
      </trkpt>
      <trkpt lat="45.20091" lon="4.70558">
        <ele>391</ele>
        <time>2021-09-17T13:39:23Z</time>
      </trkpt>
      <trkpt lat="45.20076" lon="4.7051">
        <ele>390</ele>
        <time>2021-09-17T13:39:29Z</time>
      </trkpt>
      <trkpt lat="45.2006" lon="4.70499">
        <ele>389.20001220703</ele>
        <time>2021-09-17T13:39:31Z</time>
      </trkpt>
      <trkpt lat="45.20052" lon="4.70493">
        <ele>389</ele>
        <time>2021-09-17T13:39:32Z</time>
      </trkpt>
      <trkpt lat="45.2004" lon="4.70481">
        <ele>386.79998779297</ele>
        <time>2021-09-17T13:39:34Z</time>
      </trkpt>
      <trkpt lat="45.20028" lon="4.70455">
        <ele>383.79998779297</ele>
        <time>2021-09-17T13:39:38Z</time>
      </trkpt>
      <trkpt lat="45.20028" lon="4.7044">
        <ele>383.20001220703</ele>
        <time>2021-09-17T13:39:40Z</time>
      </trkpt>
      <trkpt lat="45.2003" lon="4.70383">
        <ele>381.39999389648</ele>
        <time>2021-09-17T13:39:47Z</time>
      </trkpt>
      <trkpt lat="45.20019" lon="4.70326">
        <ele>380.39999389648</ele>
        <time>2021-09-17T13:39:54Z</time>
      </trkpt>
      <trkpt lat="45.20015" lon="4.70305">
        <ele>380.39999389648</ele>
        <time>2021-09-17T13:39:57Z</time>
      </trkpt>
      <trkpt lat="45.20037" lon="4.70276">
        <ele>379.79998779297</ele>
        <time>2021-09-17T13:40:03Z</time>
      </trkpt>
      <trkpt lat="45.20043" lon="4.70272">
        <ele>379.79998779297</ele>
        <time>2021-09-17T13:40:04Z</time>
      </trkpt>
      <trkpt lat="45.20056" lon="4.70262">
        <ele>379.39999389648</ele>
        <time>2021-09-17T13:40:06Z</time>
      </trkpt>
      <trkpt lat="45.20099" lon="4.70206">
        <ele>377</ele>
        <time>2021-09-17T13:40:15Z</time>
      </trkpt>
      <trkpt lat="45.20128" lon="4.70201">
        <ele>376.79998779297</ele>
        <time>2021-09-17T13:40:22Z</time>
      </trkpt>
      <trkpt lat="45.20139" lon="4.70203">
        <ele>377.20001220703</ele>
        <time>2021-09-17T13:40:25Z</time>
      </trkpt>
      <trkpt lat="45.20197" lon="4.70216">
        <ele>377.60000610352</ele>
        <time>2021-09-17T13:40:36Z</time>
      </trkpt>
      <trkpt lat="45.20251" lon="4.70217">
        <ele>375.60000610352</ele>
        <time>2021-09-17T13:40:43Z</time>
      </trkpt>
      <trkpt lat="45.20324" lon="4.70239">
        <ele>371.79998779297</ele>
        <time>2021-09-17T13:40:51Z</time>
      </trkpt>
      <trkpt lat="45.20362" lon="4.70284">
        <ele>368.79998779297</ele>
        <time>2021-09-17T13:40:57Z</time>
      </trkpt>
      <trkpt lat="45.20373" lon="4.70296">
        <ele>367.79998779297</ele>
        <time>2021-09-17T13:40:59Z</time>
      </trkpt>
      <trkpt lat="45.20385" lon="4.70295">
        <ele>366.60000610352</ele>
        <time>2021-09-17T13:41:01Z</time>
      </trkpt>
      <trkpt lat="45.20398" lon="4.70269">
        <ele>364.79998779297</ele>
        <time>2021-09-17T13:41:05Z</time>
      </trkpt>
      <trkpt lat="45.20399" lon="4.70264">
        <ele>364</ele>
        <time>2021-09-17T13:41:06Z</time>
      </trkpt>
      <trkpt lat="45.20404" lon="4.70254">
        <ele>362.79998779297</ele>
        <time>2021-09-17T13:41:08Z</time>
      </trkpt>
      <trkpt lat="45.20419" lon="4.70261">
        <ele>363.20001220703</ele>
        <time>2021-09-17T13:41:15Z</time>
      </trkpt>
      <trkpt lat="45.2043" lon="4.70319">
        <ele>366</ele>
        <time>2021-09-17T13:41:31Z</time>
      </trkpt>
      <trkpt lat="45.20446" lon="4.70342">
        <ele>369</ele>
        <time>2021-09-17T13:41:43Z</time>
      </trkpt>
      <trkpt lat="45.20474" lon="4.70339">
        <ele>371.20001220703</ele>
        <time>2021-09-17T13:41:56Z</time>
      </trkpt>
      <trkpt lat="45.20488" lon="4.70337">
        <ele>371.60000610352</ele>
        <time>2021-09-17T13:42:00Z</time>
      </trkpt>
      <trkpt lat="45.2054" lon="4.70334">
        <ele>371.60000610352</ele>
        <time>2021-09-17T13:42:11Z</time>
      </trkpt>
      <trkpt lat="45.2058" lon="4.70332">
        <ele>369.79998779297</ele>
        <time>2021-09-17T13:42:18Z</time>
      </trkpt>
      <trkpt lat="45.2059" lon="4.70333">
        <ele>369.79998779297</ele>
        <time>2021-09-17T13:42:20Z</time>
      </trkpt>
      <trkpt lat="45.20617" lon="4.70296">
        <ele>368.79998779297</ele>
        <time>2021-09-17T13:42:29Z</time>
      </trkpt>
      <trkpt lat="45.20611" lon="4.70269">
        <ele>370.39999389648</ele>
        <time>2021-09-17T13:42:38Z</time>
      </trkpt>
      <trkpt lat="45.2061" lon="4.70262">
        <ele>370.79998779297</ele>
        <time>2021-09-17T13:42:41Z</time>
      </trkpt>
      <trkpt lat="45.20608" lon="4.70224">
        <ele>373.20001220703</ele>
        <time>2021-09-17T13:42:54Z</time>
      </trkpt>
      <trkpt lat="45.20609" lon="4.70214">
        <ele>373.60000610352</ele>
        <time>2021-09-17T13:42:56Z</time>
      </trkpt>
      <trkpt lat="45.20609" lon="4.70194">
        <ele>373.60000610352</ele>
        <time>2021-09-17T13:42:59Z</time>
      </trkpt>
      <trkpt lat="45.20607" lon="4.70179">
        <ele>373.60000610352</ele>
        <time>2021-09-17T13:43:01Z</time>
      </trkpt>
      <trkpt lat="45.20606" lon="4.70119">
        <ele>372.39999389648</ele>
        <time>2021-09-17T13:43:09Z</time>
      </trkpt>
      <trkpt lat="45.20612" lon="4.70067">
        <ele>371.79998779297</ele>
        <time>2021-09-17T13:43:17Z</time>
      </trkpt>
      <trkpt lat="45.20613" lon="4.70052">
        <ele>371.60000610352</ele>
        <time>2021-09-17T13:43:19Z</time>
      </trkpt>
      <trkpt lat="45.20612" lon="4.70029">
        <ele>370</ele>
        <time>2021-09-17T13:43:23Z</time>
      </trkpt>
      <trkpt lat="45.20613" lon="4.70027">
        <ele>369</ele>
        <time>2021-09-17T13:43:26Z</time>
      </trkpt>
      <trkpt lat="45.20621" lon="4.7004">
        <ele>368</ele>
        <time>2021-09-17T13:43:31Z</time>
      </trkpt>
      <trkpt lat="45.20637" lon="4.70068">
        <ele>367</ele>
        <time>2021-09-17T13:43:37Z</time>
      </trkpt>
      <trkpt lat="45.20658" lon="4.70094">
        <ele>365.60000610352</ele>
        <time>2021-09-17T13:43:42Z</time>
      </trkpt>
      <trkpt lat="45.20662" lon="4.70101">
        <ele>365</ele>
        <time>2021-09-17T13:43:43Z</time>
      </trkpt>
      <trkpt lat="45.20671" lon="4.70119">
        <ele>364</ele>
        <time>2021-09-17T13:43:46Z</time>
      </trkpt>
      <trkpt lat="45.20682" lon="4.70113">
        <ele>360.60000610352</ele>
        <time>2021-09-17T13:43:50Z</time>
      </trkpt>
      <trkpt lat="45.20682" lon="4.70107">
        <ele>360.39999389648</ele>
        <time>2021-09-17T13:43:51Z</time>
      </trkpt>
      <trkpt lat="45.20682" lon="4.70084">
        <ele>358.60000610352</ele>
        <time>2021-09-17T13:43:54Z</time>
      </trkpt>
      <trkpt lat="45.20682" lon="4.70079">
        <ele>358.20001220703</ele>
        <time>2021-09-17T13:43:55Z</time>
      </trkpt>
      <trkpt lat="45.20689" lon="4.70077">
        <ele>355</ele>
        <time>2021-09-17T13:43:59Z</time>
      </trkpt>
      <trkpt lat="45.20706" lon="4.70094">
        <ele>351.79998779297</ele>
        <time>2021-09-17T13:44:05Z</time>
      </trkpt>
      <trkpt lat="45.20729" lon="4.70111">
        <ele>347.39999389648</ele>
        <time>2021-09-17T13:44:10Z</time>
      </trkpt>
      <trkpt lat="45.20748" lon="4.70118">
        <ele>346.60000610352</ele>
        <time>2021-09-17T13:44:14Z</time>
      </trkpt>
      <trkpt lat="45.20765" lon="4.70123">
        <ele>346</ele>
        <time>2021-09-17T13:44:17Z</time>
      </trkpt>
      <trkpt lat="45.20786" lon="4.70119">
        <ele>343.79998779297</ele>
        <time>2021-09-17T13:44:21Z</time>
      </trkpt>
      <trkpt lat="45.20801" lon="4.70119">
        <ele>342.39999389648</ele>
        <time>2021-09-17T13:44:24Z</time>
      </trkpt>
      <trkpt lat="45.20818" lon="4.70147">
        <ele>339.60000610352</ele>
        <time>2021-09-17T13:44:30Z</time>
      </trkpt>
      <trkpt lat="45.20823" lon="4.70159">
        <ele>338.39999389648</ele>
        <time>2021-09-17T13:44:33Z</time>
      </trkpt>
      <trkpt lat="45.20829" lon="4.70192">
        <ele>335</ele>
        <time>2021-09-17T13:44:38Z</time>
      </trkpt>
      <trkpt lat="45.2084" lon="4.70226">
        <ele>331.79998779297</ele>
        <time>2021-09-17T13:44:42Z</time>
      </trkpt>
      <trkpt lat="45.20842" lon="4.70233">
        <ele>331.60000610352</ele>
        <time>2021-09-17T13:44:43Z</time>
      </trkpt>
      <trkpt lat="45.20847" lon="4.70248">
        <ele>329.60000610352</ele>
        <time>2021-09-17T13:44:45Z</time>
      </trkpt>
      <trkpt lat="45.20848" lon="4.70257">
        <ele>329.39999389648</ele>
        <time>2021-09-17T13:44:46Z</time>
      </trkpt>
      <trkpt lat="45.20848" lon="4.7028">
        <ele>328</ele>
        <time>2021-09-17T13:44:49Z</time>
      </trkpt>
      <trkpt lat="45.20847" lon="4.70287">
        <ele>327.79998779297</ele>
        <time>2021-09-17T13:44:50Z</time>
      </trkpt>
      <trkpt lat="45.20839" lon="4.70316">
        <ele>325.79998779297</ele>
        <time>2021-09-17T13:44:54Z</time>
      </trkpt>
      <trkpt lat="45.20836" lon="4.70323">
        <ele>325.60000610352</ele>
        <time>2021-09-17T13:44:55Z</time>
      </trkpt>
      <trkpt lat="45.20834" lon="4.70347">
        <ele>323.60000610352</ele>
        <time>2021-09-17T13:44:58Z</time>
      </trkpt>
      <trkpt lat="45.20832" lon="4.70361">
        <ele>321.60000610352</ele>
        <time>2021-09-17T13:45:00Z</time>
      </trkpt>
      <trkpt lat="45.20828" lon="4.70374">
        <ele>318.60000610352</ele>
        <time>2021-09-17T13:45:03Z</time>
      </trkpt>
      <trkpt lat="45.20827" lon="4.70374">
        <ele>317.20001220703</ele>
        <time>2021-09-17T13:45:05Z</time>
      </trkpt>
      <trkpt lat="45.20829" lon="4.70372">
        <ele>317</ele>
        <time>2021-09-17T13:45:06Z</time>
      </trkpt>
      <trkpt lat="45.20841" lon="4.70344">
        <ele>313.60000610352</ele>
        <time>2021-09-17T13:45:13Z</time>
      </trkpt>
      <trkpt lat="45.20849" lon="4.70337">
        <ele>312.39999389648</ele>
        <time>2021-09-17T13:45:15Z</time>
      </trkpt>
      <trkpt lat="45.20864" lon="4.70325">
        <ele>311.20001220703</ele>
        <time>2021-09-17T13:45:18Z</time>
      </trkpt>
      <trkpt lat="45.20891" lon="4.70298">
        <ele>308</ele>
        <time>2021-09-17T13:45:23Z</time>
      </trkpt>
      <trkpt lat="45.20917" lon="4.70303">
        <ele>304.39999389648</ele>
        <time>2021-09-17T13:45:28Z</time>
      </trkpt>
      <trkpt lat="45.20943" lon="4.70303">
        <ele>302.39999389648</ele>
        <time>2021-09-17T13:45:32Z</time>
      </trkpt>
      <trkpt lat="45.20949" lon="4.70298">
        <ele>301.60000610352</ele>
        <time>2021-09-17T13:45:33Z</time>
      </trkpt>
      <trkpt lat="45.20963" lon="4.70284">
        <ele>300.39999389648</ele>
        <time>2021-09-17T13:45:36Z</time>
      </trkpt>
      <trkpt lat="45.20977" lon="4.70239">
        <ele>297.20001220703</ele>
        <time>2021-09-17T13:45:42Z</time>
      </trkpt>
      <trkpt lat="45.2098" lon="4.70219">
        <ele>293.20001220703</ele>
        <time>2021-09-17T13:45:48Z</time>
      </trkpt>
      <trkpt lat="45.20981" lon="4.70225">
        <ele>291.79998779297</ele>
        <time>2021-09-17T13:45:51Z</time>
      </trkpt>
      <trkpt lat="45.20991" lon="4.70256">
        <ele>288.60000610352</ele>
        <time>2021-09-17T13:45:58Z</time>
      </trkpt>
      <trkpt lat="45.20991" lon="4.7026">
        <ele>288.20001220703</ele>
        <time>2021-09-17T13:45:59Z</time>
      </trkpt>
      <trkpt lat="45.20992" lon="4.70267">
        <ele>287.39999389648</ele>
        <time>2021-09-17T13:46:00Z</time>
      </trkpt>
      <trkpt lat="45.20997" lon="4.703">
        <ele>283.79998779297</ele>
        <time>2021-09-17T13:46:04Z</time>
      </trkpt>
      <trkpt lat="45.20995" lon="4.70337">
        <ele>281.39999389648</ele>
        <time>2021-09-17T13:46:08Z</time>
      </trkpt>
      <trkpt lat="45.20995" lon="4.70347">
        <ele>280.79998779297</ele>
        <time>2021-09-17T13:46:09Z</time>
      </trkpt>
      <trkpt lat="45.20983" lon="4.70384">
        <ele>277.20001220703</ele>
        <time>2021-09-17T13:46:14Z</time>
      </trkpt>
      <trkpt lat="45.20966" lon="4.70396">
        <ele>274.60000610352</ele>
        <time>2021-09-17T13:46:17Z</time>
      </trkpt>
      <trkpt lat="45.20959" lon="4.70399">
        <ele>273</ele>
        <time>2021-09-17T13:46:19Z</time>
      </trkpt>
      <trkpt lat="45.20956" lon="4.70412">
        <ele>270.60000610352</ele>
        <time>2021-09-17T13:46:22Z</time>
      </trkpt>
      <trkpt lat="45.20979" lon="4.70418">
        <ele>268.79998779297</ele>
        <time>2021-09-17T13:46:28Z</time>
      </trkpt>
      <trkpt lat="45.20983" lon="4.70398">
        <ele>265.79998779297</ele>
        <time>2021-09-17T13:46:32Z</time>
      </trkpt>
      <trkpt lat="45.20985" lon="4.70392">
        <ele>265.39999389648</ele>
        <time>2021-09-17T13:46:33Z</time>
      </trkpt>
      <trkpt lat="45.20993" lon="4.7038">
        <ele>264.20001220703</ele>
        <time>2021-09-17T13:46:35Z</time>
      </trkpt>
      <trkpt lat="45.21018" lon="4.70333">
        <ele>259.79998779297</ele>
        <time>2021-09-17T13:46:41Z</time>
      </trkpt>
      <trkpt lat="45.21036" lon="4.70304">
        <ele>256.39999389648</ele>
        <time>2021-09-17T13:46:46Z</time>
      </trkpt>
      <trkpt lat="45.21037" lon="4.70299">
        <ele>256.20001220703</ele>
        <time>2021-09-17T13:46:47Z</time>
      </trkpt>
      <trkpt lat="45.21047" lon="4.70291">
        <ele>253.80000305176</ele>
        <time>2021-09-17T13:46:52Z</time>
      </trkpt>
      <trkpt lat="45.21072" lon="4.70315">
        <ele>252</ele>
        <time>2021-09-17T13:47:02Z</time>
      </trkpt>
      <trkpt lat="45.21098" lon="4.70346">
        <ele>252</ele>
        <time>2021-09-17T13:47:13Z</time>
      </trkpt>
      <trkpt lat="45.21098" lon="4.70351">
        <ele>252.39999389648</ele>
        <time>2021-09-17T13:47:15Z</time>
      </trkpt>
      <trkpt lat="45.21091" lon="4.70364">
        <ele>254</ele>
        <time>2021-09-17T13:47:23Z</time>
      </trkpt>
      <trkpt lat="45.21085" lon="4.70368">
        <ele>255.39999389648</ele>
        <time>2021-09-17T13:47:29Z</time>
      </trkpt>
      <trkpt lat="45.21082" lon="4.70376">
        <ele>255.80000305176</ele>
        <time>2021-09-17T13:47:34Z</time>
      </trkpt>
      <trkpt lat="45.21077" lon="4.70396">
        <ele>257.39999389648</ele>
        <time>2021-09-17T13:47:41Z</time>
      </trkpt>
      <trkpt lat="45.21069" lon="4.70413">
        <ele>259.39999389648</ele>
        <time>2021-09-17T13:47:53Z</time>
      </trkpt>
      <trkpt lat="45.21068" lon="4.70422">
        <ele>260.20001220703</ele>
        <time>2021-09-17T13:47:59Z</time>
      </trkpt>
      <trkpt lat="45.21067" lon="4.70424">
        <ele>260.60000610352</ele>
        <time>2021-09-17T13:48:01Z</time>
      </trkpt>
      <trkpt lat="45.2107" lon="4.70427">
        <ele>261</ele>
        <time>2021-09-17T13:48:06Z</time>
      </trkpt>
      <trkpt lat="45.21081" lon="4.70411">
        <ele>262.20001220703</ele>
        <time>2021-09-17T13:48:19Z</time>
      </trkpt>
      <trkpt lat="45.21084" lon="4.70408">
        <ele>262.39999389648</ele>
        <time>2021-09-17T13:48:23Z</time>
      </trkpt>
      <trkpt lat="45.21085" lon="4.70415">
        <ele>263</ele>
        <time>2021-09-17T13:48:27Z</time>
      </trkpt>
      <trkpt lat="45.21079" lon="4.70426">
        <ele>264.39999389648</ele>
        <time>2021-09-17T13:48:34Z</time>
      </trkpt>
      <trkpt lat="45.21078" lon="4.70431">
        <ele>265.20001220703</ele>
        <time>2021-09-17T13:48:37Z</time>
      </trkpt>
      <trkpt lat="45.21075" lon="4.70445">
        <ele>268.20001220703</ele>
        <time>2021-09-17T13:48:47Z</time>
      </trkpt>
      <trkpt lat="45.21075" lon="4.70451">
        <ele>269.20001220703</ele>
        <time>2021-09-17T13:48:50Z</time>
      </trkpt>
      <trkpt lat="45.21074" lon="4.70459">
        <ele>271.20001220703</ele>
        <time>2021-09-17T13:48:55Z</time>
      </trkpt>
      <trkpt lat="45.21071" lon="4.70466">
        <ele>273.20001220703</ele>
        <time>2021-09-17T13:48:59Z</time>
      </trkpt>
      <trkpt lat="45.2107" lon="4.70467">
        <ele>273.20001220703</ele>
        <time>2021-09-17T13:49:00Z</time>
      </trkpt>
      <trkpt lat="45.21073" lon="4.70469">
        <ele>273.79998779297</ele>
        <time>2021-09-17T13:49:04Z</time>
      </trkpt>
      <trkpt lat="45.21079" lon="4.70461">
        <ele>274.60000610352</ele>
        <time>2021-09-17T13:49:10Z</time>
      </trkpt>
      <trkpt lat="45.21098" lon="4.70434">
        <ele>275</ele>
        <time>2021-09-17T13:49:23Z</time>
      </trkpt>
      <trkpt lat="45.2113" lon="4.70385">
        <ele>275.60000610352</ele>
        <time>2021-09-17T13:49:41Z</time>
      </trkpt>
      <trkpt lat="45.21167" lon="4.70325">
        <ele>276.60000610352</ele>
        <time>2021-09-17T13:50:01Z</time>
      </trkpt>
      <trkpt lat="45.21171" lon="4.70317">
        <ele>276.60000610352</ele>
        <time>2021-09-17T13:50:03Z</time>
      </trkpt>
      <trkpt lat="45.21197" lon="4.7026">
        <ele>277.20001220703</ele>
        <time>2021-09-17T13:50:17Z</time>
      </trkpt>
      <trkpt lat="45.21199" lon="4.70238">
        <ele>277.20001220703</ele>
        <time>2021-09-17T13:50:21Z</time>
      </trkpt>
      <trkpt lat="45.21201" lon="4.70225">
        <ele>277.20001220703</ele>
        <time>2021-09-17T13:50:23Z</time>
      </trkpt>
      <trkpt lat="45.21207" lon="4.70188">
        <ele>277.79998779297</ele>
        <time>2021-09-17T13:50:31Z</time>
      </trkpt>
      <trkpt lat="45.21237" lon="4.70149">
        <ele>277.79998779297</ele>
        <time>2021-09-17T13:50:42Z</time>
      </trkpt>
      <trkpt lat="45.21262" lon="4.70129">
        <ele>277.79998779297</ele>
        <time>2021-09-17T13:50:48Z</time>
      </trkpt>
      <trkpt lat="45.21293" lon="4.70116">
        <ele>277.79998779297</ele>
        <time>2021-09-17T13:50:55Z</time>
      </trkpt>
      <trkpt lat="45.21323" lon="4.70114">
        <ele>277.79998779297</ele>
        <time>2021-09-17T13:51:02Z</time>
      </trkpt>
      <trkpt lat="45.21327" lon="4.70113">
        <ele>277.79998779297</ele>
        <time>2021-09-17T13:51:03Z</time>
      </trkpt>
      <trkpt lat="45.21343" lon="4.70113">
        <ele>277.79998779297</ele>
        <time>2021-09-17T13:51:07Z</time>
      </trkpt>
      <trkpt lat="45.21356" lon="4.70117">
        <ele>277.79998779297</ele>
        <time>2021-09-17T13:51:10Z</time>
      </trkpt>
      <trkpt lat="45.21392" lon="4.70132">
        <ele>278.20001220703</ele>
        <time>2021-09-17T13:51:21Z</time>
      </trkpt>
      <trkpt lat="45.21406" lon="4.70129">
        <ele>278.20001220703</ele>
        <time>2021-09-17T13:51:24Z</time>
      </trkpt>
      <trkpt lat="45.21424" lon="4.70123">
        <ele>279</ele>
        <time>2021-09-17T13:51:28Z</time>
      </trkpt>
      <trkpt lat="45.21462" lon="4.70088">
        <ele>280.20001220703</ele>
        <time>2021-09-17T13:51:40Z</time>
      </trkpt>
      <trkpt lat="45.21497" lon="4.70022">
        <ele>281.79998779297</ele>
        <time>2021-09-17T13:51:57Z</time>
      </trkpt>
      <trkpt lat="45.2153" lon="4.69954">
        <ele>282</ele>
        <time>2021-09-17T13:52:16Z</time>
      </trkpt>
      <trkpt lat="45.2157" lon="4.69895">
        <ele>282.60000610352</ele>
        <time>2021-09-17T13:52:34Z</time>
      </trkpt>
      <trkpt lat="45.21585" lon="4.6987">
        <ele>283</ele>
        <time>2021-09-17T13:52:40Z</time>
      </trkpt>
      <trkpt lat="45.21653" lon="4.69845">
        <ele>283</ele>
        <time>2021-09-17T13:52:58Z</time>
      </trkpt>
      <trkpt lat="45.21657" lon="4.69845">
        <ele>283</ele>
        <time>2021-09-17T13:52:59Z</time>
      </trkpt>
      <trkpt lat="45.21709" lon="4.69861">
        <ele>283.20001220703</ele>
        <time>2021-09-17T13:53:16Z</time>
      </trkpt>
      <trkpt lat="45.21738" lon="4.69875">
        <ele>283.79998779297</ele>
        <time>2021-09-17T13:53:27Z</time>
      </trkpt>
      <trkpt lat="45.21742" lon="4.69879">
        <ele>284</ele>
        <time>2021-09-17T13:53:40Z</time>
      </trkpt>
      <trkpt lat="45.21747" lon="4.69877">
        <ele>284.20001220703</ele>
        <time>2021-09-17T13:54:42Z</time>
      </trkpt>
      <trkpt lat="45.21766" lon="4.69877">
        <ele>284.60000610352</ele>
        <time>2021-09-17T13:54:47Z</time>
      </trkpt>
      <trkpt lat="45.21775" lon="4.6988">
        <ele>284.60000610352</ele>
        <time>2021-09-17T13:54:49Z</time>
      </trkpt>
      <trkpt lat="45.21825" lon="4.699">
        <ele>285</ele>
        <time>2021-09-17T13:54:59Z</time>
      </trkpt>
      <trkpt lat="45.21849" lon="4.69908">
        <ele>285.60000610352</ele>
        <time>2021-09-17T13:55:04Z</time>
      </trkpt>
      <trkpt lat="45.21868" lon="4.69911">
        <ele>285.79998779297</ele>
        <time>2021-09-17T13:55:07Z</time>
      </trkpt>
      <trkpt lat="45.21892" lon="4.6994">
        <ele>286.39999389648</ele>
        <time>2021-09-17T13:55:13Z</time>
      </trkpt>
      <trkpt lat="45.21895" lon="4.69946">
        <ele>286.60000610352</ele>
        <time>2021-09-17T13:55:14Z</time>
      </trkpt>
      <trkpt lat="45.21913" lon="4.69991">
        <ele>286.79998779297</ele>
        <time>2021-09-17T13:55:21Z</time>
      </trkpt>
      <trkpt lat="45.21923" lon="4.70037">
        <ele>287.60000610352</ele>
        <time>2021-09-17T13:55:30Z</time>
      </trkpt>
      <trkpt lat="45.21937" lon="4.70077">
        <ele>288</ele>
        <time>2021-09-17T13:55:41Z</time>
      </trkpt>
      <trkpt lat="45.21955" lon="4.70102">
        <ele>288.39999389648</ele>
        <time>2021-09-17T13:55:50Z</time>
      </trkpt>
      <trkpt lat="45.21955" lon="4.70102">
        <ele>288.79998779297</ele>
        <time>2021-09-17T13:56:38Z</time>
      </trkpt>
      <trkpt lat="45.21957" lon="4.70102">
        <ele>288.79998779297</ele>
        <time>2021-09-17T13:58:11Z</time>
      </trkpt>
      <trkpt lat="45.21958" lon="4.70102">
        <ele>288.60000610352</ele>
        <time>2021-09-17T14:00:46Z</time>
      </trkpt>
      <trkpt lat="45.21959" lon="4.701">
        <ele>288.79998779297</ele>
        <time>2021-09-17T14:06:11Z</time>
      </trkpt>
      <trkpt lat="45.21969" lon="4.70118">
        <ele>289.39999389648</ele>
        <time>2021-09-17T14:07:06Z</time>
      </trkpt>
      <trkpt lat="45.21974" lon="4.70123">
        <ele>289.79998779297</ele>
        <time>2021-09-17T14:07:09Z</time>
      </trkpt>
      <trkpt lat="45.21977" lon="4.70138">
        <ele>290.79998779297</ele>
        <time>2021-09-17T14:07:15Z</time>
      </trkpt>
      <trkpt lat="45.2198" lon="4.70145">
        <ele>291.20001220703</ele>
        <time>2021-09-17T14:07:18Z</time>
      </trkpt>
      <trkpt lat="45.21986" lon="4.70157">
        <ele>292.79998779297</ele>
        <time>2021-09-17T14:07:27Z</time>
      </trkpt>
      <trkpt lat="45.21987" lon="4.70161">
        <ele>293.20001220703</ele>
        <time>2021-09-17T14:07:30Z</time>
      </trkpt>
      <trkpt lat="45.21991" lon="4.70166">
        <ele>294.20001220703</ele>
        <time>2021-09-17T14:07:34Z</time>
      </trkpt>
      <trkpt lat="45.21996" lon="4.70177">
        <ele>295.60000610352</ele>
        <time>2021-09-17T14:07:44Z</time>
      </trkpt>
      <trkpt lat="45.22007" lon="4.70198">
        <ele>297</ele>
        <time>2021-09-17T14:07:54Z</time>
      </trkpt>
      <trkpt lat="45.22008" lon="4.702">
        <ele>297</ele>
        <time>2021-09-17T14:07:55Z</time>
      </trkpt>
      <trkpt lat="45.22014" lon="4.70213">
        <ele>298.79998779297</ele>
        <time>2021-09-17T14:08:05Z</time>
      </trkpt>
      <trkpt lat="45.22028" lon="4.70224">
        <ele>300</ele>
        <time>2021-09-17T14:08:14Z</time>
      </trkpt>
      <trkpt lat="45.2204" lon="4.70227">
        <ele>301.39999389648</ele>
        <time>2021-09-17T14:08:22Z</time>
      </trkpt>
      <trkpt lat="45.2205" lon="4.70224">
        <ele>302.39999389648</ele>
        <time>2021-09-17T14:08:27Z</time>
      </trkpt>
      <trkpt lat="45.22059" lon="4.70221">
        <ele>303.39999389648</ele>
        <time>2021-09-17T14:08:32Z</time>
      </trkpt>
      <trkpt lat="45.22069" lon="4.70222">
        <ele>305.20001220703</ele>
        <time>2021-09-17T14:08:39Z</time>
      </trkpt>
      <trkpt lat="45.22083" lon="4.70237">
        <ele>308.20001220703</ele>
        <time>2021-09-17T14:08:52Z</time>
      </trkpt>
      <trkpt lat="45.22092" lon="4.70256">
        <ele>311.20001220703</ele>
        <time>2021-09-17T14:09:05Z</time>
      </trkpt>
      <trkpt lat="45.221" lon="4.70273">
        <ele>313.20001220703</ele>
        <time>2021-09-17T14:09:17Z</time>
      </trkpt>
      <trkpt lat="45.22109" lon="4.70298">
        <ele>315.79998779297</ele>
        <time>2021-09-17T14:09:30Z</time>
      </trkpt>
      <trkpt lat="45.22113" lon="4.70305">
        <ele>316.20001220703</ele>
        <time>2021-09-17T14:09:34Z</time>
      </trkpt>
      <trkpt lat="45.22123" lon="4.70321">
        <ele>318.39999389648</ele>
        <time>2021-09-17T14:09:44Z</time>
      </trkpt>
      <trkpt lat="45.22136" lon="4.70338">
        <ele>320.60000610352</ele>
        <time>2021-09-17T14:09:57Z</time>
      </trkpt>
      <trkpt lat="45.22151" lon="4.70356">
        <ele>323</ele>
        <time>2021-09-17T14:10:11Z</time>
      </trkpt>
      <trkpt lat="45.22161" lon="4.7037">
        <ele>324.60000610352</ele>
        <time>2021-09-17T14:10:22Z</time>
      </trkpt>
      <trkpt lat="45.22175" lon="4.70389">
        <ele>327.20001220703</ele>
        <time>2021-09-17T14:10:36Z</time>
      </trkpt>
      <trkpt lat="45.2219" lon="4.70403">
        <ele>329.39999389648</ele>
        <time>2021-09-17T14:10:48Z</time>
      </trkpt>
      <trkpt lat="45.22202" lon="4.70419">
        <ele>331.79998779297</ele>
        <time>2021-09-17T14:11:01Z</time>
      </trkpt>
      <trkpt lat="45.22213" lon="4.70444">
        <ele>333.60000610352</ele>
        <time>2021-09-17T14:11:16Z</time>
      </trkpt>
      <trkpt lat="45.2222" lon="4.70468">
        <ele>336</ele>
        <time>2021-09-17T14:11:29Z</time>
      </trkpt>
      <trkpt lat="45.22231" lon="4.70492">
        <ele>337.79998779297</ele>
        <time>2021-09-17T14:11:40Z</time>
      </trkpt>
      <trkpt lat="45.22235" lon="4.70504">
        <ele>339</ele>
        <time>2021-09-17T14:11:45Z</time>
      </trkpt>
      <trkpt lat="45.22248" lon="4.70537">
        <ele>340.39999389648</ele>
        <time>2021-09-17T14:11:59Z</time>
      </trkpt>
      <trkpt lat="45.2227" lon="4.70536">
        <ele>342.20001220703</ele>
        <time>2021-09-17T14:12:12Z</time>
      </trkpt>
      <trkpt lat="45.22286" lon="4.70543">
        <ele>345.20001220703</ele>
        <time>2021-09-17T14:12:24Z</time>
      </trkpt>
      <trkpt lat="45.22304" lon="4.7056">
        <ele>348</ele>
        <time>2021-09-17T14:12:38Z</time>
      </trkpt>
      <trkpt lat="45.22316" lon="4.70582">
        <ele>350.20001220703</ele>
        <time>2021-09-17T14:12:52Z</time>
      </trkpt>
      <trkpt lat="45.2233" lon="4.70619">
        <ele>352.39999389648</ele>
        <time>2021-09-17T14:13:08Z</time>
      </trkpt>
      <trkpt lat="45.22311" lon="4.70646">
        <ele>353.79998779297</ele>
        <time>2021-09-17T14:13:22Z</time>
      </trkpt>
      <trkpt lat="45.2228" lon="4.70672">
        <ele>355.20001220703</ele>
        <time>2021-09-17T14:13:41Z</time>
      </trkpt>
      <trkpt lat="45.22261" lon="4.70678">
        <ele>356.60000610352</ele>
        <time>2021-09-17T14:13:51Z</time>
      </trkpt>
      <trkpt lat="45.22237" lon="4.70667">
        <ele>358.79998779297</ele>
        <time>2021-09-17T14:14:04Z</time>
      </trkpt>
      <trkpt lat="45.22213" lon="4.70663">
        <ele>361.20001220703</ele>
        <time>2021-09-17T14:14:17Z</time>
      </trkpt>
      <trkpt lat="45.22192" lon="4.70667">
        <ele>363.20001220703</ele>
        <time>2021-09-17T14:14:28Z</time>
      </trkpt>
      <trkpt lat="45.22164" lon="4.70658">
        <ele>365.60000610352</ele>
        <time>2021-09-17T14:14:43Z</time>
      </trkpt>
      <trkpt lat="45.22154" lon="4.70648">
        <ele>367</ele>
        <time>2021-09-17T14:14:50Z</time>
      </trkpt>
      <trkpt lat="45.22151" lon="4.70652">
        <ele>368.20001220703</ele>
        <time>2021-09-17T14:14:57Z</time>
      </trkpt>
      <trkpt lat="45.22146" lon="4.70661">
        <ele>369.39999389648</ele>
        <time>2021-09-17T14:15:03Z</time>
      </trkpt>
      <trkpt lat="45.2214" lon="4.70675">
        <ele>371</ele>
        <time>2021-09-17T14:15:11Z</time>
      </trkpt>
      <trkpt lat="45.22139" lon="4.70678">
        <ele>371.39999389648</ele>
        <time>2021-09-17T14:15:12Z</time>
      </trkpt>
      <trkpt lat="45.2214" lon="4.7069">
        <ele>372.79998779297</ele>
        <time>2021-09-17T14:15:17Z</time>
      </trkpt>
      <trkpt lat="45.22132" lon="4.70701">
        <ele>373.39999389648</ele>
        <time>2021-09-17T14:15:21Z</time>
      </trkpt>
      <trkpt lat="45.22129" lon="4.70715">
        <ele>374.39999389648</ele>
        <time>2021-09-17T14:15:27Z</time>
      </trkpt>
      <trkpt lat="45.22129" lon="4.70724">
        <ele>375.60000610352</ele>
        <time>2021-09-17T14:15:32Z</time>
      </trkpt>
      <trkpt lat="45.22129" lon="4.70742">
        <ele>377</ele>
        <time>2021-09-17T14:15:39Z</time>
      </trkpt>
      <trkpt lat="45.22128" lon="4.70748">
        <ele>377.79998779297</ele>
        <time>2021-09-17T14:15:42Z</time>
      </trkpt>
      <trkpt lat="45.22115" lon="4.70768">
        <ele>380.20001220703</ele>
        <time>2021-09-17T14:15:54Z</time>
      </trkpt>
      <trkpt lat="45.22098" lon="4.70782">
        <ele>382.39999389648</ele>
        <time>2021-09-17T14:16:05Z</time>
      </trkpt>
      <trkpt lat="45.22074" lon="4.70799">
        <ele>383.79998779297</ele>
        <time>2021-09-17T14:16:19Z</time>
      </trkpt>
      <trkpt lat="45.22053" lon="4.70811">
        <ele>385.60000610352</ele>
        <time>2021-09-17T14:16:31Z</time>
      </trkpt>
      <trkpt lat="45.22032" lon="4.70824">
        <ele>387.60000610352</ele>
        <time>2021-09-17T14:16:42Z</time>
      </trkpt>
      <trkpt lat="45.22009" lon="4.70843">
        <ele>389.79998779297</ele>
        <time>2021-09-17T14:16:54Z</time>
      </trkpt>
      <trkpt lat="45.21987" lon="4.70861">
        <ele>391.60000610352</ele>
        <time>2021-09-17T14:17:06Z</time>
      </trkpt>
      <trkpt lat="45.21963" lon="4.70879">
        <ele>393</ele>
        <time>2021-09-17T14:17:19Z</time>
      </trkpt>
      <trkpt lat="45.21946" lon="4.70894">
        <ele>396</ele>
        <time>2021-09-17T14:17:29Z</time>
      </trkpt>
      <trkpt lat="45.21933" lon="4.70906">
        <ele>398</ele>
        <time>2021-09-17T14:17:40Z</time>
      </trkpt>
      <trkpt lat="45.21938" lon="4.70939">
        <ele>399.60000610352</ele>
        <time>2021-09-17T14:17:52Z</time>
      </trkpt>
      <trkpt lat="45.21942" lon="4.70989">
        <ele>400</ele>
        <time>2021-09-17T14:18:05Z</time>
      </trkpt>
      <trkpt lat="45.21945" lon="4.71065">
        <ele>400.79998779297</ele>
        <time>2021-09-17T14:18:25Z</time>
      </trkpt>
      <trkpt lat="45.2195" lon="4.71075">
        <ele>401.60000610352</ele>
        <time>2021-09-17T14:18:29Z</time>
      </trkpt>
      <trkpt lat="45.21966" lon="4.71095">
        <ele>402</ele>
        <time>2021-09-17T14:18:38Z</time>
      </trkpt>
      <trkpt lat="45.21974" lon="4.71122">
        <ele>403</ele>
        <time>2021-09-17T14:18:47Z</time>
      </trkpt>
      <trkpt lat="45.21992" lon="4.71131">
        <ele>404.20001220703</ele>
        <time>2021-09-17T14:18:56Z</time>
      </trkpt>
      <trkpt lat="45.22015" lon="4.71138">
        <ele>406.60000610352</ele>
        <time>2021-09-17T14:19:09Z</time>
      </trkpt>
      <trkpt lat="45.22038" lon="4.71147">
        <ele>409.60000610352</ele>
        <time>2021-09-17T14:19:24Z</time>
      </trkpt>
      <trkpt lat="45.22058" lon="4.71153">
        <ele>412.60000610352</ele>
        <time>2021-09-17T14:19:38Z</time>
      </trkpt>
      <trkpt lat="45.2207" lon="4.71162">
        <ele>415.60000610352</ele>
        <time>2021-09-17T14:19:49Z</time>
      </trkpt>
      <trkpt lat="45.22071" lon="4.71165">
        <ele>415.79998779297</ele>
        <time>2021-09-17T14:19:51Z</time>
      </trkpt>
      <trkpt lat="45.22068" lon="4.71172">
        <ele>416.39999389648</ele>
        <time>2021-09-17T14:20:24Z</time>
      </trkpt>
      <trkpt lat="45.22061" lon="4.71174">
        <ele>416.39999389648</ele>
        <time>2021-09-17T14:20:34Z</time>
      </trkpt>
      <trkpt lat="45.22061" lon="4.71174">
        <ele>416</ele>
        <time>2021-09-17T14:21:44Z</time>
      </trkpt>
      <trkpt lat="45.22043" lon="4.71197">
        <ele>417.79998779297</ele>
        <time>2021-09-17T14:21:57Z</time>
      </trkpt>
      <trkpt lat="45.2204" lon="4.71201">
        <ele>418</ele>
        <time>2021-09-17T14:21:59Z</time>
      </trkpt>
      <trkpt lat="45.22032" lon="4.71217">
        <ele>419</ele>
        <time>2021-09-17T14:22:08Z</time>
      </trkpt>
      <trkpt lat="45.22025" lon="4.71221">
        <ele>418.79998779297</ele>
        <time>2021-09-17T14:22:12Z</time>
      </trkpt>
      <trkpt lat="45.21983" lon="4.71252">
        <ele>418.20001220703</ele>
        <time>2021-09-17T14:22:27Z</time>
      </trkpt>
      <trkpt lat="45.21937" lon="4.71315">
        <ele>416.39999389648</ele>
        <time>2021-09-17T14:22:38Z</time>
      </trkpt>
      <trkpt lat="45.2193" lon="4.71327">
        <ele>416.20001220703</ele>
        <time>2021-09-17T14:22:40Z</time>
      </trkpt>
      <trkpt lat="45.21927" lon="4.71331">
        <ele>414.60000610352</ele>
        <time>2021-09-17T14:22:42Z</time>
      </trkpt>
      <trkpt lat="45.21925" lon="4.71346">
        <ele>411.39999389648</ele>
        <time>2021-09-17T14:22:48Z</time>
      </trkpt>
      <trkpt lat="45.21924" lon="4.71349">
        <ele>411.20001220703</ele>
        <time>2021-09-17T14:22:49Z</time>
      </trkpt>
      <trkpt lat="45.21916" lon="4.71423">
        <ele>410.20001220703</ele>
        <time>2021-09-17T14:23:04Z</time>
      </trkpt>
      <trkpt lat="45.21927" lon="4.71518">
        <ele>408.39999389648</ele>
        <time>2021-09-17T14:23:26Z</time>
      </trkpt>
      <trkpt lat="45.22005" lon="4.71563">
        <ele>410</ele>
        <time>2021-09-17T14:23:48Z</time>
      </trkpt>
      <trkpt lat="45.22042" lon="4.71593">
        <ele>410</ele>
        <time>2021-09-17T14:23:57Z</time>
      </trkpt>
      <trkpt lat="45.22174" lon="4.71663">
        <ele>411.60000610352</ele>
        <time>2021-09-17T14:24:29Z</time>
      </trkpt>
      <trkpt lat="45.22178" lon="4.71664">
        <ele>411.79998779297</ele>
        <time>2021-09-17T14:24:30Z</time>
      </trkpt>
      <trkpt lat="45.22227" lon="4.71669">
        <ele>412.60000610352</ele>
        <time>2021-09-17T14:24:45Z</time>
      </trkpt>
      <trkpt lat="45.22243" lon="4.71672">
        <ele>412.60000610352</ele>
        <time>2021-09-17T14:24:50Z</time>
      </trkpt>
      <trkpt lat="45.22304" lon="4.71693">
        <ele>412.39999389648</ele>
        <time>2021-09-17T14:25:02Z</time>
      </trkpt>
      <trkpt lat="45.22387" lon="4.71751">
        <ele>409.20001220703</ele>
        <time>2021-09-17T14:25:16Z</time>
      </trkpt>
      <trkpt lat="45.22468" lon="4.71804">
        <ele>406.20001220703</ele>
        <time>2021-09-17T14:25:32Z</time>
      </trkpt>
      <trkpt lat="45.22477" lon="4.71808">
        <ele>406</ele>
        <time>2021-09-17T14:25:34Z</time>
      </trkpt>
      <trkpt lat="45.22505" lon="4.71791">
        <ele>405.39999389648</ele>
        <time>2021-09-17T14:25:41Z</time>
      </trkpt>
      <trkpt lat="45.22535" lon="4.71792">
        <ele>405.20001220703</ele>
        <time>2021-09-17T14:25:48Z</time>
      </trkpt>
      <trkpt lat="45.22546" lon="4.71796">
        <ele>405.20001220703</ele>
        <time>2021-09-17T14:25:51Z</time>
      </trkpt>
      <trkpt lat="45.22584" lon="4.71814">
        <ele>406.20001220703</ele>
        <time>2021-09-17T14:26:00Z</time>
      </trkpt>
      <trkpt lat="45.22628" lon="4.7183">
        <ele>405.79998779297</ele>
        <time>2021-09-17T14:26:09Z</time>
      </trkpt>
      <trkpt lat="45.22657" lon="4.71847">
        <ele>405.20001220703</ele>
        <time>2021-09-17T14:26:15Z</time>
      </trkpt>
      <trkpt lat="45.22682" lon="4.71881">
        <ele>405.20001220703</ele>
        <time>2021-09-17T14:26:21Z</time>
      </trkpt>
      <trkpt lat="45.22704" lon="4.71892">
        <ele>402.39999389648</ele>
        <time>2021-09-17T14:26:28Z</time>
      </trkpt>
      <trkpt lat="45.2274" lon="4.71913">
        <ele>401.20001220703</ele>
        <time>2021-09-17T14:26:36Z</time>
      </trkpt>
      <trkpt lat="45.22845" lon="4.71991">
        <ele>401.20001220703</ele>
        <time>2021-09-17T14:27:00Z</time>
      </trkpt>
      <trkpt lat="45.22882" lon="4.72018">
        <ele>402</ele>
        <time>2021-09-17T14:27:10Z</time>
      </trkpt>
      <trkpt lat="45.22891" lon="4.72024">
        <ele>402.39999389648</ele>
        <time>2021-09-17T14:27:12Z</time>
      </trkpt>
      <trkpt lat="45.22895" lon="4.72027">
        <ele>402.60000610352</ele>
        <time>2021-09-17T14:27:13Z</time>
      </trkpt>
      <trkpt lat="45.22912" lon="4.72037">
        <ele>402.20001220703</ele>
        <time>2021-09-17T14:27:17Z</time>
      </trkpt>
      <trkpt lat="45.22935" lon="4.72059">
        <ele>402</ele>
        <time>2021-09-17T14:27:23Z</time>
      </trkpt>
      <trkpt lat="45.22956" lon="4.72079">
        <ele>401.39999389648</ele>
        <time>2021-09-17T14:27:28Z</time>
      </trkpt>
      <trkpt lat="45.2296" lon="4.72084">
        <ele>401.39999389648</ele>
        <time>2021-09-17T14:27:29Z</time>
      </trkpt>
      <trkpt lat="45.2299" lon="4.72121">
        <ele>401</ele>
        <time>2021-09-17T14:27:36Z</time>
      </trkpt>
      <trkpt lat="45.2308" lon="4.72194">
        <ele>399</ele>
        <time>2021-09-17T14:27:54Z</time>
      </trkpt>
      <trkpt lat="45.23149" lon="4.72242">
        <ele>396.39999389648</ele>
        <time>2021-09-17T14:28:09Z</time>
      </trkpt>
      <trkpt lat="45.23169" lon="4.72254">
        <ele>395.79998779297</ele>
        <time>2021-09-17T14:28:21Z</time>
      </trkpt>
      <trkpt lat="45.23185" lon="4.72268">
        <ele>395.79998779297</ele>
        <time>2021-09-17T14:28:36Z</time>
      </trkpt>
      <trkpt lat="45.23187" lon="4.72267">
        <ele>395.60000610352</ele>
        <time>2021-09-17T14:28:38Z</time>
      </trkpt>
      <trkpt lat="45.23181" lon="4.72262">
        <ele>395.39999389648</ele>
        <time>2021-09-17T14:28:44Z</time>
      </trkpt>
      <trkpt lat="45.2316" lon="4.72242">
        <ele>395.60000610352</ele>
        <time>2021-09-17T14:28:58Z</time>
      </trkpt>
      <trkpt lat="45.23168" lon="4.7223">
        <ele>395.39999389648</ele>
        <time>2021-09-17T14:29:03Z</time>
      </trkpt>
      <trkpt lat="45.23187" lon="4.72178">
        <ele>394</ele>
        <time>2021-09-17T14:29:16Z</time>
      </trkpt>
      <trkpt lat="45.23206" lon="4.72115">
        <ele>394.20001220703</ele>
        <time>2021-09-17T14:29:29Z</time>
      </trkpt>
      <trkpt lat="45.23215" lon="4.72103">
        <ele>394</ele>
        <time>2021-09-17T14:29:34Z</time>
      </trkpt>
      <trkpt lat="45.23238" lon="4.71991">
        <ele>395</ele>
        <time>2021-09-17T14:29:57Z</time>
      </trkpt>
      <trkpt lat="45.23256" lon="4.71847">
        <ele>396.20001220703</ele>
        <time>2021-09-17T14:30:24Z</time>
      </trkpt>
      <trkpt lat="45.23268" lon="4.71731">
        <ele>397</ele>
        <time>2021-09-17T14:30:45Z</time>
      </trkpt>
      <trkpt lat="45.2327" lon="4.71712">
        <ele>397.20001220703</ele>
        <time>2021-09-17T14:30:48Z</time>
      </trkpt>
      <trkpt lat="45.23277" lon="4.71609">
        <ele>397.39999389648</ele>
        <time>2021-09-17T14:31:04Z</time>
      </trkpt>
      <trkpt lat="45.23288" lon="4.71519">
        <ele>397.60000610352</ele>
        <time>2021-09-17T14:31:18Z</time>
      </trkpt>
      <trkpt lat="45.23309" lon="4.71296">
        <ele>397</ele>
        <time>2021-09-17T14:31:51Z</time>
      </trkpt>
      <trkpt lat="45.2331" lon="4.71268">
        <ele>397.20001220703</ele>
        <time>2021-09-17T14:31:57Z</time>
      </trkpt>
      <trkpt lat="45.23299" lon="4.71235">
        <ele>398</ele>
        <time>2021-09-17T14:32:06Z</time>
      </trkpt>
      <trkpt lat="45.23314" lon="4.7117">
        <ele>399.39999389648</ele>
        <time>2021-09-17T14:32:22Z</time>
      </trkpt>
      <trkpt lat="45.2331" lon="4.71094">
        <ele>400.39999389648</ele>
        <time>2021-09-17T14:32:38Z</time>
      </trkpt>
      <trkpt lat="45.2331" lon="4.71076">
        <ele>400.39999389648</ele>
        <time>2021-09-17T14:32:41Z</time>
      </trkpt>
      <trkpt lat="45.23313" lon="4.71025">
        <ele>398.79998779297</ele>
        <time>2021-09-17T14:32:50Z</time>
      </trkpt>
      <trkpt lat="45.23315" lon="4.71019">
        <ele>398.60000610352</ele>
        <time>2021-09-17T14:32:51Z</time>
      </trkpt>
      <trkpt lat="45.23324" lon="4.7095">
        <ele>398.60000610352</ele>
        <time>2021-09-17T14:33:02Z</time>
      </trkpt>
      <trkpt lat="45.2333" lon="4.70914">
        <ele>398.20001220703</ele>
        <time>2021-09-17T14:33:08Z</time>
      </trkpt>
      <trkpt lat="45.23344" lon="4.70857">
        <ele>398</ele>
        <time>2021-09-17T14:33:18Z</time>
      </trkpt>
      <trkpt lat="45.23354" lon="4.70792">
        <ele>398.79998779297</ele>
        <time>2021-09-17T14:33:30Z</time>
      </trkpt>
      <trkpt lat="45.23354" lon="4.70784">
        <ele>398.60000610352</ele>
        <time>2021-09-17T14:33:31Z</time>
      </trkpt>
      <trkpt lat="45.23357" lon="4.70753">
        <ele>398.39999389648</ele>
        <time>2021-09-17T14:33:35Z</time>
      </trkpt>
      <trkpt lat="45.23355" lon="4.70724">
        <ele>396.60000610352</ele>
        <time>2021-09-17T14:33:39Z</time>
      </trkpt>
      <trkpt lat="45.23354" lon="4.70693">
        <ele>395.79998779297</ele>
        <time>2021-09-17T14:33:43Z</time>
      </trkpt>
      <trkpt lat="45.23368" lon="4.70672">
        <ele>393.79998779297</ele>
        <time>2021-09-17T14:33:50Z</time>
      </trkpt>
      <trkpt lat="45.2337" lon="4.70672">
        <ele>393.60000610352</ele>
        <time>2021-09-17T14:33:51Z</time>
      </trkpt>
      <trkpt lat="45.234" lon="4.70686">
        <ele>394.79998779297</ele>
        <time>2021-09-17T14:34:05Z</time>
      </trkpt>
      <trkpt lat="45.23381" lon="4.70712">
        <ele>396.20001220703</ele>
        <time>2021-09-17T14:34:19Z</time>
      </trkpt>
      <trkpt lat="45.23366" lon="4.70698">
        <ele>397</ele>
        <time>2021-09-17T14:34:31Z</time>
      </trkpt>
      <trkpt lat="45.2337" lon="4.7067">
        <ele>397.39999389648</ele>
        <time>2021-09-17T14:34:49Z</time>
      </trkpt>
      <trkpt lat="45.2337" lon="4.70663">
        <ele>396.79998779297</ele>
        <time>2021-09-17T14:35:13Z</time>
      </trkpt>
      <trkpt lat="45.23378" lon="4.706">
        <ele>396.20001220703</ele>
        <time>2021-09-17T14:35:26Z</time>
      </trkpt>
      <trkpt lat="45.23384" lon="4.70533">
        <ele>396.39999389648</ele>
        <time>2021-09-17T14:35:38Z</time>
      </trkpt>
      <trkpt lat="45.23384" lon="4.70529">
        <ele>397</ele>
        <time>2021-09-17T14:35:50Z</time>
      </trkpt>
      <trkpt lat="45.23385" lon="4.70521">
        <ele>397</ele>
        <time>2021-09-17T14:35:55Z</time>
      </trkpt>
      <trkpt lat="45.23388" lon="4.70457">
        <ele>397.79998779297</ele>
        <time>2021-09-17T14:36:08Z</time>
      </trkpt>
      <trkpt lat="45.23388" lon="4.70443">
        <ele>397.79998779297</ele>
        <time>2021-09-17T14:36:10Z</time>
      </trkpt>
      <trkpt lat="45.23384" lon="4.70357">
        <ele>397</ele>
        <time>2021-09-17T14:36:22Z</time>
      </trkpt>
      <trkpt lat="45.23372" lon="4.70271">
        <ele>397.20001220703</ele>
        <time>2021-09-17T14:36:35Z</time>
      </trkpt>
      <trkpt lat="45.23368" lon="4.7025">
        <ele>397.20001220703</ele>
        <time>2021-09-17T14:36:38Z</time>
      </trkpt>
      <trkpt lat="45.23361" lon="4.70222">
        <ele>397.20001220703</ele>
        <time>2021-09-17T14:36:42Z</time>
      </trkpt>
      <trkpt lat="45.23316" lon="4.70091">
        <ele>397.39999389648</ele>
        <time>2021-09-17T14:37:04Z</time>
      </trkpt>
      <trkpt lat="45.23311" lon="4.70075">
        <ele>397.60000610352</ele>
        <time>2021-09-17T14:37:07Z</time>
      </trkpt>
      <trkpt lat="45.23305" lon="4.7006">
        <ele>398</ele>
        <time>2021-09-17T14:37:10Z</time>
      </trkpt>
      <trkpt lat="45.23299" lon="4.70046">
        <ele>398.20001220703</ele>
        <time>2021-09-17T14:37:13Z</time>
      </trkpt>
      <trkpt lat="45.2329" lon="4.70017">
        <ele>398.39999389648</ele>
        <time>2021-09-17T14:37:18Z</time>
      </trkpt>
      <trkpt lat="45.23284" lon="4.69994">
        <ele>398.39999389648</ele>
        <time>2021-09-17T14:37:22Z</time>
      </trkpt>
      <trkpt lat="45.23271" lon="4.69961">
        <ele>400.60000610352</ele>
        <time>2021-09-17T14:37:33Z</time>
      </trkpt>
      <trkpt lat="45.23268" lon="4.69946">
        <ele>403.60000610352</ele>
        <time>2021-09-17T14:37:42Z</time>
      </trkpt>
      <trkpt lat="45.23267" lon="4.69928">
        <ele>406</ele>
        <time>2021-09-17T14:37:52Z</time>
      </trkpt>
      <trkpt lat="45.23257" lon="4.69907">
        <ele>407</ele>
        <time>2021-09-17T14:38:01Z</time>
      </trkpt>
      <trkpt lat="45.23257" lon="4.69902">
        <ele>407</ele>
        <time>2021-09-17T14:38:02Z</time>
      </trkpt>
      <trkpt lat="45.23257" lon="4.69889">
        <ele>407</ele>
        <time>2021-09-17T14:38:04Z</time>
      </trkpt>
      <trkpt lat="45.23249" lon="4.69834">
        <ele>404</ele>
        <time>2021-09-17T14:38:11Z</time>
      </trkpt>
      <trkpt lat="45.23248" lon="4.69827">
        <ele>403.20001220703</ele>
        <time>2021-09-17T14:38:12Z</time>
      </trkpt>
      <trkpt lat="45.23248" lon="4.69797">
        <ele>400</ele>
        <time>2021-09-17T14:38:16Z</time>
      </trkpt>
      <trkpt lat="45.23248" lon="4.69714">
        <ele>397.60000610352</ele>
        <time>2021-09-17T14:38:31Z</time>
      </trkpt>
      <trkpt lat="45.23249" lon="4.69691">
        <ele>397.20001220703</ele>
        <time>2021-09-17T14:38:35Z</time>
      </trkpt>
      <trkpt lat="45.23255" lon="4.69603">
        <ele>397.60000610352</ele>
        <time>2021-09-17T14:38:47Z</time>
      </trkpt>
      <trkpt lat="45.23267" lon="4.69538">
        <ele>396</ele>
        <time>2021-09-17T14:38:56Z</time>
      </trkpt>
      <trkpt lat="45.23269" lon="4.69531">
        <ele>396</ele>
        <time>2021-09-17T14:38:57Z</time>
      </trkpt>
      <trkpt lat="45.23275" lon="4.69501">
        <ele>395.60000610352</ele>
        <time>2021-09-17T14:39:02Z</time>
      </trkpt>
      <trkpt lat="45.23283" lon="4.69472">
        <ele>395.39999389648</ele>
        <time>2021-09-17T14:39:07Z</time>
      </trkpt>
      <trkpt lat="45.2332" lon="4.69376">
        <ele>394.79998779297</ele>
        <time>2021-09-17T14:39:22Z</time>
      </trkpt>
      <trkpt lat="45.23326" lon="4.69364">
        <ele>394.60000610352</ele>
        <time>2021-09-17T14:39:24Z</time>
      </trkpt>
      <trkpt lat="45.23398" lon="4.69233">
        <ele>392.60000610352</ele>
        <time>2021-09-17T14:39:46Z</time>
      </trkpt>
      <trkpt lat="45.23482" lon="4.69073">
        <ele>390.39999389648</ele>
        <time>2021-09-17T14:40:11Z</time>
      </trkpt>
      <trkpt lat="45.23485" lon="4.69067">
        <ele>390.20001220703</ele>
        <time>2021-09-17T14:40:12Z</time>
      </trkpt>
      <trkpt lat="45.23503" lon="4.69021">
        <ele>389.79998779297</ele>
        <time>2021-09-17T14:40:20Z</time>
      </trkpt>
      <trkpt lat="45.23507" lon="4.69002">
        <ele>389.79998779297</ele>
        <time>2021-09-17T14:40:24Z</time>
      </trkpt>
      <trkpt lat="45.23508" lon="4.69">
        <ele>389.60000610352</ele>
        <time>2021-09-17T14:40:26Z</time>
      </trkpt>
      <trkpt lat="45.23513" lon="4.68987">
        <ele>389.20001220703</ele>
        <time>2021-09-17T14:40:35Z</time>
      </trkpt>
      <trkpt lat="45.23536" lon="4.68916">
        <ele>388.39999389648</ele>
        <time>2021-09-17T14:40:50Z</time>
      </trkpt>
      <trkpt lat="45.23537" lon="4.68906">
        <ele>387.60000610352</ele>
        <time>2021-09-17T14:40:54Z</time>
      </trkpt>
      <trkpt lat="45.23534" lon="4.68901">
        <ele>387</ele>
        <time>2021-09-17T14:41:02Z</time>
      </trkpt>
      <trkpt lat="45.23542" lon="4.68902">
        <ele>387</ele>
        <time>2021-09-17T14:41:09Z</time>
      </trkpt>
      <trkpt lat="45.2355" lon="4.68864">
        <ele>387.79998779297</ele>
        <time>2021-09-17T14:41:20Z</time>
      </trkpt>
      <trkpt lat="45.23588" lon="4.68751">
        <ele>388.20001220703</ele>
        <time>2021-09-17T14:41:39Z</time>
      </trkpt>
      <trkpt lat="45.23629" lon="4.68608">
        <ele>386.60000610352</ele>
        <time>2021-09-17T14:41:57Z</time>
      </trkpt>
      <trkpt lat="45.23661" lon="4.6851">
        <ele>385.60000610352</ele>
        <time>2021-09-17T14:42:09Z</time>
      </trkpt>
      <trkpt lat="45.23689" lon="4.68447">
        <ele>385.20001220703</ele>
        <time>2021-09-17T14:42:17Z</time>
      </trkpt>
      <trkpt lat="45.23708" lon="4.68404">
        <ele>384.79998779297</ele>
        <time>2021-09-17T14:42:23Z</time>
      </trkpt>
      <trkpt lat="45.23734" lon="4.68355">
        <ele>383.79998779297</ele>
        <time>2021-09-17T14:42:30Z</time>
      </trkpt>
      <trkpt lat="45.23777" lon="4.68265">
        <ele>382</ele>
        <time>2021-09-17T14:42:43Z</time>
      </trkpt>
      <trkpt lat="45.23805" lon="4.68208">
        <ele>380.60000610352</ele>
        <time>2021-09-17T14:42:54Z</time>
      </trkpt>
      <trkpt lat="45.23806" lon="4.68206">
        <ele>380.39999389648</ele>
        <time>2021-09-17T14:42:55Z</time>
      </trkpt>
      <trkpt lat="45.23808" lon="4.68206">
        <ele>379.79998779297</ele>
        <time>2021-09-17T14:43:00Z</time>
      </trkpt>
      <trkpt lat="45.23815" lon="4.68236">
        <ele>378</ele>
        <time>2021-09-17T14:43:10Z</time>
      </trkpt>
      <trkpt lat="45.23818" lon="4.68239">
        <ele>377.60000610352</ele>
        <time>2021-09-17T14:43:11Z</time>
      </trkpt>
      <trkpt lat="45.23833" lon="4.6826">
        <ele>377.20001220703</ele>
        <time>2021-09-17T14:43:22Z</time>
      </trkpt>
      <trkpt lat="45.23842" lon="4.68271">
        <ele>379.20001220703</ele>
        <time>2021-09-17T14:43:32Z</time>
      </trkpt>
      <trkpt lat="45.23849" lon="4.6829">
        <ele>382.39999389648</ele>
        <time>2021-09-17T14:43:42Z</time>
      </trkpt>
      <trkpt lat="45.2385" lon="4.68292">
        <ele>382.39999389648</ele>
        <time>2021-09-17T14:43:43Z</time>
      </trkpt>
      <trkpt lat="45.23862" lon="4.68319">
        <ele>384.39999389648</ele>
        <time>2021-09-17T14:43:56Z</time>
      </trkpt>
      <trkpt lat="45.2387" lon="4.68335">
        <ele>385.79998779297</ele>
        <time>2021-09-17T14:44:08Z</time>
      </trkpt>
      <trkpt lat="45.23879" lon="4.68349">
        <ele>386.39999389648</ele>
        <time>2021-09-17T14:44:20Z</time>
      </trkpt>
      <trkpt lat="45.2388" lon="4.6835">
        <ele>386.39999389648</ele>
        <time>2021-09-17T14:44:21Z</time>
      </trkpt>
      <trkpt lat="45.23879" lon="4.68344">
        <ele>386.39999389648</ele>
        <time>2021-09-17T14:44:24Z</time>
      </trkpt>
      <trkpt lat="45.2385" lon="4.68287">
        <ele>386.20001220703</ele>
        <time>2021-09-17T14:44:35Z</time>
      </trkpt>
      <trkpt lat="45.23827" lon="4.6825">
        <ele>383.20001220703</ele>
        <time>2021-09-17T14:44:41Z</time>
      </trkpt>
      <trkpt lat="45.23816" lon="4.68237">
        <ele>381</ele>
        <time>2021-09-17T14:44:44Z</time>
      </trkpt>
      <trkpt lat="45.23823" lon="4.68238">
        <ele>376.79998779297</ele>
        <time>2021-09-17T14:44:48Z</time>
      </trkpt>
      <trkpt lat="45.2383" lon="4.6824">
        <ele>375</ele>
        <time>2021-09-17T14:44:50Z</time>
      </trkpt>
      <trkpt lat="45.23832" lon="4.68234">
        <ele>373.60000610352</ele>
        <time>2021-09-17T14:44:53Z</time>
      </trkpt>
      <trkpt lat="45.2378" lon="4.68162">
        <ele>364.20001220703</ele>
        <time>2021-09-17T14:45:08Z</time>
      </trkpt>
      <trkpt lat="45.23769" lon="4.68134">
        <ele>363</ele>
        <time>2021-09-17T14:45:10Z</time>
      </trkpt>
      <trkpt lat="45.23751" lon="4.68098">
        <ele>361.20001220703</ele>
        <time>2021-09-17T14:45:14Z</time>
      </trkpt>
      <trkpt lat="45.23748" lon="4.6809">
        <ele>360.60000610352</ele>
        <time>2021-09-17T14:45:15Z</time>
      </trkpt>
      <trkpt lat="45.23741" lon="4.68059">
        <ele>358.60000610352</ele>
        <time>2021-09-17T14:45:20Z</time>
      </trkpt>
      <trkpt lat="45.23735" lon="4.68033">
        <ele>355.60000610352</ele>
        <time>2021-09-17T14:45:24Z</time>
      </trkpt>
      <trkpt lat="45.23723" lon="4.68">
        <ele>352.39999389648</ele>
        <time>2021-09-17T14:45:28Z</time>
      </trkpt>
      <trkpt lat="45.23715" lon="4.67979">
        <ele>348.60000610352</ele>
        <time>2021-09-17T14:45:31Z</time>
      </trkpt>
      <trkpt lat="45.23709" lon="4.67963">
        <ele>344.79998779297</ele>
        <time>2021-09-17T14:45:33Z</time>
      </trkpt>
      <trkpt lat="45.23706" lon="4.67954">
        <ele>343</ele>
        <time>2021-09-17T14:45:34Z</time>
      </trkpt>
      <trkpt lat="45.23701" lon="4.67911">
        <ele>339.20001220703</ele>
        <time>2021-09-17T14:45:38Z</time>
      </trkpt>
      <trkpt lat="45.23699" lon="4.67901">
        <ele>338.79998779297</ele>
        <time>2021-09-17T14:45:39Z</time>
      </trkpt>
      <trkpt lat="45.23693" lon="4.67883">
        <ele>334.79998779297</ele>
        <time>2021-09-17T14:45:41Z</time>
      </trkpt>
      <trkpt lat="45.2368" lon="4.67867">
        <ele>331.20001220703</ele>
        <time>2021-09-17T14:45:43Z</time>
      </trkpt>
      <trkpt lat="45.23651" lon="4.67833">
        <ele>327</ele>
        <time>2021-09-17T14:45:47Z</time>
      </trkpt>
      <trkpt lat="45.2364" lon="4.67822">
        <ele>323.20001220703</ele>
        <time>2021-09-17T14:45:49Z</time>
      </trkpt>
      <trkpt lat="45.23635" lon="4.67817">
        <ele>320.39999389648</ele>
        <time>2021-09-17T14:45:51Z</time>
      </trkpt>
      <trkpt lat="45.23636" lon="4.67809">
        <ele>317.39999389648</ele>
        <time>2021-09-17T14:45:54Z</time>
      </trkpt>
      <trkpt lat="45.23639" lon="4.67798">
        <ele>316.60000610352</ele>
        <time>2021-09-17T14:45:57Z</time>
      </trkpt>
      <trkpt lat="45.23645" lon="4.67792">
        <ele>316.39999389648</ele>
        <time>2021-09-17T14:45:59Z</time>
      </trkpt>
      <trkpt lat="45.237" lon="4.67728">
        <ele>317.20001220703</ele>
        <time>2021-09-17T14:46:18Z</time>
      </trkpt>
      <trkpt lat="45.23748" lon="4.67615">
        <ele>318.39999389648</ele>
        <time>2021-09-17T14:46:40Z</time>
      </trkpt>
      <trkpt lat="45.23772" lon="4.67557">
        <ele>320.79998779297</ele>
        <time>2021-09-17T14:46:53Z</time>
      </trkpt>
      <trkpt lat="45.23801" lon="4.67471">
        <ele>322.79998779297</ele>
        <time>2021-09-17T14:47:10Z</time>
      </trkpt>
      <trkpt lat="45.23813" lon="4.67426">
        <ele>323.79998779297</ele>
        <time>2021-09-17T14:47:21Z</time>
      </trkpt>
      <trkpt lat="45.2382" lon="4.67386">
        <ele>326</ele>
        <time>2021-09-17T14:47:33Z</time>
      </trkpt>
      <trkpt lat="45.23838" lon="4.67347">
        <ele>327.79998779297</ele>
        <time>2021-09-17T14:47:47Z</time>
      </trkpt>
      <trkpt lat="45.23862" lon="4.67327">
        <ele>330.39999389648</ele>
        <time>2021-09-17T14:48:01Z</time>
      </trkpt>
      <trkpt lat="45.23892" lon="4.67305">
        <ele>332.20001220703</ele>
        <time>2021-09-17T14:48:13Z</time>
      </trkpt>
      <trkpt lat="45.23902" lon="4.67298">
        <ele>332.79998779297</ele>
        <time>2021-09-17T14:48:17Z</time>
      </trkpt>
      <trkpt lat="45.23919" lon="4.67302">
        <ele>333.20001220703</ele>
        <time>2021-09-17T14:48:23Z</time>
      </trkpt>
      <trkpt lat="45.23938" lon="4.6729">
        <ele>333.20001220703</ele>
        <time>2021-09-17T14:48:29Z</time>
      </trkpt>
      <trkpt lat="45.23941" lon="4.67288">
        <ele>333.20001220703</ele>
        <time>2021-09-17T14:48:30Z</time>
      </trkpt>
      <trkpt lat="45.23978" lon="4.67248">
        <ele>333.79998779297</ele>
        <time>2021-09-17T14:48:43Z</time>
      </trkpt>
      <trkpt lat="45.23992" lon="4.67245">
        <ele>333.79998779297</ele>
        <time>2021-09-17T14:48:46Z</time>
      </trkpt>
      <trkpt lat="45.24003" lon="4.67232">
        <ele>334.20001220703</ele>
        <time>2021-09-17T14:48:52Z</time>
      </trkpt>
      <trkpt lat="45.24013" lon="4.67233">
        <ele>335</ele>
        <time>2021-09-17T14:48:58Z</time>
      </trkpt>
      <trkpt lat="45.24017" lon="4.67222">
        <ele>335.20001220703</ele>
        <time>2021-09-17T14:49:02Z</time>
      </trkpt>
      <trkpt lat="45.24034" lon="4.67179">
        <ele>335.20001220703</ele>
        <time>2021-09-17T14:49:12Z</time>
      </trkpt>
      <trkpt lat="45.24071" lon="4.67157">
        <ele>336</ele>
        <time>2021-09-17T14:49:22Z</time>
      </trkpt>
      <trkpt lat="45.24086" lon="4.67158">
        <ele>336.20001220703</ele>
        <time>2021-09-17T14:49:25Z</time>
      </trkpt>
      <trkpt lat="45.2411" lon="4.67157">
        <ele>336.39999389648</ele>
        <time>2021-09-17T14:49:30Z</time>
      </trkpt>
      <trkpt lat="45.24143" lon="4.67155">
        <ele>336.39999389648</ele>
        <time>2021-09-17T14:49:37Z</time>
      </trkpt>
      <trkpt lat="45.24147" lon="4.67154">
        <ele>336.39999389648</ele>
        <time>2021-09-17T14:49:38Z</time>
      </trkpt>
      <trkpt lat="45.2419" lon="4.67143">
        <ele>336.60000610352</ele>
        <time>2021-09-17T14:49:48Z</time>
      </trkpt>
      <trkpt lat="45.24196" lon="4.67139">
        <ele>336.60000610352</ele>
        <time>2021-09-17T14:49:50Z</time>
      </trkpt>
      <trkpt lat="45.24211" lon="4.67134">
        <ele>336.79998779297</ele>
        <time>2021-09-17T14:49:54Z</time>
      </trkpt>
      <trkpt lat="45.24253" lon="4.67092">
        <ele>337.60000610352</ele>
        <time>2021-09-17T14:50:04Z</time>
      </trkpt>
      <trkpt lat="45.24261" lon="4.67082">
        <ele>337.79998779297</ele>
        <time>2021-09-17T14:50:06Z</time>
      </trkpt>
      <trkpt lat="45.2427" lon="4.67072">
        <ele>337.79998779297</ele>
        <time>2021-09-17T14:50:08Z</time>
      </trkpt>
      <trkpt lat="45.24291" lon="4.67038">
        <ele>338.20001220703</ele>
        <time>2021-09-17T14:50:14Z</time>
      </trkpt>
      <trkpt lat="45.24297" lon="4.67026">
        <ele>338.20001220703</ele>
        <time>2021-09-17T14:50:16Z</time>
      </trkpt>
      <trkpt lat="45.2431" lon="4.67006">
        <ele>338.39999389648</ele>
        <time>2021-09-17T14:50:20Z</time>
      </trkpt>
      <trkpt lat="45.24325" lon="4.66968">
        <ele>338.60000610352</ele>
        <time>2021-09-17T14:50:29Z</time>
      </trkpt>
      <trkpt lat="45.24325" lon="4.66954">
        <ele>338.79998779297</ele>
        <time>2021-09-17T14:50:32Z</time>
      </trkpt>
      <trkpt lat="45.24335" lon="4.66891">
        <ele>339.20001220703</ele>
        <time>2021-09-17T14:50:46Z</time>
      </trkpt>
      <trkpt lat="45.24343" lon="4.66873">
        <ele>339.79998779297</ele>
        <time>2021-09-17T14:50:51Z</time>
      </trkpt>
      <trkpt lat="45.24368" lon="4.66874">
        <ele>340</ele>
        <time>2021-09-17T14:50:58Z</time>
      </trkpt>
      <trkpt lat="45.24392" lon="4.66875">
        <ele>340</ele>
        <time>2021-09-17T14:51:04Z</time>
      </trkpt>
      <trkpt lat="45.24406" lon="4.66875">
        <ele>340.20001220703</ele>
        <time>2021-09-17T14:51:07Z</time>
      </trkpt>
      <trkpt lat="45.24457" lon="4.66883">
        <ele>341</ele>
        <time>2021-09-17T14:51:19Z</time>
      </trkpt>
      <trkpt lat="45.24459" lon="4.66884">
        <ele>341</ele>
        <time>2021-09-17T14:51:20Z</time>
      </trkpt>
      <trkpt lat="45.24476" lon="4.6689">
        <ele>341</ele>
        <time>2021-09-17T14:51:26Z</time>
      </trkpt>
      <trkpt lat="45.24484" lon="4.66913">
        <ele>341</ele>
        <time>2021-09-17T14:51:31Z</time>
      </trkpt>
      <trkpt lat="45.24494" lon="4.66977">
        <ele>341</ele>
        <time>2021-09-17T14:51:39Z</time>
      </trkpt>
      <trkpt lat="45.24494" lon="4.67052">
        <ele>341.60000610352</ele>
        <time>2021-09-17T14:51:49Z</time>
      </trkpt>
      <trkpt lat="45.24511" lon="4.67121">
        <ele>342.79998779297</ele>
        <time>2021-09-17T14:52:01Z</time>
      </trkpt>
      <trkpt lat="45.24521" lon="4.67144">
        <ele>343.20001220703</ele>
        <time>2021-09-17T14:52:05Z</time>
      </trkpt>
      <trkpt lat="45.24526" lon="4.67154">
        <ele>343.39999389648</ele>
        <time>2021-09-17T14:52:07Z</time>
      </trkpt>
      <trkpt lat="45.24544" lon="4.67178">
        <ele>343.60000610352</ele>
        <time>2021-09-17T14:52:12Z</time>
      </trkpt>
      <trkpt lat="45.24634" lon="4.67291">
        <ele>344</ele>
        <time>2021-09-17T14:52:32Z</time>
      </trkpt>
      <trkpt lat="45.24657" lon="4.67328">
        <ele>344</ele>
        <time>2021-09-17T14:52:37Z</time>
      </trkpt>
      <trkpt lat="45.24681" lon="4.67372">
        <ele>343.79998779297</ele>
        <time>2021-09-17T14:52:43Z</time>
      </trkpt>
      <trkpt lat="45.24691" lon="4.67387">
        <ele>343.79998779297</ele>
        <time>2021-09-17T14:52:45Z</time>
      </trkpt>
      <trkpt lat="45.24706" lon="4.67421">
        <ele>344.20001220703</ele>
        <time>2021-09-17T14:52:50Z</time>
      </trkpt>
      <trkpt lat="45.24714" lon="4.67444">
        <ele>344.39999389648</ele>
        <time>2021-09-17T14:52:54Z</time>
      </trkpt>
      <trkpt lat="45.24732" lon="4.6748">
        <ele>345</ele>
        <time>2021-09-17T14:53:01Z</time>
      </trkpt>
      <trkpt lat="45.24757" lon="4.67524">
        <ele>346.20001220703</ele>
        <time>2021-09-17T14:53:09Z</time>
      </trkpt>
      <trkpt lat="45.24775" lon="4.67556">
        <ele>346.39999389648</ele>
        <time>2021-09-17T14:53:16Z</time>
      </trkpt>
      <trkpt lat="45.24789" lon="4.67583">
        <ele>347.20001220703</ele>
        <time>2021-09-17T14:53:23Z</time>
      </trkpt>
      <trkpt lat="45.24802" lon="4.67616">
        <ele>349</ele>
        <time>2021-09-17T14:53:29Z</time>
      </trkpt>
      <trkpt lat="45.2481" lon="4.67637">
        <ele>349.60000610352</ele>
        <time>2021-09-17T14:53:33Z</time>
      </trkpt>
      <trkpt lat="45.24813" lon="4.67649">
        <ele>349.39999389648</ele>
        <time>2021-09-17T14:53:35Z</time>
      </trkpt>
      <trkpt lat="45.24827" lon="4.67691">
        <ele>350</ele>
        <time>2021-09-17T14:53:44Z</time>
      </trkpt>
      <trkpt lat="45.24829" lon="4.67753">
        <ele>351.20001220703</ele>
        <time>2021-09-17T14:53:56Z</time>
      </trkpt>
      <trkpt lat="45.24824" lon="4.67785">
        <ele>351.20001220703</ele>
        <time>2021-09-17T14:54:01Z</time>
      </trkpt>
      <trkpt lat="45.24821" lon="4.67797">
        <ele>351.20001220703</ele>
        <time>2021-09-17T14:54:03Z</time>
      </trkpt>
      <trkpt lat="45.24827" lon="4.67844">
        <ele>350.79998779297</ele>
        <time>2021-09-17T14:54:10Z</time>
      </trkpt>
      <trkpt lat="45.24833" lon="4.67853">
        <ele>350.60000610352</ele>
        <time>2021-09-17T14:54:12Z</time>
      </trkpt>
      <trkpt lat="45.24854" lon="4.67862">
        <ele>350.79998779297</ele>
        <time>2021-09-17T14:54:18Z</time>
      </trkpt>
      <trkpt lat="45.2491" lon="4.67858">
        <ele>351.39999389648</ele>
        <time>2021-09-17T14:54:30Z</time>
      </trkpt>
      <trkpt lat="45.24944" lon="4.6784">
        <ele>351.79998779297</ele>
        <time>2021-09-17T14:54:35Z</time>
      </trkpt>
      <trkpt lat="45.24957" lon="4.67846">
        <ele>352.20001220703</ele>
        <time>2021-09-17T14:54:39Z</time>
      </trkpt>
      <trkpt lat="45.24972" lon="4.6785">
        <ele>352.39999389648</ele>
        <time>2021-09-17T14:54:42Z</time>
      </trkpt>
      <trkpt lat="45.24989" lon="4.67863">
        <ele>352.79998779297</ele>
        <time>2021-09-17T14:54:46Z</time>
      </trkpt>
      <trkpt lat="45.24996" lon="4.67877">
        <ele>353.79998779297</ele>
        <time>2021-09-17T14:54:51Z</time>
      </trkpt>
      <trkpt lat="45.25003" lon="4.67879">
        <ele>354.60000610352</ele>
        <time>2021-09-17T14:54:55Z</time>
      </trkpt>
      <trkpt lat="45.2504" lon="4.67897">
        <ele>355.20001220703</ele>
        <time>2021-09-17T14:55:06Z</time>
      </trkpt>
      <trkpt lat="45.25053" lon="4.67906">
        <ele>355.20001220703</ele>
        <time>2021-09-17T14:55:10Z</time>
      </trkpt>
      <trkpt lat="45.25075" lon="4.6793">
        <ele>356</ele>
        <time>2021-09-17T14:55:16Z</time>
      </trkpt>
      <trkpt lat="45.25098" lon="4.67947">
        <ele>356.60000610352</ele>
        <time>2021-09-17T14:55:23Z</time>
      </trkpt>
      <trkpt lat="45.25112" lon="4.67958">
        <ele>356.79998779297</ele>
        <time>2021-09-17T14:55:27Z</time>
      </trkpt>
      <trkpt lat="45.25124" lon="4.68002">
        <ele>356.60000610352</ele>
        <time>2021-09-17T14:55:32Z</time>
      </trkpt>
      <trkpt lat="45.25129" lon="4.6802">
        <ele>356.39999389648</ele>
        <time>2021-09-17T14:55:34Z</time>
      </trkpt>
      <trkpt lat="45.25152" lon="4.68065">
        <ele>356.20001220703</ele>
        <time>2021-09-17T14:55:43Z</time>
      </trkpt>
      <trkpt lat="45.2518" lon="4.68083">
        <ele>357</ele>
        <time>2021-09-17T14:55:53Z</time>
      </trkpt>
      <trkpt lat="45.25207" lon="4.68072">
        <ele>357.39999389648</ele>
        <time>2021-09-17T14:56:00Z</time>
      </trkpt>
      <trkpt lat="45.25214" lon="4.68063">
        <ele>357.39999389648</ele>
        <time>2021-09-17T14:56:02Z</time>
      </trkpt>
      <trkpt lat="45.25229" lon="4.68008">
        <ele>358.79998779297</ele>
        <time>2021-09-17T14:56:13Z</time>
      </trkpt>
      <trkpt lat="45.25232" lon="4.67968">
        <ele>361</ele>
        <time>2021-09-17T14:56:23Z</time>
      </trkpt>
      <trkpt lat="45.25235" lon="4.67903">
        <ele>363.39999389648</ele>
        <time>2021-09-17T14:56:38Z</time>
      </trkpt>
      <trkpt lat="45.25243" lon="4.67872">
        <ele>364.79998779297</ele>
        <time>2021-09-17T14:56:47Z</time>
      </trkpt>
      <trkpt lat="45.25264" lon="4.67867">
        <ele>365.79998779297</ele>
        <time>2021-09-17T14:56:57Z</time>
      </trkpt>
      <trkpt lat="45.25281" lon="4.6788">
        <ele>365.79998779297</ele>
        <time>2021-09-17T14:57:03Z</time>
      </trkpt>
      <trkpt lat="45.25292" lon="4.67863">
        <ele>366.20001220703</ele>
        <time>2021-09-17T14:57:07Z</time>
      </trkpt>
      <trkpt lat="45.25306" lon="4.67826">
        <ele>366.39999389648</ele>
        <time>2021-09-17T14:57:14Z</time>
      </trkpt>
      <trkpt lat="45.25315" lon="4.67813">
        <ele>366.39999389648</ele>
        <time>2021-09-17T14:57:17Z</time>
      </trkpt>
      <trkpt lat="45.25339" lon="4.67777">
        <ele>366.20001220703</ele>
        <time>2021-09-17T14:57:24Z</time>
      </trkpt>
      <trkpt lat="45.2537" lon="4.67784">
        <ele>366.39999389648</ele>
        <time>2021-09-17T14:57:31Z</time>
      </trkpt>
      <trkpt lat="45.25382" lon="4.67814">
        <ele>366.60000610352</ele>
        <time>2021-09-17T14:57:36Z</time>
      </trkpt>
      <trkpt lat="45.2538" lon="4.67855">
        <ele>368</ele>
        <time>2021-09-17T14:57:46Z</time>
      </trkpt>
      <trkpt lat="45.25388" lon="4.67927">
        <ele>369.60000610352</ele>
        <time>2021-09-17T14:58:01Z</time>
      </trkpt>
      <trkpt lat="45.25408" lon="4.67966">
        <ele>370.39999389648</ele>
        <time>2021-09-17T14:58:11Z</time>
      </trkpt>
      <trkpt lat="45.25448" lon="4.68012">
        <ele>371.20001220703</ele>
        <time>2021-09-17T14:58:22Z</time>
      </trkpt>
      <trkpt lat="45.25451" lon="4.68018">
        <ele>371.20001220703</ele>
        <time>2021-09-17T14:58:24Z</time>
      </trkpt>
      <trkpt lat="45.25461" lon="4.68029">
        <ele>371.20001220703</ele>
        <time>2021-09-17T14:58:27Z</time>
      </trkpt>
      <trkpt lat="45.25474" lon="4.68043">
        <ele>371.39999389648</ele>
        <time>2021-09-17T14:58:30Z</time>
      </trkpt>
      <trkpt lat="45.25496" lon="4.6808">
        <ele>371.79998779297</ele>
        <time>2021-09-17T14:58:36Z</time>
      </trkpt>
      <trkpt lat="45.25505" lon="4.68096">
        <ele>372</ele>
        <time>2021-09-17T14:58:39Z</time>
      </trkpt>
      <trkpt lat="45.25512" lon="4.68112">
        <ele>372.20001220703</ele>
        <time>2021-09-17T14:58:42Z</time>
      </trkpt>
      <trkpt lat="45.2553" lon="4.68173">
        <ele>372.60000610352</ele>
        <time>2021-09-17T14:58:53Z</time>
      </trkpt>
      <trkpt lat="45.2554" lon="4.6819">
        <ele>373.20001220703</ele>
        <time>2021-09-17T14:58:57Z</time>
      </trkpt>
      <trkpt lat="45.25554" lon="4.68211">
        <ele>374</ele>
        <time>2021-09-17T14:59:02Z</time>
      </trkpt>
      <trkpt lat="45.25581" lon="4.68245">
        <ele>374.60000610352</ele>
        <time>2021-09-17T14:59:10Z</time>
      </trkpt>
      <trkpt lat="45.2564" lon="4.6829">
        <ele>374.60000610352</ele>
        <time>2021-09-17T14:59:23Z</time>
      </trkpt>
      <trkpt lat="45.25685" lon="4.68316">
        <ele>374.60000610352</ele>
        <time>2021-09-17T14:59:31Z</time>
      </trkpt>
      <trkpt lat="45.25702" lon="4.68321">
        <ele>374.79998779297</ele>
        <time>2021-09-17T14:59:35Z</time>
      </trkpt>
      <trkpt lat="45.25708" lon="4.68324">
        <ele>374.79998779297</ele>
        <time>2021-09-17T14:59:36Z</time>
      </trkpt>
      <trkpt lat="45.25743" lon="4.68325">
        <ele>374.79998779297</ele>
        <time>2021-09-17T14:59:42Z</time>
      </trkpt>
      <trkpt lat="45.25755" lon="4.68325">
        <ele>374.79998779297</ele>
        <time>2021-09-17T14:59:44Z</time>
      </trkpt>
      <trkpt lat="45.25802" lon="4.683">
        <ele>374.60000610352</ele>
        <time>2021-09-17T14:59:53Z</time>
      </trkpt>
      <trkpt lat="45.25824" lon="4.68289">
        <ele>376</ele>
        <time>2021-09-17T15:00:02Z</time>
      </trkpt>
      <trkpt lat="45.25827" lon="4.68291">
        <ele>377</ele>
        <time>2021-09-17T15:00:05Z</time>
      </trkpt>
      <trkpt lat="45.25832" lon="4.68299">
        <ele>378.39999389648</ele>
        <time>2021-09-17T15:00:10Z</time>
      </trkpt>
      <trkpt lat="45.2583" lon="4.68312">
        <ele>380.60000610352</ele>
        <time>2021-09-17T15:00:17Z</time>
      </trkpt>
      <trkpt lat="45.25815" lon="4.68329">
        <ele>382.60000610352</ele>
        <time>2021-09-17T15:00:28Z</time>
      </trkpt>
      <trkpt lat="45.25809" lon="4.68333">
        <ele>383.20001220703</ele>
        <time>2021-09-17T15:00:31Z</time>
      </trkpt>
      <trkpt lat="45.2581" lon="4.68341">
        <ele>384.20001220703</ele>
        <time>2021-09-17T15:00:36Z</time>
      </trkpt>
      <trkpt lat="45.25825" lon="4.68346">
        <ele>387</ele>
        <time>2021-09-17T15:00:47Z</time>
      </trkpt>
      <trkpt lat="45.25828" lon="4.68346">
        <ele>387.20001220703</ele>
        <time>2021-09-17T15:00:49Z</time>
      </trkpt>
      <trkpt lat="45.25833" lon="4.68345">
        <ele>388.20001220703</ele>
        <time>2021-09-17T15:00:53Z</time>
      </trkpt>
      <trkpt lat="45.25848" lon="4.68369">
        <ele>391</ele>
        <time>2021-09-17T15:01:07Z</time>
      </trkpt>
      <trkpt lat="45.25859" lon="4.68407">
        <ele>393.39999389648</ele>
        <time>2021-09-17T15:01:22Z</time>
      </trkpt>
      <trkpt lat="45.25871" lon="4.68465">
        <ele>394</ele>
        <time>2021-09-17T15:01:37Z</time>
      </trkpt>
      <trkpt lat="45.25878" lon="4.68509">
        <ele>395.79998779297</ele>
        <time>2021-09-17T15:01:51Z</time>
      </trkpt>
      <trkpt lat="45.2588" lon="4.68548">
        <ele>398.39999389648</ele>
        <time>2021-09-17T15:02:05Z</time>
      </trkpt>
      <trkpt lat="45.25879" lon="4.68578">
        <ele>400.60000610352</ele>
        <time>2021-09-17T15:02:17Z</time>
      </trkpt>
      <trkpt lat="45.25878" lon="4.68581">
        <ele>400.79998779297</ele>
        <time>2021-09-17T15:02:19Z</time>
      </trkpt>
      <trkpt lat="45.2589" lon="4.6859">
        <ele>401.39999389648</ele>
        <time>2021-09-17T15:02:24Z</time>
      </trkpt>
      <trkpt lat="45.25898" lon="4.68593">
        <ele>401.39999389648</ele>
        <time>2021-09-17T15:02:26Z</time>
      </trkpt>
      <trkpt lat="45.2593" lon="4.68599">
        <ele>400.79998779297</ele>
        <time>2021-09-17T15:02:33Z</time>
      </trkpt>
      <trkpt lat="45.25973" lon="4.68632">
        <ele>399.39999389648</ele>
        <time>2021-09-17T15:02:42Z</time>
      </trkpt>
      <trkpt lat="45.26013" lon="4.68654">
        <ele>397.79998779297</ele>
        <time>2021-09-17T15:02:49Z</time>
      </trkpt>
      <trkpt lat="45.26045" lon="4.68685">
        <ele>396.39999389648</ele>
        <time>2021-09-17T15:02:55Z</time>
      </trkpt>
      <trkpt lat="45.26078" lon="4.68718">
        <ele>395</ele>
        <time>2021-09-17T15:03:00Z</time>
      </trkpt>
      <trkpt lat="45.26101" lon="4.68727">
        <ele>393.39999389648</ele>
        <time>2021-09-17T15:03:03Z</time>
      </trkpt>
      <trkpt lat="45.26107" lon="4.6873">
        <ele>393.20001220703</ele>
        <time>2021-09-17T15:03:04Z</time>
      </trkpt>
      <trkpt lat="45.26113" lon="4.68733">
        <ele>392.79998779297</ele>
        <time>2021-09-17T15:03:05Z</time>
      </trkpt>
      <trkpt lat="45.26124" lon="4.68736">
        <ele>392.60000610352</ele>
        <time>2021-09-17T15:03:07Z</time>
      </trkpt>
      <trkpt lat="45.26141" lon="4.68728">
        <ele>393.60000610352</ele>
        <time>2021-09-17T15:03:14Z</time>
      </trkpt>
      <trkpt lat="45.26151" lon="4.68724">
        <ele>395.20001220703</ele>
        <time>2021-09-17T15:03:19Z</time>
      </trkpt>
      <trkpt lat="45.26161" lon="4.68726">
        <ele>398.20001220703</ele>
        <time>2021-09-17T15:03:28Z</time>
      </trkpt>
      <trkpt lat="45.26176" lon="4.68735">
        <ele>401.20001220703</ele>
        <time>2021-09-17T15:03:39Z</time>
      </trkpt>
      <trkpt lat="45.26185" lon="4.68746">
        <ele>404</ele>
        <time>2021-09-17T15:03:49Z</time>
      </trkpt>
      <trkpt lat="45.26187" lon="4.68747">
        <ele>405</ele>
        <time>2021-09-17T15:03:52Z</time>
      </trkpt>
      <trkpt lat="45.26197" lon="4.68754">
        <ele>407</ele>
        <time>2021-09-17T15:04:05Z</time>
      </trkpt>
      <trkpt lat="45.26212" lon="4.68768">
        <ele>409.20001220703</ele>
        <time>2021-09-17T15:04:17Z</time>
      </trkpt>
      <trkpt lat="45.26225" lon="4.68782">
        <ele>411.39999389648</ele>
        <time>2021-09-17T15:04:27Z</time>
      </trkpt>
      <trkpt lat="45.26231" lon="4.68787">
        <ele>412.39999389648</ele>
        <time>2021-09-17T15:04:32Z</time>
      </trkpt>
      <trkpt lat="45.26239" lon="4.68795">
        <ele>413.39999389648</ele>
        <time>2021-09-17T15:04:39Z</time>
      </trkpt>
      <trkpt lat="45.26252" lon="4.68805">
        <ele>414.79998779297</ele>
        <time>2021-09-17T15:04:50Z</time>
      </trkpt>
      <trkpt lat="45.26261" lon="4.68815">
        <ele>415.39999389648</ele>
        <time>2021-09-17T15:04:56Z</time>
      </trkpt>
      <trkpt lat="45.26266" lon="4.68825">
        <ele>416</ele>
        <time>2021-09-17T15:05:01Z</time>
      </trkpt>
      <trkpt lat="45.26276" lon="4.6883">
        <ele>416.20001220703</ele>
        <time>2021-09-17T15:05:05Z</time>
      </trkpt>
      <trkpt lat="45.26284" lon="4.68838">
        <ele>417</ele>
        <time>2021-09-17T15:05:10Z</time>
      </trkpt>
      <trkpt lat="45.26307" lon="4.68864">
        <ele>417.79998779297</ele>
        <time>2021-09-17T15:05:22Z</time>
      </trkpt>
      <trkpt lat="45.26337" lon="4.68896">
        <ele>419.39999389648</ele>
        <time>2021-09-17T15:05:40Z</time>
      </trkpt>
      <trkpt lat="45.26395" lon="4.68943">
        <ele>420.79998779297</ele>
        <time>2021-09-17T15:06:05Z</time>
      </trkpt>
      <trkpt lat="45.26437" lon="4.68972">
        <ele>423.79998779297</ele>
        <time>2021-09-17T15:06:22Z</time>
      </trkpt>
      <trkpt lat="45.26473" lon="4.68995">
        <ele>425.60000610352</ele>
        <time>2021-09-17T15:06:36Z</time>
      </trkpt>
      <trkpt lat="45.26516" lon="4.69032">
        <ele>425.79998779297</ele>
        <time>2021-09-17T15:06:53Z</time>
      </trkpt>
      <trkpt lat="45.26559" lon="4.69057">
        <ele>426.79998779297</ele>
        <time>2021-09-17T15:07:14Z</time>
      </trkpt>
      <trkpt lat="45.26591" lon="4.6908">
        <ele>428.39999389648</ele>
        <time>2021-09-17T15:07:34Z</time>
      </trkpt>
      <trkpt lat="45.26641" lon="4.69137">
        <ele>429.39999389648</ele>
        <time>2021-09-17T15:07:59Z</time>
      </trkpt>
      <trkpt lat="45.26658" lon="4.69202">
        <ele>431</ele>
        <time>2021-09-17T15:08:18Z</time>
      </trkpt>
      <trkpt lat="45.26678" lon="4.69232">
        <ele>432.79998779297</ele>
        <time>2021-09-17T15:08:35Z</time>
      </trkpt>
      <trkpt lat="45.26713" lon="4.69278">
        <ele>435</ele>
        <time>2021-09-17T15:08:58Z</time>
      </trkpt>
      <trkpt lat="45.26722" lon="4.69322">
        <ele>436.79998779297</ele>
        <time>2021-09-17T15:09:13Z</time>
      </trkpt>
      <trkpt lat="45.26729" lon="4.69361">
        <ele>438.60000610352</ele>
        <time>2021-09-17T15:09:26Z</time>
      </trkpt>
      <trkpt lat="45.26731" lon="4.69371">
        <ele>439.79998779297</ele>
        <time>2021-09-17T15:09:30Z</time>
      </trkpt>
      <trkpt lat="45.2674" lon="4.6937">
        <ele>440.60000610352</ele>
        <time>2021-09-17T15:09:34Z</time>
      </trkpt>
      <trkpt lat="45.26796" lon="4.69341">
        <ele>440.20001220703</ele>
        <time>2021-09-17T15:09:48Z</time>
      </trkpt>
      <trkpt lat="45.26814" lon="4.69324">
        <ele>438.79998779297</ele>
        <time>2021-09-17T15:09:53Z</time>
      </trkpt>
      <trkpt lat="45.2682" lon="4.69325">
        <ele>437.60000610352</ele>
        <time>2021-09-17T15:09:55Z</time>
      </trkpt>
      <trkpt lat="45.26827" lon="4.69318">
        <ele>436.39999389648</ele>
        <time>2021-09-17T15:10:04Z</time>
      </trkpt>
      <trkpt lat="45.26829" lon="4.69319">
        <ele>436.20001220703</ele>
        <time>2021-09-17T15:11:02Z</time>
      </trkpt>
      <trkpt lat="45.2681" lon="4.69324">
        <ele>436.20001220703</ele>
        <time>2021-09-17T15:11:10Z</time>
      </trkpt>
      <trkpt lat="45.26797" lon="4.69339">
        <ele>436.39999389648</ele>
        <time>2021-09-17T15:11:17Z</time>
      </trkpt>
      <trkpt lat="45.26765" lon="4.69358">
        <ele>439</ele>
        <time>2021-09-17T15:11:35Z</time>
      </trkpt>
      <trkpt lat="45.26734" lon="4.69373">
        <ele>440.39999389648</ele>
        <time>2021-09-17T15:11:51Z</time>
      </trkpt>
      <trkpt lat="45.26734" lon="4.69378">
        <ele>440.79998779297</ele>
        <time>2021-09-17T15:11:55Z</time>
      </trkpt>
      <trkpt lat="45.26763" lon="4.69375">
        <ele>441.79998779297</ele>
        <time>2021-09-17T15:12:05Z</time>
      </trkpt>
      <trkpt lat="45.26858" lon="4.6933">
        <ele>439</ele>
        <time>2021-09-17T15:12:25Z</time>
      </trkpt>
      <trkpt lat="45.26864" lon="4.69343">
        <ele>438.79998779297</ele>
        <time>2021-09-17T15:12:29Z</time>
      </trkpt>
      <trkpt lat="45.26872" lon="4.69378">
        <ele>440.60000610352</ele>
        <time>2021-09-17T15:12:41Z</time>
      </trkpt>
      <trkpt lat="45.2688" lon="4.69389">
        <ele>442</ele>
        <time>2021-09-17T15:12:47Z</time>
      </trkpt>
      <trkpt lat="45.26902" lon="4.69402">
        <ele>445</ele>
        <time>2021-09-17T15:12:59Z</time>
      </trkpt>
      <trkpt lat="45.26926" lon="4.69433">
        <ele>447.60000610352</ele>
        <time>2021-09-17T15:13:15Z</time>
      </trkpt>
      <trkpt lat="45.26955" lon="4.69479">
        <ele>450</ele>
        <time>2021-09-17T15:13:33Z</time>
      </trkpt>
      <trkpt lat="45.26979" lon="4.69521">
        <ele>451.79998779297</ele>
        <time>2021-09-17T15:13:48Z</time>
      </trkpt>
      <trkpt lat="45.26999" lon="4.6957">
        <ele>453</ele>
        <time>2021-09-17T15:14:02Z</time>
      </trkpt>
      <trkpt lat="45.27006" lon="4.696">
        <ele>455.20001220703</ele>
        <time>2021-09-17T15:14:13Z</time>
      </trkpt>
      <trkpt lat="45.27011" lon="4.69613">
        <ele>456.20001220703</ele>
        <time>2021-09-17T15:14:18Z</time>
      </trkpt>
      <trkpt lat="45.27016" lon="4.69625">
        <ele>457.20001220703</ele>
        <time>2021-09-17T15:14:23Z</time>
      </trkpt>
      <trkpt lat="45.27024" lon="4.69637">
        <ele>458</ele>
        <time>2021-09-17T15:14:28Z</time>
      </trkpt>
      <trkpt lat="45.27032" lon="4.69649">
        <ele>459</ele>
        <time>2021-09-17T15:14:34Z</time>
      </trkpt>
      <trkpt lat="45.27033" lon="4.69652">
        <ele>459.20001220703</ele>
        <time>2021-09-17T15:14:36Z</time>
      </trkpt>
      <trkpt lat="45.27044" lon="4.69664">
        <ele>459.79998779297</ele>
        <time>2021-09-17T15:14:41Z</time>
      </trkpt>
      <trkpt lat="45.27052" lon="4.69675">
        <ele>460.39999389648</ele>
        <time>2021-09-17T15:14:46Z</time>
      </trkpt>
      <trkpt lat="45.27059" lon="4.69683">
        <ele>460.79998779297</ele>
        <time>2021-09-17T15:14:51Z</time>
      </trkpt>
      <trkpt lat="45.27067" lon="4.69695">
        <ele>461.20001220703</ele>
        <time>2021-09-17T15:14:55Z</time>
      </trkpt>
      <trkpt lat="45.27074" lon="4.69704">
        <ele>462.20001220703</ele>
        <time>2021-09-17T15:15:00Z</time>
      </trkpt>
      <trkpt lat="45.27082" lon="4.69714">
        <ele>462.60000610352</ele>
        <time>2021-09-17T15:15:04Z</time>
      </trkpt>
      <trkpt lat="45.27095" lon="4.69732">
        <ele>464.20001220703</ele>
        <time>2021-09-17T15:15:13Z</time>
      </trkpt>
      <trkpt lat="45.27103" lon="4.69746">
        <ele>466.20001220703</ele>
        <time>2021-09-17T15:15:20Z</time>
      </trkpt>
      <trkpt lat="45.2711" lon="4.69755">
        <ele>467.20001220703</ele>
        <time>2021-09-17T15:15:25Z</time>
      </trkpt>
      <trkpt lat="45.27126" lon="4.69775">
        <ele>469.79998779297</ele>
        <time>2021-09-17T15:15:37Z</time>
      </trkpt>
      <trkpt lat="45.27145" lon="4.69797">
        <ele>472.39999389648</ele>
        <time>2021-09-17T15:15:51Z</time>
      </trkpt>
      <trkpt lat="45.27163" lon="4.69818">
        <ele>473.79998779297</ele>
        <time>2021-09-17T15:16:03Z</time>
      </trkpt>
      <trkpt lat="45.27179" lon="4.69842">
        <ele>475.39999389648</ele>
        <time>2021-09-17T15:16:14Z</time>
      </trkpt>
      <trkpt lat="45.27191" lon="4.6987">
        <ele>476.60000610352</ele>
        <time>2021-09-17T15:16:23Z</time>
      </trkpt>
      <trkpt lat="45.27207" lon="4.699">
        <ele>477.79998779297</ele>
        <time>2021-09-17T15:16:33Z</time>
      </trkpt>
      <trkpt lat="45.27218" lon="4.69921">
        <ele>479.39999389648</ele>
        <time>2021-09-17T15:16:42Z</time>
      </trkpt>
      <trkpt lat="45.27234" lon="4.69954">
        <ele>482.60000610352</ele>
        <time>2021-09-17T15:16:56Z</time>
      </trkpt>
      <trkpt lat="45.27241" lon="4.69963">
        <ele>484</ele>
        <time>2021-09-17T15:17:01Z</time>
      </trkpt>
      <trkpt lat="45.27247" lon="4.69968">
        <ele>485.20001220703</ele>
        <time>2021-09-17T15:17:07Z</time>
      </trkpt>
      <trkpt lat="45.27253" lon="4.69976">
        <ele>485.79998779297</ele>
        <time>2021-09-17T15:17:11Z</time>
      </trkpt>
      <trkpt lat="45.27262" lon="4.69988">
        <ele>486.79998779297</ele>
        <time>2021-09-17T15:17:17Z</time>
      </trkpt>
      <trkpt lat="45.27281" lon="4.69997">
        <ele>489</ele>
        <time>2021-09-17T15:17:29Z</time>
      </trkpt>
      <trkpt lat="45.27301" lon="4.70011">
        <ele>490.60000610352</ele>
        <time>2021-09-17T15:17:38Z</time>
      </trkpt>
      <trkpt lat="45.27304" lon="4.70013">
        <ele>491</ele>
        <time>2021-09-17T15:17:39Z</time>
      </trkpt>
      <trkpt lat="45.27322" lon="4.70017">
        <ele>492.79998779297</ele>
        <time>2021-09-17T15:17:47Z</time>
      </trkpt>
      <trkpt lat="45.27345" lon="4.70018">
        <ele>493.79998779297</ele>
        <time>2021-09-17T15:17:58Z</time>
      </trkpt>
      <trkpt lat="45.27373" lon="4.70015">
        <ele>494.20001220703</ele>
        <time>2021-09-17T15:18:07Z</time>
      </trkpt>
      <trkpt lat="45.27403" lon="4.70023">
        <ele>494.60000610352</ele>
        <time>2021-09-17T15:18:16Z</time>
      </trkpt>
      <trkpt lat="45.27428" lon="4.70025">
        <ele>495.20001220703</ele>
        <time>2021-09-17T15:18:24Z</time>
      </trkpt>
      <trkpt lat="45.2745" lon="4.70024">
        <ele>495.39999389648</ele>
        <time>2021-09-17T15:18:30Z</time>
      </trkpt>
      <trkpt lat="45.27465" lon="4.7002">
        <ele>496.20001220703</ele>
        <time>2021-09-17T15:18:36Z</time>
      </trkpt>
      <trkpt lat="45.27505" lon="4.70019">
        <ele>498.79998779297</ele>
        <time>2021-09-17T15:18:52Z</time>
      </trkpt>
      <trkpt lat="45.2751" lon="4.70017">
        <ele>499.60000610352</ele>
        <time>2021-09-17T15:18:55Z</time>
      </trkpt>
      <trkpt lat="45.27524" lon="4.70018">
        <ele>500.39999389648</ele>
        <time>2021-09-17T15:18:59Z</time>
      </trkpt>
      <trkpt lat="45.27544" lon="4.70017">
        <ele>502</ele>
        <time>2021-09-17T15:19:06Z</time>
      </trkpt>
      <trkpt lat="45.27571" lon="4.70019">
        <ele>503.60000610352</ele>
        <time>2021-09-17T15:19:15Z</time>
      </trkpt>
      <trkpt lat="45.27575" lon="4.7002">
        <ele>503.79998779297</ele>
        <time>2021-09-17T15:19:17Z</time>
      </trkpt>
      <trkpt lat="45.27593" lon="4.70027">
        <ele>504.79998779297</ele>
        <time>2021-09-17T15:19:23Z</time>
      </trkpt>
      <trkpt lat="45.27625" lon="4.70041">
        <ele>506.60000610352</ele>
        <time>2021-09-17T15:19:35Z</time>
      </trkpt>
      <trkpt lat="45.27659" lon="4.7005">
        <ele>507.60000610352</ele>
        <time>2021-09-17T15:19:45Z</time>
      </trkpt>
      <trkpt lat="45.27688" lon="4.70067">
        <ele>508</ele>
        <time>2021-09-17T15:19:55Z</time>
      </trkpt>
      <trkpt lat="45.2771" lon="4.70072">
        <ele>508.60000610352</ele>
        <time>2021-09-17T15:20:01Z</time>
      </trkpt>
      <trkpt lat="45.27756" lon="4.70071">
        <ele>507.39999389648</ele>
        <time>2021-09-17T15:20:10Z</time>
      </trkpt>
      <trkpt lat="45.27772" lon="4.70079">
        <ele>507</ele>
        <time>2021-09-17T15:20:14Z</time>
      </trkpt>
      <trkpt lat="45.27798" lon="4.70103">
        <ele>507.39999389648</ele>
        <time>2021-09-17T15:20:25Z</time>
      </trkpt>
      <trkpt lat="45.27818" lon="4.70126">
        <ele>509.20001220703</ele>
        <time>2021-09-17T15:20:40Z</time>
      </trkpt>
      <trkpt lat="45.27833" lon="4.70146">
        <ele>511.20001220703</ele>
        <time>2021-09-17T15:20:50Z</time>
      </trkpt>
      <trkpt lat="45.27844" lon="4.70175">
        <ele>512.79998779297</ele>
        <time>2021-09-17T15:21:02Z</time>
      </trkpt>
      <trkpt lat="45.27853" lon="4.70195">
        <ele>514.59997558594</ele>
        <time>2021-09-17T15:21:12Z</time>
      </trkpt>
      <trkpt lat="45.27862" lon="4.70207">
        <ele>515.59997558594</ele>
        <time>2021-09-17T15:21:17Z</time>
      </trkpt>
      <trkpt lat="45.27867" lon="4.70214">
        <ele>516</ele>
        <time>2021-09-17T15:21:21Z</time>
      </trkpt>
      <trkpt lat="45.27874" lon="4.70228">
        <ele>516.59997558594</ele>
        <time>2021-09-17T15:21:26Z</time>
      </trkpt>
      <trkpt lat="45.27892" lon="4.70267">
        <ele>519</ele>
        <time>2021-09-17T15:21:40Z</time>
      </trkpt>
      <trkpt lat="45.27903" lon="4.70288">
        <ele>520.20001220703</ele>
        <time>2021-09-17T15:21:47Z</time>
      </trkpt>
      <trkpt lat="45.27916" lon="4.70332">
        <ele>521.79998779297</ele>
        <time>2021-09-17T15:21:58Z</time>
      </trkpt>
      <trkpt lat="45.2792" lon="4.7035">
        <ele>522</ele>
        <time>2021-09-17T15:22:02Z</time>
      </trkpt>
      <trkpt lat="45.2794" lon="4.70384">
        <ele>521.59997558594</ele>
        <time>2021-09-17T15:22:07Z</time>
      </trkpt>
      <trkpt lat="45.27955" lon="4.70398">
        <ele>520.59997558594</ele>
        <time>2021-09-17T15:22:10Z</time>
      </trkpt>
      <trkpt lat="45.27988" lon="4.70412">
        <ele>519</ele>
        <time>2021-09-17T15:22:15Z</time>
      </trkpt>
      <trkpt lat="45.27994" lon="4.70416">
        <ele>519</ele>
        <time>2021-09-17T15:22:16Z</time>
      </trkpt>
      <trkpt lat="45.28026" lon="4.70456">
        <ele>518</ele>
        <time>2021-09-17T15:22:23Z</time>
      </trkpt>
      <trkpt lat="45.28047" lon="4.70475">
        <ele>516.20001220703</ele>
        <time>2021-09-17T15:22:27Z</time>
      </trkpt>
      <trkpt lat="45.28059" lon="4.70476">
        <ele>514</ele>
        <time>2021-09-17T15:22:29Z</time>
      </trkpt>
      <trkpt lat="45.2807" lon="4.70478">
        <ele>513</ele>
        <time>2021-09-17T15:22:31Z</time>
      </trkpt>
      <trkpt lat="45.2809" lon="4.70474">
        <ele>511.20001220703</ele>
        <time>2021-09-17T15:22:35Z</time>
      </trkpt>
      <trkpt lat="45.28098" lon="4.7047">
        <ele>510.60000610352</ele>
        <time>2021-09-17T15:22:37Z</time>
      </trkpt>
      <trkpt lat="45.28132" lon="4.7045">
        <ele>510.60000610352</ele>
        <time>2021-09-17T15:22:47Z</time>
      </trkpt>
      <trkpt lat="45.28186" lon="4.70427">
        <ele>509.20001220703</ele>
        <time>2021-09-17T15:22:58Z</time>
      </trkpt>
      <trkpt lat="45.28235" lon="4.70406">
        <ele>506</ele>
        <time>2021-09-17T15:23:06Z</time>
      </trkpt>
      <trkpt lat="45.2832" lon="4.70367">
        <ele>503</ele>
        <time>2021-09-17T15:23:24Z</time>
      </trkpt>
      <trkpt lat="45.28326" lon="4.70364">
        <ele>502.20001220703</ele>
        <time>2021-09-17T15:23:26Z</time>
      </trkpt>
      <trkpt lat="45.28331" lon="4.70372">
        <ele>501.60000610352</ele>
        <time>2021-09-17T15:23:29Z</time>
      </trkpt>
      <trkpt lat="45.2834" lon="4.70404">
        <ele>498.60000610352</ele>
        <time>2021-09-17T15:23:38Z</time>
      </trkpt>
      <trkpt lat="45.28351" lon="4.70438">
        <ele>496.39999389648</ele>
        <time>2021-09-17T15:23:45Z</time>
      </trkpt>
      <trkpt lat="45.28354" lon="4.70443">
        <ele>496.20001220703</ele>
        <time>2021-09-17T15:23:46Z</time>
      </trkpt>
      <trkpt lat="45.28362" lon="4.70456">
        <ele>496</ele>
        <time>2021-09-17T15:23:48Z</time>
      </trkpt>
      <trkpt lat="45.28385" lon="4.70498">
        <ele>493</ele>
        <time>2021-09-17T15:23:55Z</time>
      </trkpt>
      <trkpt lat="45.28395" lon="4.70511">
        <ele>490.79998779297</ele>
        <time>2021-09-17T15:23:58Z</time>
      </trkpt>
      <trkpt lat="45.28425" lon="4.706">
        <ele>488.79998779297</ele>
        <time>2021-09-17T15:24:12Z</time>
      </trkpt>
      <trkpt lat="45.28447" lon="4.70676">
        <ele>489</ele>
        <time>2021-09-17T15:24:24Z</time>
      </trkpt>
      <trkpt lat="45.28454" lon="4.70719">
        <ele>489.20001220703</ele>
        <time>2021-09-17T15:24:31Z</time>
      </trkpt>
      <trkpt lat="45.28463" lon="4.70842">
        <ele>486.60000610352</ele>
        <time>2021-09-17T15:24:49Z</time>
      </trkpt>
      <trkpt lat="45.28463" lon="4.70913">
        <ele>484.39999389648</ele>
        <time>2021-09-17T15:24:58Z</time>
      </trkpt>
      <trkpt lat="45.28465" lon="4.71021">
        <ele>482.20001220703</ele>
        <time>2021-09-17T15:25:12Z</time>
      </trkpt>
      <trkpt lat="45.28468" lon="4.71063">
        <ele>478.79998779297</ele>
        <time>2021-09-17T15:25:17Z</time>
      </trkpt>
      <trkpt lat="45.28468" lon="4.71084">
        <ele>477.39999389648</ele>
        <time>2021-09-17T15:25:19Z</time>
      </trkpt>
      <trkpt lat="45.28465" lon="4.71116">
        <ele>476.20001220703</ele>
        <time>2021-09-17T15:25:22Z</time>
      </trkpt>
      <trkpt lat="45.28462" lon="4.71169">
        <ele>473.39999389648</ele>
        <time>2021-09-17T15:25:27Z</time>
      </trkpt>
      <trkpt lat="45.28457" lon="4.71218">
        <ele>470.39999389648</ele>
        <time>2021-09-17T15:25:33Z</time>
      </trkpt>
      <trkpt lat="45.28456" lon="4.71274">
        <ele>465.79998779297</ele>
        <time>2021-09-17T15:25:39Z</time>
      </trkpt>
      <trkpt lat="45.28461" lon="4.7132">
        <ele>463.60000610352</ele>
        <time>2021-09-17T15:25:44Z</time>
      </trkpt>
      <trkpt lat="45.28462" lon="4.71335">
        <ele>462.20001220703</ele>
        <time>2021-09-17T15:25:46Z</time>
      </trkpt>
      <trkpt lat="45.28468" lon="4.71389">
        <ele>457.79998779297</ele>
        <time>2021-09-17T15:25:52Z</time>
      </trkpt>
      <trkpt lat="45.2847" lon="4.71445">
        <ele>453.39999389648</ele>
        <time>2021-09-17T15:25:57Z</time>
      </trkpt>
      <trkpt lat="45.28472" lon="4.71478">
        <ele>449.79998779297</ele>
        <time>2021-09-17T15:26:00Z</time>
      </trkpt>
      <trkpt lat="45.28475" lon="4.7152">
        <ele>446.60000610352</ele>
        <time>2021-09-17T15:26:04Z</time>
      </trkpt>
      <trkpt lat="45.28479" lon="4.71561">
        <ele>443</ele>
        <time>2021-09-17T15:26:08Z</time>
      </trkpt>
      <trkpt lat="45.28483" lon="4.71597">
        <ele>438.60000610352</ele>
        <time>2021-09-17T15:26:11Z</time>
      </trkpt>
      <trkpt lat="45.28491" lon="4.71659">
        <ele>435.20001220703</ele>
        <time>2021-09-17T15:26:16Z</time>
      </trkpt>
      <trkpt lat="45.28509" lon="4.71742">
        <ele>432</ele>
        <time>2021-09-17T15:26:23Z</time>
      </trkpt>
      <trkpt lat="45.28521" lon="4.71786">
        <ele>429</ele>
        <time>2021-09-17T15:26:27Z</time>
      </trkpt>
      <trkpt lat="45.28544" lon="4.71859">
        <ele>426</ele>
        <time>2021-09-17T15:26:34Z</time>
      </trkpt>
      <trkpt lat="45.28581" lon="4.71955">
        <ele>423.20001220703</ele>
        <time>2021-09-17T15:26:45Z</time>
      </trkpt>
      <trkpt lat="45.28601" lon="4.72023">
        <ele>421.20001220703</ele>
        <time>2021-09-17T15:26:53Z</time>
      </trkpt>
      <trkpt lat="45.28614" lon="4.72066">
        <ele>420</ele>
        <time>2021-09-17T15:26:58Z</time>
      </trkpt>
      <trkpt lat="45.28634" lon="4.72123">
        <ele>417</ele>
        <time>2021-09-17T15:27:05Z</time>
      </trkpt>
      <trkpt lat="45.28669" lon="4.72217">
        <ele>413.79998779297</ele>
        <time>2021-09-17T15:27:16Z</time>
      </trkpt>
      <trkpt lat="45.28699" lon="4.72299">
        <ele>411</ele>
        <time>2021-09-17T15:27:25Z</time>
      </trkpt>
      <trkpt lat="45.28719" lon="4.7233">
        <ele>407.60000610352</ele>
        <time>2021-09-17T15:27:29Z</time>
      </trkpt>
      <trkpt lat="45.28743" lon="4.72365">
        <ele>406.39999389648</ele>
        <time>2021-09-17T15:27:34Z</time>
      </trkpt>
      <trkpt lat="45.28777" lon="4.72431">
        <ele>403.79998779297</ele>
        <time>2021-09-17T15:27:43Z</time>
      </trkpt>
      <trkpt lat="45.2879" lon="4.72457">
        <ele>402.79998779297</ele>
        <time>2021-09-17T15:27:47Z</time>
      </trkpt>
      <trkpt lat="45.28793" lon="4.72477">
        <ele>402.20001220703</ele>
        <time>2021-09-17T15:27:51Z</time>
      </trkpt>
      <trkpt lat="45.28785" lon="4.72522">
        <ele>401.39999389648</ele>
        <time>2021-09-17T15:28:00Z</time>
      </trkpt>
      <trkpt lat="45.28788" lon="4.72626">
        <ele>399.60000610352</ele>
        <time>2021-09-17T15:28:13Z</time>
      </trkpt>
      <trkpt lat="45.28775" lon="4.72695">
        <ele>398.20001220703</ele>
        <time>2021-09-17T15:28:21Z</time>
      </trkpt>
      <trkpt lat="45.28773" lon="4.72704">
        <ele>398</ele>
        <time>2021-09-17T15:28:22Z</time>
      </trkpt>
      <trkpt lat="45.28772" lon="4.72803">
        <ele>395.20001220703</ele>
        <time>2021-09-17T15:28:32Z</time>
      </trkpt>
      <trkpt lat="45.28764" lon="4.72843">
        <ele>392.39999389648</ele>
        <time>2021-09-17T15:28:39Z</time>
      </trkpt>
      <trkpt lat="45.28753" lon="4.72864">
        <ele>391.60000610352</ele>
        <time>2021-09-17T15:28:43Z</time>
      </trkpt>
      <trkpt lat="45.28748" lon="4.72881">
        <ele>390.79998779297</ele>
        <time>2021-09-17T15:28:47Z</time>
      </trkpt>
      <trkpt lat="45.28772" lon="4.72903">
        <ele>388.79998779297</ele>
        <time>2021-09-17T15:28:57Z</time>
      </trkpt>
      <trkpt lat="45.28787" lon="4.72915">
        <ele>388.39999389648</ele>
        <time>2021-09-17T15:29:01Z</time>
      </trkpt>
      <trkpt lat="45.28792" lon="4.72918">
        <ele>388.39999389648</ele>
        <time>2021-09-17T15:29:02Z</time>
      </trkpt>
      <trkpt lat="45.28824" lon="4.72964">
        <ele>387.60000610352</ele>
        <time>2021-09-17T15:29:10Z</time>
      </trkpt>
      <trkpt lat="45.28877" lon="4.73114">
        <ele>386.60000610352</ele>
        <time>2021-09-17T15:29:32Z</time>
      </trkpt>
      <trkpt lat="45.28934" lon="4.73204">
        <ele>386.79998779297</ele>
        <time>2021-09-17T15:29:50Z</time>
      </trkpt>
      <trkpt lat="45.29001" lon="4.73302">
        <ele>387.60000610352</ele>
        <time>2021-09-17T15:30:11Z</time>
      </trkpt>
      <trkpt lat="45.29066" lon="4.73394">
        <ele>389</ele>
        <time>2021-09-17T15:30:33Z</time>
      </trkpt>
      <trkpt lat="45.29099" lon="4.7342">
        <ele>390</ele>
        <time>2021-09-17T15:30:45Z</time>
      </trkpt>
      <trkpt lat="45.29117" lon="4.73432">
        <ele>390.79998779297</ele>
        <time>2021-09-17T15:30:52Z</time>
      </trkpt>
      <trkpt lat="45.29133" lon="4.73422">
        <ele>391.39999389648</ele>
        <time>2021-09-17T15:30:58Z</time>
      </trkpt>
      <trkpt lat="45.29152" lon="4.73396">
        <ele>393.39999389648</ele>
        <time>2021-09-17T15:31:10Z</time>
      </trkpt>
      <trkpt lat="45.29156" lon="4.73396">
        <ele>394</ele>
        <time>2021-09-17T15:31:12Z</time>
      </trkpt>
      <trkpt lat="45.29181" lon="4.73431">
        <ele>394.60000610352</ele>
        <time>2021-09-17T15:31:24Z</time>
      </trkpt>
      <trkpt lat="45.29186" lon="4.73438">
        <ele>394.60000610352</ele>
        <time>2021-09-17T15:31:27Z</time>
      </trkpt>
      <trkpt lat="45.292" lon="4.73432">
        <ele>394.79998779297</ele>
        <time>2021-09-17T15:31:34Z</time>
      </trkpt>
      <trkpt lat="45.29219" lon="4.73411">
        <ele>395.20001220703</ele>
        <time>2021-09-17T15:31:45Z</time>
      </trkpt>
      <trkpt lat="45.29239" lon="4.73388">
        <ele>396.20001220703</ele>
        <time>2021-09-17T15:31:58Z</time>
      </trkpt>
      <trkpt lat="45.29244" lon="4.73393">
        <ele>397</ele>
        <time>2021-09-17T15:32:10Z</time>
      </trkpt>
      <trkpt lat="45.29256" lon="4.73428">
        <ele>397</ele>
        <time>2021-09-17T15:32:22Z</time>
      </trkpt>
      <trkpt lat="45.29257" lon="4.73429">
        <ele>397</ele>
        <time>2021-09-17T15:32:32Z</time>
      </trkpt>
      <trkpt lat="45.29254" lon="4.73429">
        <ele>397</ele>
        <time>2021-09-17T15:32:47Z</time>
      </trkpt>
    </trkseg>
  </trk>
</gpx>